     2              OBSERVATION DATA    GPS                 RINEX VERSION / TYPE
teqc 1997Jul24 19970814                                     PGM / RUN BY / DATE
                                                            COMMENT
Original Marker Name: 0501                                  COMMENT
Campaign Name: HPGN 1991                                    COMMENT
4-Character Station Name: 0501                              COMMENT
6-Character Antenna Code: TRMSST                            COMMENT
Vertical Measurement Point: TGP                             COMMENT
Vertical Offset to Rinex Ref. Point: 0.0629                 COMMENT
Radial Measurement Point: OGP                               COMMENT
Radial Offset to Rinex Ref. Point: 0.2413                   COMMENT
Antenna Height from Field Measurement: 1.7620 m             COMMENT
Original XYZ: -2602090.9788 -4579388.8775 3585017.4154      COMMENT
New XYZ position is based on association with SCEC monument COMMENT
E1E9C9W7+0011. Position of that monument is believed to be  COMMENT
valid to within 1 m horizontally; vertical accuracy         COMMENT
should be no worse than 3-times this value.                 COMMENT
                                                            COMMENT
Revised Rinex header created by UCSD GPS archive for        COMMENT
GSAC on 19-Apr-1999 (1999:109) 07:12:10 GMT                 COMMENT
For assistance contact dagnew@ucsd.edu or hjohnson@ucsd.edu COMMENT
                                                            COMMENT
HPGN-CALIF STA 05-01 1990                                   MARKER NAME
unknown NATIONAL GEODETIC SURVEY                            OBSERVER / AGENCY
483 TRIMBLE 4000 SST NP 4.30 / SP 4.20                      REC # / TYPE / VERS
19 TR 4000SST L1/L2 GEO                                     ANT # / TYPE
 -2602097.0000 -4579389.0000  3585020.0000                  APPROX POSITION XYZ
        1.6825        0.0000        0.0000                  ANTENNA: DELTA H/E/N
     1     1     0                                          WAVELENGTH FACT L1/2
     3    C1    L1    L2                                    # / TYPES OF OBSERV
     0                                                      INTERVAL
  1991     4    25    19    49   15.000000                  TIME OF FIRST OBS
  1991     4    26     1    49   60.000000                  TIME OF LAST OBS
     0                                                      # OF SATELLITES
                                                            END OF HEADER
 91  4 25 19 49 15.0000000  0  4G18G 2G11G19
  20634176.109          -0.21218
  23534210.555          -0.84015
  23715921.086          -0.16316
  20777038.1334         -0.22257
 91  4 25 19 49 30.0000000  0  4G18G 2G11G19
  20637644.344       18230.277 8        -0.11232
  23525162.7814     -47536.37045
  23709929.695      -31506.267 6
  20776662.422       -1969.692 7        -0.17432
 91  4 25 19 49 45.0000000  0  4G18G 2G11G19
  20641118.336       36484.393 8     14223.85523
  23516113.6254     -95108.50645        -0.26071
  23703932.4144     -63001.56346        -0.21771
  20776279.953       -3981.795 7     -1568.03122
 91  4 25 19 50  0.0000000  0  4G18G 2G11G19
  20644599.398       54785.628 8     28484.54023
  23507054.5864    -142693.79945    -37079.45861
  23697944.4924     -94462.31246    -24515.04761
  20775893.117       -6013.220 7     -3150.93922
 91  4 25 19 50 15.0000000  0  4G18G 2G11G19
  20648096.594       73155.808 8     42798.95022
  23498002.3054    -190270.21945    -74151.76161
  23691972.2734    -125866.43846    -48985.76461
  20775508.3914      -8041.97947     -4731.77962
 91  4 25 19 50 30.0000000  0  4G18G 2G11G19
  20651608.125       91603.582 8     57173.81923
  23488951.9534    -237828.71945   -111210.09361
  23686008.5944    -157204.72146    -73405.18861
  20775123.7424     -10059.50447     -6303.86662
 91  4 25 19 50 45.0000000  0  4G18G 2G11G19
  20655134.781      110139.257 8     71617.17923
  23479911.898     -285358.926 5   -148246.39421
  23680059.0784    -188466.51446    -97765.00461
  20774744.695      -12055.595 7     -7859.24222
 91  4 25 19 51  0.0000000  0  4G18G 2G11G19
  20658678.734      128762.055 8     86128.43123
  23470868.742     -332861.337 5   -185261.01521
  23674123.7974    -219652.08746   -122065.41561
  20774370.563      -14030.930 7     -9398.45422
 91  4 25 19 51 15.0000000  0  4G18G 2G11G19
  20662241.180      147476.742 8    100711.28623
  23461837.2424    -380331.06346   -222250.18361
  23668206.141     -250756.443 6   -146302.56521
  20773996.7664     -15980.74647    -10917.77762
 91  4 25 19 51 30.0000000  0  4G18G 2G11G19
  20665819.281      166287.192 8    115368.75623
  23452812.195     -427763.653 6   -259210.40421
  23662303.3284    -281775.02146   -170472.87261
  20773632.273      -17900.939 7    -12414.02222
 91  4 25 19 51 45.0000000  0  4G18G 2G11G19
  20669420.164      185196.316 8    130103.12323
  23443790.4384    -475156.25745   -296139.47061
  23656413.4454    -312704.75546   -194573.93961
  20773272.2664     -19788.82047    -13885.08462
 91  4 25 19 52  0.0000000  0  4G18G 2G11G19
  20673033.063      204201.446 8    144912.29423
  23434776.266     -522511.426 5   -333039.38621
  23650549.531     -343547.961 6   -218607.58921
  20772919.2974     -21647.13047    -15333.10762
 91  4 25 19 52 15.0000000  0  4G18G 2G11G19
  20676669.094      223305.502 8    159798.55023
  23425773.2734    -569826.23245   -369907.82461
  23644693.891     -374301.490 6   -242571.36321
  20772570.875      -23473.035 7    -16755.87822
 91  4 25 19 52 30.0000000  0  4G18G 2G11G19
  20680321.922      242505.007 8    174759.18523
  23416779.9774    -617103.79246   -406747.26561
  23638860.016     -404968.222 6   -266467.48921
  20772228.703      -25269.860 7    -18155.98722
 91  4 25 19 52 45.0000000  0  4G18G 2G11G19
  20683997.133      261802.988 8    189796.55223
  23407788.148     -664340.996 5   -443555.24121
  23633041.9144    -435544.83646   -290293.42061
  20771894.8984     -27034.58047    -19531.08562
 91  4 25 19 53  0.0000000  0  4G18G 2G11G19
  20687686.047      281197.056 8    204908.78623
  23398805.6334    -711539.77145   -480333.28261
  23627237.953     -466033.008 6   -314050.42221
  20771563.984      -28769.348 7    -20882.83722
 91  4 25 19 53 15.0000000  0  4G18G 2G11G19
  20691395.055      300691.137 8    220098.96023
  23389833.2664    -758695.72145   -517077.96561
  23621456.469     -496428.389 6   -337735.10521
  20771241.0004     -30469.92047    -22207.94962
 91  4 25 19 53 30.0000000  0  4G18G 2G11G19
  20695124.703      320282.363 8    235364.82423
  23380867.367     -805811.800 5   -553791.56121
  23615688.875     -526733.706 5   -361349.63121
  20770922.9534     -32139.62447    -23509.00362
 91  4 25 19 53 45.0000000  0  4G18G 2G11G19
  20698870.398      339971.715 8    250707.16422
  23371905.930     -852886.912 5   -590473.24621
  23609935.930     -556947.589 6   -384892.89221
  20770611.445      -33777.397 7    -24785.18222
 91  4 25 19 54  0.0000000  0  4G18G 2G11G19
  20702636.906      359761.329 8    266127.61823
  23362957.9844    -899918.74346   -627121.21561
  23604208.664     -587067.629 6   -408363.04221
  20770306.0864     -35381.16747    -26034.86162
 91  4 25 19 54 15.0000000  0  4G18G 2G11G19
  20706420.789      379646.557 8    281622.58223
  23354014.914     -946911.663 6   -663738.85221
  23598490.047     -617098.020 6   -431763.32721
  20770006.3914     -36955.54647    -27261.64362
 91  4 25 19 54 30.0000000  0  4G18G 2G11G19
  20710224.141      399631.889 8    297195.54923
  23345081.469     -993860.922 6   -700322.47321
  23592797.2274    -647033.86046   -455089.95761
  20769714.2274     -38496.02147    -28462.00262
 91  4 25 19 54 45.0000000  0  4G18G 2G11G19
  20714044.438      419716.284 8    312845.70423
  23336157.4844   -1040767.21946   -736872.61561
  23587118.477     -676875.661 6   -478343.28421
  20769426.5704     -40003.33447    -29636.52562
 91  4 25 19 55  0.0000000  0  4G18G 2G11G19
  20717887.586      439898.014 8    328571.70923
  23327240.391    -1087632.111 6   -773390.48621
  23581456.148     -706624.740 6   -501524.37321
  20769143.8204     -41479.30547    -30786.62762
 91  4 25 19 55 15.0000000  0  4G18G 2G11G19
  20721744.789      460180.201 8    344375.99022
  23318327.8984   -1134452.42946   -809873.63861
  23575811.375     -736277.646 6   -524630.51021
  20768870.8834     -42920.80647    -31909.87062
 91  4 25 19 55 30.0000000  0  4G18G 2G11G19
  20725625.742      480561.657 8    360257.62423
  23309429.969    -1181229.475 6   -846323.05921
  23570189.9064    -765835.30146   -547662.44861
  20768602.6804     -44329.30547    -33007.39362
 91  4 25 19 55 45.0000000  0  4G18G 2G11G19
  20729520.367      501037.917 8    376213.12823
  23300533.359    -1227966.987 6   -882741.67421
  23564578.5864    -795301.60346   -570623.19461
  20768339.1174     -45708.92747    -34082.41562
 91  4 25 19 56  0.0000000  0  4G18G 2G11G19
  20733436.383      521611.273 8    392244.29523
  23291645.984    -1274662.530 6   -919127.59021
  23558992.3674    -824673.76346   -593510.58761
  20768086.1644     -47057.31447    -35133.10262
 91  4 25 19 56 15.0000000  0  4G18G 2G11G19
  20737368.930      542277.232 8    408347.62123
  23282768.4614   -1321320.60446   -955484.31561
  23553420.695     -853956.085 6   -616327.96421
  20767831.4534     -48378.93647    -36162.93062
 91  4 25 19 56 30.0000000  0  4G18G 2G11G19
  20741318.133      563040.449 8    424526.73123
  23273897.227    -1367936.130 6   -991807.86921
  23547865.1804    -883143.58846   -639071.47461
  20767586.2974     -49669.29547    -37168.39762
 91  4 25 19 56 45.0000000  0  4G18G 2G11G19
  20745289.688      583904.974 8    440784.78323
  23265033.266    -1414504.723 6  -1028094.86521
  23542330.164     -912231.697 6   -661737.52521
  20767348.1954     -50924.10847    -38146.16762
 91  4 25 19 57  0.0000000  0  5G18G 2G11G19G16
  20749278.961      604869.745 8    457120.94523
  23256178.2194   -1461027.30846  -1064346.01261
  23536816.3054    -941220.88346   -684326.50461
  20767116.2814     -52144.30547    -39096.96462
  24200546.547          -0.27715
 91  4 25 19 57 15.0000000  0  5G18G 2G11G19G16
  20753286.383      625930.528 8    473531.92523
  23247337.7584   -1507507.76946  -1100564.33661
  23531316.7974    -970115.01546   -706841.39661
  20766889.6484     -53334.07447    -40024.05362
  24194602.5554     -31232.50345
 91  4 25 19 57 30.0000000  0  5G18G 2G11G19G16
  20757312.477      647091.354 8    490020.86023
  23238498.6644   -1553941.93346  -1136746.58061
  23525834.570     -998909.701 6   -729278.79821
  20766668.8594     -54489.37047    -40924.27462
  24188682.4614     -62358.99245        -0.14371
 91  4 25 19 57 45.0000000  0  5G18G 2G11G19G16
  20761358.500      668351.679 8    506587.32323
  23229670.836    -1600330.107 6  -1172892.99221
  23520376.359    -1027605.039 6   -751638.79821
  20766455.2344     -55610.72147    -41798.05362
  24182776.992      -93380.227 4    -24172.45621
 91  4 25 19 58  0.0000000  0  5G18G 2G11G19G16
  20765423.008      689705.005 8    523226.25723
  23220848.6954   -1646678.75946  -1209008.60661
  23514930.7424   -1056207.36146   -773926.31161
  20766249.0234     -56704.61447    -42650.43562
  24176890.898     -124302.413 4    -48267.61521
 91  4 25 19 58 15.0000000  0  5G18G 2G11G19G16
  20769504.313      711154.939 8    539940.46823
  23212040.2034   -1692984.17746  -1245090.54161
  23509507.2194   -1084712.85146   -796138.36661
  20766043.8674     -57767.47247    -43478.63262
  24171030.1724    -155122.17544    -72282.93561
 91  4 25 19 58 30.0000000  0  5G18G 2G11G19G16
  20773604.313      732699.541 8    556728.44723
  23203235.1954   -1739248.09846  -1281140.13461
  23504103.188    -1113122.872 6   -818276.03421
  20765848.2974     -58801.16247    -44284.09762
  24165183.508     -185840.884 4    -96219.55721
 91  4 25 19 58 45.0000000  0  5G18G 2G11G19G16
  20777723.695      754339.206 8    573590.49523
  23194444.4454   -1785469.68846  -1317156.74661
  23498714.0314   -1141436.40446   -840338.51961
  20765658.4454     -59805.07947    -45066.36562
  24159354.6254    -216457.49644   -120076.57461
 91  4 25 19 59  0.0000000  0  5G18G 2G11G19G16
  20781858.000      776072.551 8    590525.54523
  23185652.1484   -1831650.02246  -1353141.20761
  23493346.7194   -1169654.51046   -862326.64661
  20765471.6484     -60780.69547    -45826.58262
  24153547.273     -246973.138 5   -143854.94321
 91  4 25 19 59 15.0000000  0  5G18G 2G11G19G16
  20786011.3754     797899.27248    607533.35263
  23176874.4224   -1877789.08746  -1389093.51761
  23487990.8594   -1197777.05446   -884240.31061
  20765291.7504     -61728.11647    -46564.83062
  24147759.445     -277387.968 5
 91  4 25 19 59 30.0000000  0  5G18G 2G11G19G16
  20790182.7974     819816.32348    624611.54463
  23168102.8834   -1923889.90346  -1425016.01861
  23482658.305    -1225806.901 6   -906081.72921
  20765116.6564     -62650.56647    -47283.61762
  24141992.7194    -307704.93345
 91  4 25 19 59 45.0000000  0  5G18G 2G11G19G16
  20794371.031      841829.610 7    641764.73123
  23159335.266    -1969946.203 6  -1460903.84421
  23477343.813    -1253737.477 6   -927845.80921
  20764946.2974     -63541.84047    -47978.10962
  24136243.727     -337917.780 5
 91  4 25 20  0  0.0000000  0  5G18G 2G11G19G16
  20798578.477      863937.509 8    658991.64023
  23150579.2664   -2015959.69046  -1496758.29961
  23472049.7584   -1281570.38946   -949533.77661
  20764782.3984     -64403.66947    -48649.66462
  24130514.3204    -368028.16645        -0.30371
 91  4 25 20  0 15.0000000  0  5G18G 2G11G19G16
  20802802.8054     886139.21947    676291.64663
  23141835.133    -2061930.835 6  -1532579.76621
  23466770.3984   -1309305.80346   -971145.77461
  20764624.3364     -65236.70247    -49298.77362
  24124800.477     -398036.459 5    -23383.33421
 91  4 25 20  0 30.0000000  0  5G18G 2G11G19G16
  20807045.242      908433.630 7    693663.89423
  23133092.711    -2107860.224 6  -1568368.70121
  23461509.352    -1336944.206 6   -992682.18621
  20764470.9064     -66041.80347    -49926.11962
  24119113.6414    -427943.11645    -46687.16861
 91  4 25 20  0 45.0000000  0  5G18G 2G11G19G16
  20811307.484      930822.511 8    711109.75123
  23124359.844    -2153746.139 6  -1604123.76021
  23456267.328    -1364483.613 6  -1014141.44521
  20764324.5164     -66817.32947    -50530.42062
  24113440.9844    -457746.21145    -69910.31061
 91  4 25 20  1  0.0000000  0  5G18G 2G11G19G16
  20815584.742      953307.173 7    728630.24223
  23115638.3284   -2199587.20046  -1639843.87761
  23451046.727    -1391922.688 6  -1035522.52021
  20764182.5234     -67562.05247    -51110.71762
  24107787.4144    -487444.43045    -93051.71961
 91  4 25 20  1 15.0000000  0  5G18G 2G11G19G16
  20819881.133      975885.871 7    746224.00623
  23106922.469    -2245384.775 6  -1675530.10021
  23445847.453    -1419262.543 6  -1056826.29121
  20764046.0164     -68277.51047    -51668.21662
  24102156.4844    -517039.26645   -116112.57161
 91  4 25 20  1 30.0000000  0  5G18G 2G11G19G16
  20824198.188      998559.102 8    763891.43823
  23098218.609    -2291137.956 6  -1711181.73421
  23440659.3754   -1446502.16446  -1078051.92961
  20763917.1724     -68963.00246    -52202.35462
  24096546.5234    -546529.80145   -139092.13561
 91  4 25 20  1 45.0000000  0  5G18G 2G11G19G16
  20828529.9844    1021327.41647    781632.95063
  23089515.531    -2336846.166 6  -1746798.32921
  23435500.0004   -1473640.75446  -1099198.88461
  20763790.8054     -69618.25947    -52712.94062
  24090954.641     -575915.056 5   -161989.70721
 91  4 25 20  2  0.0000000  0  5G18G 2G11G19G16
  20832878.6954    1044188.05247    799446.40161
  23080825.289    -2382511.887 6  -1782381.82721
  23430350.9614   -1500680.63646  -1120268.90961
  20763670.4224     -70245.71647    -53201.86061
  24085380.8364    -605197.58145   -184807.17361
 91  4 25 20  2 15.0000000  0  5G18G 2G11G19G16
  20837248.813     1067148.636 7    817337.74223
  23072144.5554   -2428127.28446  -1817926.11161
  23425228.766    -1527613.748 6  -1141255.72621
  20763557.695      -70837.887 7    -53663.28222
  24079828.0784    -634369.41145   -207538.40961
 91  4 25 20  2 30.0000000  0  5G18G 2G11G19G16
  20841636.1804    1090209.89547    835307.51963
  23063475.680    -2473691.292 6  -1853430.34821
  23420119.742    -1554438.831 6  -1162158.37421
  20763453.8914     -71393.74347    -54096.41462
  24074298.9614    -663429.66045   -230182.69761
 91  4 25 20  2 45.0000000  0  5G18G 2G11G19G16
  20846044.906     1113377.991 7    853360.55823
  23054817.000    -2519197.748 6  -1888889.75121
  23415038.7734   -1581149.52346  -1182971.87261
  20763356.6484     -71907.23947    -54496.53662
  24068792.6254    -692372.03745   -252735.11361
 91  4 25 20  3  0.0000000  0  5G18G 2G11G19G16
  20850474.797     1136649.315 7    871494.02823
  23046164.2894   -2564649.71746  -1924306.68561
  23409976.078    -1607748.975 6  -1203698.69521
  20763265.9924     -72381.86147    -54866.36462
  24063306.5554    -721199.59845   -275198.09161
 91  4 25 20  3 15.0000000  0  5G18G 2G11G19G16
  20854924.0164    1160038.91547    889719.66263
  23037530.438    -2610032.130 6  -1959669.43121
  23404937.398    -1634221.703 6  -1224326.77921
  20763186.2274     -72802.43047    -55194.07162
  24057845.219     -749897.229 5   -297559.82621
 91  4 25 20  3 30.0000000  0  5G18G 2G11G19G16
  20859398.8364    1183548.96147    908039.14963
  23028910.1484   -2655342.71746  -1994976.20261
  23399925.2424   -1660565.42346  -1244854.31761
  20763116.4064     -73166.83447    -55478.01362
  24052410.1564    -778462.72145   -319818.58161
 91  4 25 20  3 45.0000000  0  5G18G 2G11G19G16
  20863897.9774    1207192.82247    926462.91163
  23020301.344    -2700567.725 6  -2030216.29421
  23394944.281    -1686766.223 6  -1265270.50821
  20763059.6564     -73461.56947    -55707.67562
  24047003.2814    -806882.07345   -341963.46361
 91  4 25 20  4  0.0000000  0  5G18G 2G11G19G16
  20868424.2034    1230981.23947    944999.30963
  23011714.2034   -2745696.26146  -2065381.20461
  23389983.9774   -1712812.90846  -1285566.60061
  20763017.1644     -73675.89147    -55874.67262
  24041621.938     -835144.271 5   -363985.89921
 91  4 25 20  4 15.0000000  0  5G18G 2G11G19G16
  20872983.1094    1254930.01747    963660.66463
  23003146.9064   -2790712.00346  -2100458.23061
  23385060.1094   -1738689.07346  -1305729.81261
  20762997.0474     -73793.39647
  24036277.648     -863233.205 5   -385873.33621
 91  4 25 20  4 30.0000000  0  5G18G 2G11G19G16
  20877573.992     1279051.671 7    982456.73023
  22994603.703    -2835602.245 6  -2135437.45921
  23380175.2274   -1764381.90046  -1325750.17761
  20762993.2274     -73801.79147
  24030967.3364    -891136.39045   -407616.00361
 91  4 25 20  4 45.0000000  0  5G18G 2G11G19G16
  20882199.6254    1303364.57047   1001401.81763
  22986092.234    -2880348.436 6  -2170304.45121
  23375321.039    -1789872.554 6  -1345612.99721
  20763018.3594     -73682.68147
  24025697.1024    -918835.10146   -429199.33961
 91  4 25 20  5  0.0000000  0  5G18G 2G11G19G16
  20886866.211     1327885.335 7   1020508.88123
  22977605.9384   -2924933.84146  -2205046.14561
  23370511.789    -1815144.167 6  -1365305.14421
  20763066.648      -73419.267 7
  24020468.2974    -946312.24046   -450610.03261
 91  4 25 20  5 15.0000000  0  5G18G 2G11G19G16
  20891575.586     1352630.348 7   1039790.68023
  22969155.063    -2969341.885 6  -2239649.64921
  23365747.8834   -1840180.08646  -1384813.62561
  20763148.5864     -72995.28347
  24015286.453     -973551.045 5   -471835.02021
 91  4 25 20  5 30.0000000  0  5G18G 2G11G19G16
  20896328.2584    1377620.37047   1059263.38963
  22960740.7734   -3013551.61346  -2274098.61061
  23361032.1954   -1864959.10646  -1404121.93361
  20763262.5234     -72389.81647    -54872.50262
  24010151.2584   -1000530.73645   -492858.12261
 91  4 25 20  5 45.0000000  0  5G18G 2G11G19G16
  20901135.445     1402875.205 7   1078942.45623
  22952369.609    -3057542.740 6  -2308377.24621
  23356367.570    -1889460.926 6  -1423214.21421
  20763418.4454     -71582.84047    -54243.68562
  24005069.9924   -1027231.38445   -513663.72861
 91  4 25 20  6  0.0000000  0  5G18G 2G11G19G16
  20905996.8364    1428420.87047   1098848.13363
  22944047.4924   -3101289.22246  -2342465.24361
  23351764.344    -1913659.149 6  -1442069.95421
  20763612.0864     -70548.47747    -53437.68262
  24000048.8834   -1053626.52445   -534231.28761
 91  4 25 20  6 15.0000000  0  5G18G 2G11G19G16
  20910918.414     1454279.585 7   1118997.75523
  22935772.516    -3144768.597 6  -2376345.11221
  23347223.930    -1937531.391 6  -1460671.66121
  20763857.2034     -69264.47946    -52437.15762
  23995088.406    -1079693.951 5   -554543.50321
 91  4 25 20  6 30.0000000  0  5G18G 2G11G19G16
  20915900.164     1480469.410 7   1139405.38023
  22927551.875    -3187962.544 6  -2410002.55721
  23342746.852    -1961059.188 6  -1479004.98621
  20764151.7734     -67712.44247    -51227.77362
  23990192.633    -1105415.012 5   -574585.81421
 91  4 25 20  6 45.0000000  0  5G18G 2G11G19G16
  20920952.063     1507002.942 7   1160080.83623
  22919384.3984   -3230858.06846  -2443427.46961
  23338337.6334   -1984229.22946  -1497059.52661
  20764502.1884     -65879.40947    -49799.42662
  23985363.023    -1130776.629 5   -594348.02321
 91  4 25 20  7  0.0000000  0  5G18G 2G11G19G16
  20926064.5554    1533886.67947   1181029.16562
  22911285.727    -3273448.821 6  -2476614.91021
  23333994.5704   -2007034.85146  -1514830.12961
  20764905.0784     -63759.45947    -48147.51762
  23980608.727    -1155772.501 5   -613825.25321
 91  4 25 20  7 15.0000000  0  5G18G 2G11G19G16
  20931248.727     1561125.338 7   1202254.07523
  22903236.836    -3315729.467 6  -2509560.69421
  23329726.2274   -2029470.72846  -1532312.59561
  20765365.664      -61347.340 7    -46267.93622
  23975924.7194   -1180397.35145   -633013.38961
 91  4 25 20  7 30.0000000  0  5G18G 2G11G19G16
  20936499.4924    1588714.11647   1223751.79463
  22895251.9774   -3357704.47446  -2542268.32061
  23325525.695    -2051541.223 6  -1549510.35621
  20765878.5554     -58647.68947    -44164.31062
  23971305.672    -1204655.698 5   -651915.93621
 91  4 25 20  7 45.0000000  0  5G18G 2G11G19G16
  20941814.391     1616639.429 7   1245511.75123
  22887317.3364   -3399387.40846  -2574748.35461
  23321392.8754   -2073259.70446  -1566433.82561
  20766445.4694     -55674.24147    -41847.33262
  23966756.8834   -1228560.90945   -670543.30761
 91  4 25 20  8  0.0000000  0  5G18G 2G11G19G16
  20947188.7974    1644885.22747   1267521.42663
  22879439.617    -3440794.154 6  -2607013.18321
  23317323.7424   -2094641.92546  -1583095.25861
  20767057.9454     -52443.02447    -39329.49662
  23962271.7194   -1252129.27845   -688908.20661
 91  4 25 20  8 15.0000000  0  5G18G 2G11G19G16
  20952619.961     1673427.915 7   1289762.46323
  22871607.148    -3481948.133 6  -2639081.04121
  23313315.7894   -2115711.02246  -1599512.71661
  20767720.4924     -48977.38547    -36628.99462
  23957848.594    -1275383.715 5   -707028.47321
 91  4 25 20  8 30.0000000  0  5G18G 2G11G19G16
  20958103.8524    1702242.63547   1312215.45463
  22863819.805    -3522873.741 6  -2670970.95321
  23309360.516    -2136491.471 6  -1615705.25221
  20768419.9304     -45302.16347    -33765.17962
  23953476.320    -1298349.132 5   -724923.55221
 91  4 25 20  8 45.0000000  0  5G18G 2G11G19G16
  20963635.4774    1731299.59847   1334857.21263
  22856070.680    -3563600.553 6  -2702705.96621
  23305453.516    -2157012.647 6  -1631695.76521
  20769153.3444     -41446.98547    -30761.14262
  23949155.727    -1321054.610 5   -742616.04721
 91  4 25 20  9  0.0000000  0  5G18G 2G11G19G16
  20969199.891     1760561.404 7   1357658.58923
  22848349.5314   -3604165.81646  -2734315.08761
  23301592.6484   -2177311.60846  -1647513.10961
  20769911.8054     -37449.09747    -27645.90362
  23944878.8754   -1343537.07845   -760134.79061
 91  4 25 20  9 15.0000000  0  5G18G 2G11G19G16
  20974806.9614    1790006.34947   1380602.67563
  22840657.875    -3644591.215 6  -2765815.22621
  23297769.3524   -2197409.73546  -1663173.95461
  20770696.4924     -33330.17347    -24436.35062
  23940637.625    -1365818.277 5   -777496.68021
 91  4 25 20  9 30.0000000  0  5G18G 2G11G19G16
  20980437.2424    1819608.86947   1403669.53863
  22832988.547    -3684901.769 6  -2797225.88621
  23293976.164    -2217332.042 6  -1678697.81621
  20771496.1724     -29115.53647    -21152.21162
  23936430.383    -1387923.557 5   -794721.52621
 91  4 25 20  9 45.0000000  0  5G18G 2G11G19G16
  20986097.6024    1849348.40547   1426843.17063
  22825331.500    -3725117.867 6  -2828562.93421
  23290214.9534   -2237098.76846  -1694100.42261
  20772313.7194     -24825.80347    -17809.55962
  23932253.266    -1409873.363 5   -811825.20421
 91  4 25 20 10  0.0000000  0  6G18G 2G11G19G16G 6
  20991777.3364    1879199.88147   1450104.02963
  22817694.438    -3765264.238 6  -2859845.66021
  23286479.5234   -2256734.48846  -1709400.95961
  20773139.7344     -20485.76647    -14427.70762
  23928104.008    -1431691.924 5   -828826.61521
  24364619.4774         -0.94054
 91  4 25 20 10 15.0000000  0  6G18G 2G11G19G16G 6
  20997475.8914    1909146.25747   1473438.82963
  22810062.234    -3805357.484 6  -2891086.97421
  23282763.1334   -2276255.80646  -1724612.33861
  20773975.5704     -16112.09947    -11019.65262
  23923971.9844   -1453396.28245   -845739.03261
  24358589.7584     -31666.30944
 91  4 25 20 10 30.0000000  0  6G18G 2G11G19G16G 6
  21003191.9384    1939181.66947   1496843.01863
  22802441.938    -3845403.432 6  -2922291.45021
  23279070.586    -2295668.197 6  -1739738.86021
  20774809.7664     -11710.80247     -7590.06062
  23919861.6024   -1474992.27345   -862567.02561
  24352567.992      -63330.430 4
 91  4 25 20 10 45.0000000  0  6G18G 2G11G19G16G 6
  21008920.3914    1969286.07047   1520300.96463
  22794827.273    -3885421.934 6  -2953474.52421
  23275394.422    -2314991.500 6  -1754795.95821
  20775650.7274      -7301.88247     -4154.53362
  23915770.6804   -1496499.58645   -879325.90061
  24346541.9694     -95013.48944
 91  4 25 20 11  0.0000000  0  6G18G 2G11G19G16G 6
  21014661.7114    1999454.07647   1543808.46763
  22787215.648    -3925418.162 6  -2984640.25321
  23271732.992    -2334230.854 6  -1769787.63521
  20776487.2034      -2890.69647      -717.24062
  23911691.398    -1517923.573 5   -896019.86021
  24340507.1804    -126720.88644        -0.23871
 91  4 25 20 11 15.0000000  0  6G18G 2G11G19G16G 6
  21020411.2584    2029678.45747   1567359.89963
  22779609.000    -3965399.305 6  -3015794.21921
  23268085.422    -2353393.056 6  -1784719.20021
  20777326.9694       1515.73246      2716.34862
  23907631.984    -1539271.078 5   -912654.22121
  24334463.9064    -158459.86843    -24731.69261
 91  4 25 20 11 30.0000000  0  6G18G 2G11G19G16G 6
  21026173.1254    2059955.90347   1590952.68163
  22772004.0394   -4005368.28646  -3046938.72261
  23264455.633    -2372480.920 6  -1799592.83821
  20778160.7424       5914.20147      6143.72462
  23903582.8364   -1560545.00945   -929231.25661
  24328417.570     -190233.450 3    -49490.16421
 91  4 25 20 11 45.0000000  0  6G18G 2G11G19G16G 6
  21031943.7734    2090279.97047   1614581.79763
  22764398.164    -4045331.254 6  -3078078.52321
  23260835.406    -2391500.421 6  -1814413.20821
  20778997.2274      10298.35646      9559.95762
  23899547.852    -1581751.486 5   -945755.73621
  24322368.023     -222048.070 3    -74280.59021
 91  4 25 20 12  0.0000000  0  6G18G 2G11G19G16G 6
  21037726.7034    2120651.56747   1638247.94963
  22756794.313    -4085286.888 6  -3109212.62121
  23257229.820    -2410450.268 6  -1829179.31421
  20779830.0784      14669.40647     12965.97362
  23895524.1334   -1602889.08445   -962226.55561
  24316302.5944    -253902.61843    -99102.10261
 91  4 25 20 12 15.0000000  0  6G18G 2G11G19G16G 6
  21043512.9774    2151066.24647   1661947.66263
  22749192.1564   -4125239.53546  -3140344.39561
  23253634.688    -2429334.591 6  -1843894.35721
  20780658.8054      19022.86047     16358.27662
  23891510.766    -1623962.354 5   -978647.22221
  24310234.0004    -285801.67443   -123958.35561
 91  4 25 20 12 30.0000000  0  6G18G 2G11G19G16G 6
  21049307.2504    2181523.28547   1685680.38663
  22741589.594    -4165189.852 6  -3171474.34321
  23250054.016    -2448153.607 6  -1858558.50621
  20781480.2114      23357.88347     19736.21862
  23887516.5314   -1644971.93445   -995018.26761
  24304149.4844    -317745.96143   -148849.78161
 91  4 25 20 12 45.0000000  0  6G18G 2G11G19G16G 6
  21055112.7664    2212028.81247   1709450.89963
  22733990.9614   -4205131.09246  -3202597.22961
  23246485.969    -2466900.806 6  -1873166.68521
  20782307.5554      27680.96847     23104.86162
  23883532.695    -1665911.103 5  -1011334.45721
  24298065.555     -349729.231 3   -173771.65321
 91  4 25 20 13  0.0000000  0  6G18G 2G11G19G16G 6
  21060928.4224    2242582.56947   1733258.98463
  22726390.461    -4245063.576 6  -3233713.29021
  23242930.641    -2485576.261 6  -1887718.97621
  20783126.2194      31991.75847     26463.91762
  23879561.4924   -1686780.09345  -1027595.96961
  24291972.383     -381751.676 4   -198724.01021
 91  4 25 20 13 15.0000000  0  6G18G 2G11G19G16G 6
  21066751.1024    2273187.40847   1757106.87463
  22718790.1804   -4284984.18546  -3264820.10361
  23239392.969    -2504176.777 6  -1902212.86821
  20783945.0634      36293.39547     29815.84562
  23875602.078    -1707575.841 5  -1043800.42321
  24285872.3984    -413810.43944   -223704.69361
 91  4 25 20 13 30.0000000  0  6G18G 2G11G19G16G 6
  21072584.1174    2303842.12447   1780993.64063
  22711197.7114   -4324893.80246  -3295918.35261
  23235869.945    -2522703.019 6  -1916648.88521
  20784761.4534      40584.91747     33159.89262
  23871659.8674   -1728299.13445  -1059948.38261
  24279764.398     -445906.631 4   -248714.50121
 91  4 25 20 13 45.0000000  0  6G18G 2G11G19G16G 6
  21078428.7734    2334549.33747   1804921.29763
  22703605.891    -4364789.479 6  -3327005.73021
  23232354.2274   -2541152.03946  -1931024.71961
  20785577.2814      44869.03847     36498.17062
  23867732.445    -1748947.077 5  -1076037.68921
  24273649.586     -478037.515 4   -273751.37521
 91  4 25 20 14  0.0000000  0  6G18G 2G11G19G16G 6
  21084282.7734    2365313.85647   1828893.61263
  22696016.7274   -4404666.10946  -3358078.27561
  23228862.7974   -2559518.51346  -1945336.24961
  20786393.5084      49150.74947     39834.57262
  23863814.8204   -1769514.44545  -1092064.16661
  24267528.3204    -510198.07745   -298811.39261
 91  4 25 20 14 15.0000000  0  6G18G 2G11G19G16G 6
  21090147.6884    2396134.73847   1852909.85463
  22688433.3364   -4444524.65746  -3389136.73961
  23225384.266    -2577803.092 6  -1959583.95021
  20787204.2034      53429.03147     43168.30462
  23859920.047    -1790002.272 5  -1108028.66521
  24261403.1254    -542389.38545   -323895.35961
 91  4 25 20 14 30.0000000  0  6G18G 2G11G19G16G 6
  21096026.4064    2427020.03547   1876976.28463
  22680853.5394   -4484356.58046  -3420174.44861
  23221919.313    -2595997.261 6  -1973761.20421
  20788021.156       57712.343 7     46505.95922
  23856034.891    -1810401.905 5  -1123924.46721
  24255273.070     -574603.301 5   -348996.92521
 91  4 25 20 14 45.0000000  0  6G18G 2G11G19G16G 6
  21101911.891     2457963.760 7   1901088.23323
  22673280.0084   -4524167.59646  -3451195.86461
  23218473.938    -2614106.706 6  -1987872.45221
  20788835.9224      61994.81647     49842.95262
  23852171.469    -1830718.874 5  -1139755.82521
  24249137.5474    -606845.51645   -374120.55761
 91  4 25 20 15  0.0000000  0  6G18G 2G11G19G16G 6
  21107812.8594    2488972.51347   1925250.85963
  22665704.1254   -4563950.87646  -3482195.67261
  23215043.203    -2632124.512 6  -2001912.27421
  20789651.9534      66283.11547     53184.48562
  23848319.570    -1850946.563 5  -1155517.64221
  24243000.508     -639109.678 5   -399261.27321
 91  4 25 20 15 15.0000000  0  6G18G 2G11G19G16G 6
  21113727.3594    2520050.49847   1949467.44063
  22658141.4304   -4603702.17646  -3513170.56861
  23211640.227    -2650046.053 6  -2015877.09221
  20790471.1174      70581.47347     56533.85762
  23844487.453    -1871080.839 5  -1171206.64221
  24236855.898     -671391.378 5   -424415.66321
 91  4 25 20 15 30.0000000  0  6G18G 2G11G19G16G 6
  21119654.4144    2551191.17547   1973732.86763
  22650578.3984   -4643427.91546  -3544125.53461
  23208240.992    -2667877.570 6  -2029771.76921
  20791288.1884      74883.36647     59885.98462
  23840675.156    -1891128.106 5  -1186827.87521
  24230707.570     -703697.349 5   -449588.97421
 91  4 25 20 15 45.0000000  0  6G18G 2G11G19G16G 6
  21125591.5394    2582397.56247   1998049.49862
  22643029.2424   -4683124.39146  -3575057.71161
  23204870.203    -2685615.446 6  -2043593.47421
  20792107.6724      79192.27647     63243.58262
  23836876.578    -1911084.728 5  -1202378.46521
  24224553.5784    -736024.10845   -474778.46861
 91  4 25 20 16  0.0000000  0  6G18G 2G11G19G16G 6
  21131541.5634    2613669.49147   2022417.19963
  22635476.8594   -4722791.66646  -3605967.12561
  23201508.6804   -2703259.58146  -2057342.14361
  20792931.6414      83508.14747     66606.60162
  23833098.3054   -1930950.55745  -1217858.30161
  24218398.2504    -768371.87545   -499984.34961
 91  4 25 20 16 15.0000000  0  6G18G 2G11G19G16G 6
  21137507.7194    2645012.43047   2046840.23662
  22627938.4844   -4762423.84746  -3636849.20461
  23198169.7974   -2720804.05046  -2071013.12661
  20793753.3834      87836.47347     69979.32262
  23829338.320    -1950719.812 5  -1233262.88921
  24212239.180     -800735.119 5   -525202.23921
 91  4 25 20 16 30.0000000  0  6G18G 2G11G19G16G 6
  21143484.7894    2676425.09647   2071317.59962
  22620404.234    -4802022.403 6  -3667705.07521
  23194846.5394   -2738249.91146  -2084607.29961
  20794578.2734      92176.09347     73360.85162
  23825591.7584   -1970393.60245  -1248593.10761
  24206081.602     -833115.110 5   -550433.23621
 91  4 25 20 16 45.0000000  0  6G18G 2G11G19G16G 6
  21149475.4224    2707907.92047   2095849.63163
  22612871.539    -4841586.657 6  -3698534.22121
  23191543.9924   -2755596.69446  -2098124.25961
  20795406.8674      96527.41847     76751.49162
  23821864.9534   -1989971.85945  -1263848.89561
  24199912.250     -865511.615 5   -575677.09921
 91  4 25 20 17  0.0000000  0  6G18G 2G11G19G16G 6
  21155480.5394    2739464.39847   2120439.05463
  22605350.461    -4881112.574 6  -3729333.50021
  23188268.281    -2772840.212 6  -2111560.74821
  20796235.7114     100894.28447     80154.24662
  23818157.8914   -2009450.28145  -1279026.81961
  24193745.672     -897920.844 4   -600930.81121
 91  4 25 20 17 15.0000000  0  6G18G 2G11G19G16G 6
  21161500.7974    2771095.03147   2145086.26862
  22597837.148    -4920599.505 6  -3760102.39921
  23185008.0004   -2789979.55346  -2124916.06661
  20797074.2734     105277.32447     83569.60362
  23814472.4534   -2028828.29945  -1294126.55561
  24187578.227     -930342.189 5   -626194.03321
 91  4 25 20 17 30.0000000  0  6G18G 2G11G19G16G 6
  21167532.9224    2802801.24447   2169792.36763
  22590330.180    -4960045.675 6  -3790839.53421
  23181761.703    -2807012.824 6  -2138188.72521
  20797909.0084     109678.16247     86998.82962
  23810802.898    -2048103.943 5  -1309146.51221
  24181405.7974    -962774.04244   -651465.41761
 91  4 25 20 17 45.0000000  0  6G18G 2G11G19G16G 6
  21173580.7424    2834582.07047   2194556.60962
  22582830.8284   -4999451.78346  -3821545.46161
  23178544.313    -2823940.609 6  -2151379.19121
  20798749.5234     114096.12547     90441.40062
  23807154.0784   -2067278.04045  -1324087.33661
  24175230.961     -995217.339 4   -676745.74021
 91  4 25 20 18  0.0000000  0  6G18G 2G11G19G16G 6
  21179644.7504    2866439.80747   2219380.78162
  22575342.078    -5038815.300 6  -3852218.19721
  23175342.531    -2840760.188 6  -2164485.33021
  20799593.9844     118533.53547     93899.12662
  23803522.4534   -2086347.96245  -1338946.99961
  24169056.375    -1027669.619 4   -702033.01321
 91  4 25 20 18 15.0000000  0  6G18G 2G11G19G16G 6
  21185723.508     2898377.826 7   2244267.51022
  22567859.727    -5078132.842 6  -3882855.11221
  23172161.250    -2857468.076 6  -2177504.45521
  20800443.3054     122993.59847     97374.49962
  23799916.0864   -2105310.33945  -1353722.88661
  24162876.2344   -1060127.67243   -727324.81061
 91  4 25 20 18 30.0000000  0  6G18G 2G11G19G16G 6
  21191815.773     2930392.929 7   2269214.30022
  22560386.758    -5117407.217 6  -3913458.38521
  23169006.805    -2874066.970 6  -2190438.63821
  20801294.9064     127473.46147    100865.30562
  23796326.3594   -2124167.81445  -1368417.01761
  24156698.492    -1092594.572 3   -752623.50421
 91  4 25 20 18 45.0000000  0  6G18G 2G11G19G16G 6
  21197918.586     2962482.057 7   2294218.77122
  22552919.0704   -5156641.10146  -3944030.11961
  23165867.656    -2890559.328 6  -2203289.80621
  20802153.0864     131970.44147    104369.44662
  23792758.703    -2142923.144 5  -1383031.56421
  24150520.6724   -1125073.08743   -777931.23861
 91  4 25 20 19  0.0000000  0  6G18G 2G11G19G16G 6
  21204043.6094    2994652.29647   2319286.45962
  22545462.242    -5195827.184 6  -3974564.60021
  23162748.219    -2906937.979 6  -2216052.37021
  20803012.0554     136491.54847    107892.39162
  23789211.4614   -2161569.39545  -1397561.08961
  24144336.656    -1157556.161 3   -803242.55321
 91  4 25 20 19 15.0000000  0  6G18G 2G11G19G16G 6
  21210179.516     3026906.326 7   2344419.42122
  22538015.930    -5234962.415 6  -4005059.45221
  23159654.094    -2923199.657 6  -2228723.78921
  20803878.1564     141039.93747    111436.58762
  23785684.5084   -2180103.05445  -1412002.90361
  24138156.8914   -1190040.91444   -828555.15761
 91  4 25 20 19 30.0000000  0  6G18G 2G11G19G16G 6
  21216332.789     3059242.157 7   2369616.12423
  22530577.2504   -5274048.58046  -4035516.08361
  23156585.797    -2939346.035 6  -2241305.36521
  20804748.5004     145613.54947    115000.44562
  23782179.406    -2198526.301 5  -1426358.66721
  24131969.523    -1222529.376 3   -853870.61521
 91  4 25 20 19 45.0000000  0  6G18G 2G11G19G16G 6
  21222502.5474    3091661.19647   2394877.67362
  22523149.7274   -5313084.21846  -4065933.34161
  23153532.398    -2955375.497 6  -2253795.84021
  20805621.0704     150213.95547    118585.17362
  23778697.8524   -2216837.48245  -1440627.10561
  24125786.2974   -1255020.20243   -879187.96161
 91  4 25 20 20  0.0000000  0  6G18G 2G11G19G16G 6
  21228686.656     3124160.837 7   2420202.02222
  22515730.5704   -5352071.81746  -4096313.16561
  23150506.031    -2971290.352 6  -2266197.00621
  20806502.5864     154838.43447    122188.66962
  23775233.492    -2235038.947 5  -1454810.03821
  24119607.734    -1287515.859 4   -904509.06421
 91  4 25 20 20 15.0000000  0  6G18G 2G11G19G16G 6
  21234887.336     3156743.872 7   2445591.34922
  22508321.1644   -5391008.17046  -4126653.05561
  23147496.359    -2987087.404 6  -2278506.37321
  20807387.9774     159490.10547    125813.35462
  23771788.8364   -2253127.74745  -1468905.21361
  24113424.8594   -1320013.48644   -929831.73661
 91  4 25 20 20 30.0000000  0  6G18G 2G11G19G16G 6
  21241102.602     3189409.318 7   2471044.90022
  22500921.8054   -5429893.86246  -4156953.47461
  23144516.656    -3002767.085 6  -2290724.29621
  20808277.4224     164168.29447    129458.69162
  23768367.4694   -2271104.36745  -1482912.95761
  24107240.4064   -1352513.81544   -955156.46461
 91  4 25 20 20 45.0000000  0  6G18G 2G11G19G16G 6
  21247336.6174    3222157.98647   2496563.30162
  22493531.1414   -5468727.86546  -4187213.61261
  23141551.656    -3018328.345 6  -2302849.93121
  20809174.1414     168873.88247    133125.38562
  23764967.6414   -2288967.63445  -1496832.39961
  24101051.9304   -1385016.03544   -980482.66961
 91  4 25 20 21  0.0000000  0  6G18G 2G11G19G16G 6
  21253582.336     3254986.948 7   2522144.25922
  22486149.2114   -5507512.78546  -4217435.51361
  23138612.492    -3033773.615 6  -2314885.19521
  20810077.3984     173604.21647    136811.35662
  23761589.9304   -2306720.36845  -1510665.69561
  24094863.703    -1417522.852 3  -1005812.50621
 91  4 25 20 21 15.0000000  0  6G18G 2G11G19G16G 6
  21259846.305     3287898.923 7   2547789.90522
  22478780.5084   -5546246.12746  -4247617.21061
  23135700.078    -3049100.156 6  -2326827.93521
  20810980.0084     178361.85247    140518.60362
  23758234.9924   -2324360.02845  -1524410.88061
  24088679.6254   -1450031.88244  -1031144.03861
 91  4 25 20 21 30.0000000  0  6G18G 2G11G19G16G 6
  21266123.2114    3320895.23547   2573501.27362
  22471419.672    -5584925.835 6  -4277757.13021
  23132801.227    -3064305.847 6  -2338676.50421
  20811890.9454     183148.64447    144248.56762
  23754896.9774   -2341884.64245  -1538066.41361
  24082493.5554   -1482541.16444  -1056475.77561
 91  4 25 20 21 45.0000000  0  6G18G 2G11G19G16G 6
  21272420.648     3353975.456 7   2599278.02322
  22464068.0704   -5623552.08946  -4307855.39061
  23129933.5944   -3079390.83146  -2350431.03161
  20812807.5784     187964.18547    148000.93862
  23751585.367    -2359294.463 5  -1551632.49321
  24076309.156    -1515051.258 4  -1081808.13821
 91  4 25 20 22  0.0000000  0  6G18G 2G11G19G16G 6
  21278731.500     3387141.548 7   2625121.68322
  22456729.008    -5662122.821 6  -4337910.39221
  23127088.023    -3094352.844 6  -2362089.72321
  20813728.8984     192810.64547    151777.39962
  23748294.7734   -2376587.01345  -1565107.18261
  24070120.859    -1547560.125 4  -1107139.53221
 91  4 25 20 22 15.0000000  0  6G18G 2G11G19G16G 6
  21285056.234     3420390.804 7   2651030.14422
  22449398.3444   -5700640.56546  -4367924.10161
  23124262.0084   -3109194.32246  -2373654.49661
  20814657.6024     197685.28347    155575.81862
  23745026.523    -2393765.313 5  -1578492.86521
  24063934.055    -1580070.643 4  -1132472.24221
 91  4 25 20 22 30.0000000  0  6G18G 2G11G19G16G 6
  21291399.813     3453721.387 7   2677001.98322
  22442077.352    -5739106.466 6  -4397897.41621
  23121460.398    -3123916.470 6  -2385126.27721
  20815589.0394     202586.78247    159395.17062
  23741779.4614   -2410830.64845  -1591790.52761
  24057749.5004   -1612583.98745  -1157807.13561
 91  4 25 20 22 45.0000000  0  6G18G 2G11G19G16G 6
  21297760.828     3487133.473 7   2703037.32322
  22434766.5084   -5777520.44046  -4427830.27161
  23118682.9224   -3138518.96646  -2396504.84461
  20816529.2504     207515.32647    163235.58862
  23738553.6174   -2427782.77345  -1604999.97661
  24051561.336    -1645100.275 4  -1183144.32921
 91  4 25 20 23  0.0000000  0  6G18G 2G11G19G16G 6
  21304130.719     3520624.174 7   2729133.92522
  22427470.398    -5815884.837 6  -4457724.50121
  23115928.344    -3153004.291 6  -2407792.08921
  20817470.6884     212468.30147    167095.04962
  23735346.555    -2444623.815 5  -1618122.86721
  24045369.8284   -1677622.11445  -1208485.86161
 91  4 25 20 23 15.0000000  0  6G18G 2G11G19G16G 6
  21310520.359     3554192.913 7   2755291.33722
  22420177.914    -5854199.857 6  -4487580.24921
  23113189.336    -3167372.448 6  -2418988.04521
  20818416.2424     217445.41147    170973.31462
  23732164.8834   -2461354.24345  -1631159.58961
  24039178.4774   -1710149.81845  -1233831.94461
 91  4 25 20 23 30.0000000  0  6G18G 2G11G19G16G 6
  21316922.039     3587841.938 7   2781511.31122
  22412894.547    -5892463.494 6  -4517395.95921
  23110482.4614   -3181621.09646  -2430090.87961
  20819368.9144     222448.85247    174872.10162
  23729000.1254   -2477971.96645  -1644108.42461
  24032993.4774   -1742681.35245  -1259180.97061
 91  4 25 20 23 45.0000000  0  6G18G 2G11G19G16G 6
  21323342.055     3621571.615 7   2807794.12522
  22405623.383    -5930675.179 6  -4547171.19021
  23107789.500    -3195749.540 6  -2441100.03621
  20820327.2424     227479.16347    178791.82262
  23725861.734    -2494476.171 5  -1656968.82621
  24026801.8754   -1775216.25945  -1284532.71161
 91  4 25 20 24  0.0000000  0  6G18G 2G11G19G16G 6
  21329774.195     3655376.185 7   2834135.29822
  22398361.313    -5968840.254 6  -4576910.10021
  23105125.117    -3209763.119 6  -2452019.69521
  20821287.1484     232530.84747    182728.19962
  23722740.914    -2510872.445 5  -1669745.12721
  24020603.7584   -1807760.20144  -1309891.44961
 91  4 25 20 24 15.0000000  0  6G18G 2G11G19G16G 6
  21336221.602     3689258.264 7   2860536.86222
  22391107.742    -6006955.783 6  -4606610.40621
  23102477.266    -3223658.912 6  -2462847.56921
  20822253.7734     237606.71447    186683.41862
  23719642.4534   -2527158.05845  -1682435.20661
  24014412.164    -1840310.432 4  -1335255.07521
 91  4 25 20 24 30.0000000  0  6G18G 2G11G19G16G 6
  21342687.125     3723226.833 7   2887005.83322
  22383863.2974   -6045012.56646  -4636264.92861
  23099856.938    -3237427.630 6  -2473576.41921
  20823225.1414     242715.64747    190664.40162
  23716564.4694   -2543323.62545  -1695031.78461
  24008220.570    -1872857.978 5  -1360616.65221
 91  4 25 20 24 45.0000000  0  6G18G 2G11G19G16G 6
  21349166.719     3757272.581 7   2913534.93822
  22376636.930    -6083019.327 6  -4665880.48221
  23097265.195    -3251078.070 6  -2484213.11721
  20824202.5554     247848.71747    194664.19962
  23713511.391    -2559378.100 5  -1707541.76721
  24002024.3594   -1905411.78745  -1385983.08761
 91  4 25 20 25  0.0000000  0  6G18G 2G11G19G16G 6
  21355660.344     3791397.855 7   2940126.01022
  22369411.000    -6120973.804 6  -4695455.28821
  23094685.383    -3264607.453 6  -2494755.47921
  20825184.1644     253008.62447    198684.90262
  23710478.1724   -2575319.05945  -1719963.27961
  23995828.6954   -1937969.35644  -1411352.43561
 91  4 25 20 25 15.0000000  0  6G18G 2G11G19G16G 6
  21362165.813     3825604.237 7   2966780.28122
  22362198.414    -6158874.059 6  -4724987.84821
  23092136.5554   -3278014.07246  -2505202.19561
  20826172.6334     258197.08947    202727.85962
  23707464.4454   -2591144.62945  -1732294.91761
  23989632.5864   -1970529.18844  -1436723.53561
 91  4 25 20 25 30.0000000  0  6G18G 2G11G19G16G 6
  21368691.828     3859892.073 7   2993498.02922
  22354997.195    -6196719.728 6  -4754477.86821
  23089606.344    -3291297.312 6  -2515552.74921
  20827164.7114     263414.30847    206793.22062
  23704476.289    -2606854.559 5  -1744536.40321
  23983432.0554   -2003091.02544  -1462096.22661
 91  4 25 20 25 45.0000000  0  6G18G 2G11G19G16G 6
  21375232.133     3894257.804 7   3020276.47122
  22347805.609    -6234513.823 6  -4783927.70421
  23087107.258    -3304460.288 6  -2525809.59921
  20828163.3054     268657.11647    210878.52862
  23701507.8834   -2622451.74145  -1756690.06561
  23977240.391    -2035658.176 5  -1487473.03121
 91  4 25 20 26  0.0000000  0  6G18G 2G11G19G16G 6
  21381786.828     3928701.909 7   3047115.97622
  22340622.508    -6272255.597 6  -4813336.77221
  23084619.3674   -3317502.00046  -2535971.96361
  20829164.3284     273926.09547    214984.21862
  23698562.9304   -2637935.54345  -1768755.36561
  23971042.2274   -2068230.04544  -1512853.54061
 91  4 25 20 26 15.0000000  0  6G18G 2G11G19G16G 6
  21388356.727     3963231.098 7   3074021.79222
  22333451.813    -6309938.221 6  -4842699.74421
  23082167.0704   -3330415.42946  -2546034.38261
  20830174.1254     279228.11047    219115.65662
  23695638.414    -2653299.204 5  -1780727.03721
  23964840.656    -2100799.727 4  -1538232.32621
 91  4 25 20 26 30.0000000  0  6G18G 2G11G19G16G 6
  21394944.555     3997839.814 7   3100989.57922
  22326293.023    -6347566.714 6  -4872020.54421
  23079730.531    -3343205.731 6  -2556000.82221
  20831189.7664     284557.92647    223268.76162
  23692734.047    -2668547.769 5  -1792609.04021
  23958644.4774   -2133372.57244  -1563613.56761
 91  4 25 20 26 45.0000000  0  6G18G 2G11G19G16G 6
  21401546.195     4032524.271 7   3128016.37422
  22319141.172    -6385144.988 6  -4901302.20521
  23077322.164    -3355876.545 6  -2565874.17421
  20832208.1414     289912.00147    227440.76362
  23689853.531    -2683684.928 5  -1804404.23021
  23952443.8914   -2165952.42744  -1589000.29661
 91  4 25 20 27  0.0000000  0  6G18G 2G11G19G16G 6
  21408159.070     4067288.661 7   3155105.46322
  22312000.219    -6422668.383 6  -4930541.10722
  23074929.313    -3368423.198 6  -2575650.76421
  20833230.9924     295294.65547    231635.03462
  23686996.9844   -2698706.01145  -1816108.95561
  23946242.8284   -2198534.96544  -1614389.10961
 91  4 25 20 27 15.0000000  0  6G18G 2G11G19G16G 6
  21414788.625     4102126.789 7   3182252.01722
  22304869.438    -6460142.779 6  -4959741.82421
  23072567.2274   -3380851.41346  -2585335.07561
  20834261.5164     300699.87547    235846.89062
  23684160.625    -2713617.400 5  -1827728.24821
  23940043.383    -2231126.106 5  -1639784.63021
 91  4 25 20 27 30.0000000  0  6G18G 2G11G19G16G 6
  21421435.781     4137044.427 7   3209460.51622
  22297747.969    -6497562.135 6  -4988899.65921
  23070227.680    -3393155.261 6  -2594922.48821
  20835294.8984     306133.67847    240081.01662
  23681342.6484   -2728412.84745  -1839257.16961
  23933840.234    -2263720.108 5  -1665182.36921
 91  4 25 20 27 45.0000000  0  6G18G 2G11G19G16G 6
  21428093.219     4172042.553 7   3236731.73122
  22290637.844    -6534925.340 6  -5018013.73921
  23067908.086    -3405333.434 6  -2604411.94721
  20836332.8364     311597.22147    244338.32162
  23678550.9614   -2743091.36845  -1850694.98661
  23927635.3674   -2296316.00545  -1690581.60661
 91  4 25 20 28  0.0000000  0  6G18G 2G11G19G16G 6
  21434769.2034    4207122.00147   3264066.32362
  22283538.742    -6572231.358 6  -5047083.25421
  23065616.6334   -3417384.80346  -2613802.61961
  20837379.6484     317091.48947    248619.56162
  23675780.4384   -2757651.80845  -1862040.80461
  23921428.7974   -2328912.73845  -1715981.47061
 91  4 25 20 28 15.0000000  0  6G18G 2G11G19G16G 6
  21441458.930     4242279.232 7   3291461.52022
  22276448.133    -6609483.179 6  -5076110.53821
  23063341.180    -3429312.280 6  -2623096.73821
  20838432.1334     322613.36247    252922.31362
  23673030.969    -2772097.215 5  -1873296.96821
  23915229.078    -2361513.555 5  -1741384.52921
 91  4 25 20 28 30.0000000  0  6G18G 2G11G19G16G 6
  21448166.844     4277517.556 7   3318919.90322
  22269371.922    -6646677.303 6  -5105092.87022
  23061098.578    -3441112.223 6  -2632291.49021
  20839488.9534     328166.16747    257249.16762
  23670304.641    -2786424.218 5  -1884460.85621
  23909023.656    -2394115.098 5  -1766788.16221
 91  4 25 20 28 45.0000000  0  6G18G 2G11G19G16G 6
  21454885.109     4312832.254 7   3346437.79522
  22262304.414    -6683818.525 6  -5134033.97721
  23058878.703    -3452789.404 6  -2641390.58221
  20840550.0784     333745.21647    261596.47362
  23667600.781    -2800637.394 5  -1895536.07121
  23902816.750    -2426722.269 5  -1792196.20221
 91  4 25 20 29  0.0000000  0  6G18G 2G11G19G16G 6
  21461620.758     4348227.225 7   3374018.24622
  22255246.266    -6720902.334 6  -5162930.34921
  23056676.852    -3464339.164 6  -2650390.37421
  20841614.7584     339355.05247    265967.76862
  23664916.141    -2814732.621 5  -1906519.38521
  23896613.4924   -2459330.58045  -1817605.10561
 91  4 25 20 29 15.0000000  0  6G18G 2G11G19G16G 6
  21468372.430     4383702.294 7   3401661.11222
  22248203.055    -6757928.722 6  -5191781.96821
  23054504.5554   -3475761.47446  -2659290.86661
  20842691.4774     344995.24546    270362.71762
  23662254.969    -2828709.697 5  -1917410.62021
  23890410.9924   -2491940.45845  -1843015.22661
 91  4 25 20 29 30.0000000  0  6G18G 2G11G19G16G 6
  21475139.172     4419257.416 7   3429366.34922
  22241164.539    -6794897.675 6  -5220588.84221
  23052355.7504   -3487056.15746  -2668091.91461
  20843768.3134     350665.84847    274781.36362
  23659623.008    -2842568.713 5  -1928209.86921
  23884202.5864   -2524551.89845  -1868426.57261
 91  4 25 20 29 45.0000000  0  6G18G 2G11G19G16G 6
  21481917.672     4454890.422 7   3457132.27722
  22234141.445    -6831810.833 6  -5249352.24821
  23050234.1724   -3498224.89646  -2676794.82161
  20844852.6644     356365.21846    279222.42762
  23657004.6724   -2856311.49145  -1938918.55161
  23877997.008    -2557166.629 5  -1893840.46321
 91  4 25 20 30  0.0000000  0  6G18G 2G11G19G16G 6
  21488713.719     4490602.800 7   3484960.05322
  22227127.305    -6868666.466 6  -5278070.81521
  23048128.352    -3509265.874 6  -2685398.16321
  20845942.7814     362094.98447    283687.17162
  23654410.5234   -2869936.14845  -1949535.15961
  23871788.508    -2589783.023 5  -1919255.65921
 91  4 25 20 30 15.0000000  0  6G18G 2G11G19G16G 6
  21495525.945     4526400.175 7   3512854.06322
  22220128.047    -6905458.850 6  -5306740.10821
  23046052.773    -3520173.324 6  -2693897.47021
  20847041.5864     367860.76246    288179.98462
  23651842.3754   -2883437.28545  -1960055.52161
  23865582.1484   -2622395.60945  -1944667.88761
 91  4 25 20 30 30.0000000  0  6G18G 2G11G19G16G 6
  21502354.609     4562281.345 7   3540813.36822
  22213136.234    -6942188.784 6  -5335360.73021
  23044004.8594   -3530947.88346  -2702293.21661
  20848141.8284     373661.76747    292700.23662
  23649298.133    -2896815.430 5  -1970480.05121
  23859377.930    -2655005.363 5  -1970077.92321
 91  4 25 20 30 45.0000000  0  6G18G 2G11G19G16G 6
  21509199.828     4598249.705 7   3568840.61222
  22206160.352    -6978852.323 6  -5363929.61921
  23041980.7504   -3541585.58046  -2710582.32461
  20849257.6174     379501.91747    297250.99862
  23646777.7114   -2910066.80245  -1980805.82961
  23853172.898    -2687608.509 5  -1995482.82321
 91  4 25 20 31  0.0000000  0  6G18G 2G11G19G16G 6
  21516057.820     4634301.558 7   3596932.91622
  22199196.8984   -7015453.39846  -5392449.84061
  23039979.398    -3552090.114 6  -2718767.65921
  20850372.2734     385377.53247    301829.39862
  23644277.563    -2923195.222 5  -1991035.74421
  23846968.969    -2720208.806 5  -2020885.48821
 91  4 25 20 31 15.0000000  0  6G18G 2G11G19G16G 6
  21522935.594     4670433.107 7   3625087.32222
  22192241.4144   -7051995.36446  -5420924.00361
  23038006.609    -3562464.956 6  -2726851.94221
  20851496.7664     391284.77846    306432.43962
  23641800.8834   -2936203.99245  -2001172.47161
  23840765.2194   -2752810.01845  -2046288.86261
 91  4 25 20 31 30.0000000  0  6G18G 2G11G19G16G 6
  21529826.438     4706653.448 7   3653310.91422
  22185299.164    -7088468.589 6  -5449344.59321
  23036061.461    -3572700.472 6  -2734827.65921
  20852627.2114     397233.27947    311067.63362
  23639348.477    -2949083.674 5  -2011208.60721
  23834563.102    -2785402.799 5  -2071685.65621
 91  4 25 20 31 45.0000000  0  6G18G 2G11G19G16G 6
  21536735.133     4742959.872 7   3681601.58322
  22178371.5784   -7124876.00346  -5477713.90861
  23034137.4844   -3582799.30846  -2742696.86361
  20853769.1484     403220.20446    315732.76962
  23636923.883    -2961837.430 5  -2021146.60221
  23828364.5004   -2817989.95545  -2097078.10661
 91  4 25 20 32  0.0000000  0  6G18G 2G11G19G16G 6
  21543660.539     4779347.433 7   3709955.47722
  22171455.0004   -7161222.34246  -5506035.63562
  23032241.7504   -3592766.18046  -2750463.25061
  20854913.4844     409240.74147    320424.08962
  23634522.5004   -2974469.97145  -2030990.14061
  23822158.3134   -2850576.44945  -2122470.00161
 91  4 25 20 32 15.0000000  0  6G18G 2G11G19G16G 6
  21550601.484     4815823.491 7   3738378.33122
  22164550.8754   -7197499.85346  -5534303.73061
  23030367.805    -3602593.429 6  -2758120.83521
  20856069.2504     415302.44747    325147.49362
  23632142.7584   -2986973.61745  -2040733.24761
  23815959.5314   -2883154.42945  -2147855.28961
 91  4 25 20 32 30.0000000  0  6G18G 2G11G19G16G 6
  21557556.969     4852383.933 7   3766866.94522
  22157662.336    -7233711.840 6  -5562520.76421
  23028525.867    -3612284.365 6  -2765672.19721
  20857228.9144     421401.84947    329900.26862
  23629782.492    -2999351.790 5  -2050378.60521
  23809760.0634   -2915727.82045  -2173237.02061
 91  4 25 20 32 45.0000000  0  6G18G 2G11G19G16G 6
  21564532.672     4889029.455 7   3795421.84222
  22150781.2584   -7269857.54646  -5590686.15661
  23026709.2584   -3621838.06046  -2773116.62461
  20858399.0944     427539.88847    334683.15262
  23627456.1174   -3011603.82945  -2059925.65261
  23803563.2894   -2948295.84945  -2198614.55761
 91  4 25 20 33  0.0000000  0  6G18G 2G11G19G16G 6
  21571520.914     4925760.885 7   3824043.68922
  22143916.5474   -7305936.06646  -5618799.19462
  23024913.586    -3631253.501 6  -2780453.32121
  20859569.5704     433717.37547    339496.77062
  23625148.398    -3023728.621 5  -2069373.54121
  23797370.203    -2980857.491 5  -2223987.10821
 91  4 25 20 33 15.0000000  0  6G18G 2G11G19G16G 6
  21578526.930     4962573.935 7   3852729.13422
  22137064.6024   -7341951.58546  -5646863.13862
  23023150.602    -3640534.693 6  -2787685.40421
  20860756.3204     439930.10346    344337.85562
  23622861.6254   -3035730.45245  -2078725.64461
  23791172.016    -3013417.071 5  -2249358.06021
 91  4 25 20 33 30.0000000  0  6G18G 2G11G19G16G 6
  21585548.0164    4999469.26747   3881478.68362
  22130223.3674   -7377902.95046  -5674877.09662
  23021409.2194   -3649680.42646  -2794811.94861
  20861945.4774     446179.11146    349207.20262
  23620602.828    -3047608.207 5  -2087981.05621
  23784975.391    -3045973.668 5  -2274726.69721
 91  4 25 20 33 45.0000000  0  6G18G 2G11G19G16G 6
  21592584.938     5036448.954 7   3910293.97422
  22123391.2194   -7413787.72846  -5702839.16562
  23019692.930    -3658688.442 6  -2801831.15921
  20863140.8284     452466.68046    354106.60962
  23618364.953    -3059359.554 5  -2097137.96921
  23778781.406    -3078525.077 5  -2300091.28421
 91  4 25 20 34  0.0000000  0  6G18G 2G11G19G16G 6
  21599634.125     5073511.344 7   3939173.70622
  22116577.9064   -7449607.48146  -5730750.57361
  23018005.0394   -3667560.17246  -2808744.18761
  20864341.4694     458791.35046    359034.91862
  23616153.0554   -3070986.20445  -2106197.69461
  23772588.602    -3111072.828 5  -2325453.00321
 91  4 25 20 34 15.0000000  0  6G18G 2G11G19G16G 6
  21606708.656     5110657.127 7   3968118.42922
  22109771.9924   -7485361.32846  -5758610.61462
  23016344.0234   -3676294.61746  -2815550.23261
  20865553.8284     465153.87446    363992.73162
  23613968.180    -3082487.342 5  -2115159.59921
  23766397.5944   -3143616.42145  -2350811.51761
 91  4 25 20 34 30.0000000  0  6G18G 2G11G19G16G 6
  21613791.7034    5147888.71047   3997129.99062
  22102982.9304   -7521046.49846  -5786417.14861
  23014708.727    -3684889.017 6  -2822247.16121
  20866771.2664     471557.23947    368982.36262
  23611801.5164   -3093860.10545  -2124021.49761
  23760204.7894   -3176153.09545  -2376164.62861
 91  4 25 20 34 45.0000000  0  6G18G 2G11G19G16G 6
  21620893.039     5185204.856 7   4026207.45022
  22096205.6334   -7556663.61847  -5814170.65562
  23013101.3284   -3693343.91646  -2828835.38161
  20867998.0164     478000.69846    374003.23462
  23609663.586    -3105105.035 5  -2132783.80321
  23754008.3594   -3208683.53245  -2401512.87761
 91  4 25 20 35  0.0000000  0  6G18G 2G11G19G16G 6
  21628008.938     5222603.190 7   4055348.95622
  22089438.8444   -7592215.19346  -5841873.08661
  23011518.227    -3701661.905 6  -2835316.90821
  20869232.2034     484481.53047    379053.23362
  23607545.0164   -3116225.14145  -2141448.82561
  23747824.1174   -3241210.33045  -2426858.26361
 91  4 25 20 35 15.0000000  0  6G18G 2G11G19G16G 6
  21635143.852     5260085.593 7   4084555.97522
  22082686.1334   -7627699.14846  -5869522.82861
  23009962.188    -3709840.660 6  -2841689.96421
  20870474.3444     491001.67346    384133.86462
  23605453.016    -3127218.370 5  -2150015.00921
  23741634.688    -3273731.727 5  -2452199.44321
 91  4 25 20 35 30.0000000  0  6G18G 2G11G19G16G 6
  21642288.2734    5297646.52047   4113824.17162
  22075946.2274   -7663120.60246  -5897123.87262
  23008428.1564   -3717885.21946  -2847958.44461
  20871719.3754     497556.38347    389241.42662
  23603387.4144   -3138089.63245  -2158486.10861
  23735445.625    -3306252.748 5  -2477540.32621
 91  4 25 20 35 45.0000000  0  6G18G 2G11G19G16G 6
  21649451.852     5335290.335 7   4143156.95922
  22069219.2274   -7698475.01047  -5924672.66862
  23006925.8134   -3725791.04046  -2854118.81461
  20872977.8364     504149.97647    394379.28762
  23601340.4144   -3148834.38745  -2166858.65161
  23729257.3054   -3338769.04645  -2502877.56461
 91  4 25 20 36  0.0000000  0  6G18G 2G11G19G16G 6
  21656630.977     5373017.082 7   4172554.38222
  22062505.0474   -7733761.69047  -5952168.68961
  23005449.6484   -3733557.44546  -2860170.54161
  20874235.7504     510782.86947    399547.77762
  23599320.023    -3159452.102 5  -2175132.21721
  23723070.289    -3371280.235 5  -2528210.78221
 91  4 25 20 36 15.0000000  0  6G18G 2G11G19G16G 6
  21663825.688     5410824.944 7   4202015.00122
  22055801.7584   -7768982.38246  -5979613.28961
  23003996.633    -3741186.081 6  -2866114.92221
  20875506.3674     517453.46647    404745.64262
  23597324.563    -3169944.494 5  -2183308.12421
  23716887.133    -3403787.924 5  -2553541.30221
 91  4 25 20 36 30.0000000  0  6G18G 2G11G19G16G 6
  21671037.203     5448714.345 7   4231539.15622
  22049111.3364   -7804136.64346  -6007006.13462
  23002570.266    -3748676.362 6  -2871951.49121
  20876782.5554     524162.14347    409973.17862
  23595350.555    -3180311.225 5  -2191386.11321
  23710698.211    -3436291.771 5  -2578868.83021
 91  4 25 20 36 45.0000000  0  6G18G 2G11G19G16G 6
  21678261.461     5486685.409 7   4261126.94722
  22042433.2734   -7839224.02047  -6034346.85561
  23001170.5704   -3756027.75346  -2877679.84061
  20878069.3674     530909.37747    415230.76562
  23593401.5784   -3190551.99745  -2199365.93161
  23704515.609    -3468791.431 5  -2604193.10521
 91  4 25 20 37  0.0000000  0  6G18G 2G11G19G16G 6
  21685504.492     5524740.194 7   4290779.98022
  22035769.9924   -7874242.05847  -6061633.54762
  22999801.3204   -3763237.88946  -2883298.11861
  20879359.4384     537697.50347    420520.21062
  23591479.414    -3200664.418 5  -2207245.76721
  23698333.8834   -3501284.76445  -2629512.40861
 91  4 25 20 37 15.0000000  0  6G18G 2G11G19G16G 6
  21692762.945     5562881.754 7   4320500.63022
  22029119.3284   -7909187.34347  -6088863.54461
  22998456.3134   -3770303.26846  -2888803.59661
  20880658.7734     544530.00547    425844.23562
  23589580.680    -3210645.051 5  -2215022.91121
  23692151.2344   -3533768.33245  -2654824.13861
 91  4 25 20 37 30.0000000  0  6G18G 2G11G19G16G 6
  21700034.555     5601106.610 7   4350286.17322
  22022485.2974   -7944063.35047  -6116039.56762
  22997138.625    -3777227.351 6  -2894198.96621
  20881966.0164     551403.42547    431200.14662
  23587705.6804   -3220497.47845  -2222700.16961
  23685971.8364   -3566245.91145  -2680131.20161
 91  4 25 20 37 45.0000000  0  6G18G 2G11G19G16G 6
  21707325.156     5639406.458 7   4380130.15922
  22015860.352    -7978877.995 7  -6143167.77622
  22995846.828    -3784018.032 6  -2899490.39421
  20883281.3284     558309.64447    436581.61262
  23585852.711    -3230229.870 5  -2230283.85521
  23679789.570    -3598725.400 5  -2705439.72121
 91  4 25 20 38  0.0000000  0  6G18G 2G11G19G16G 6
  21714627.242     5677784.291 7   4410034.91322
  22009245.7274   -8013627.83947  -6170245.48862
  22994578.805    -3790671.742 6  -2904675.08921
  20884600.8984     565252.17347    441991.37662
  23584023.9384   -3239838.83945  -2237771.36561
  23673611.039    -3631203.421 5  -2730747.14121
 91  4 25 20 38 15.0000000  0  6G18G 2G11G19G16G 6
  21721945.117     5716241.211 7   4440001.29122
  22002646.4384   -8048311.62347  -6197271.72262
  22993339.6024   -3797187.33646  -2909752.17661
  20885931.8204     572232.20546    447430.35662
  23582221.172    -3249323.085 5  -2245161.72121
  23667429.188    -3663679.162 5  -2756052.75721
 91  4 25 20 38 30.0000000  0  6G18G 2G11G19G16G 6
  21729279.117     5754775.171 7   4470027.69922
  21996057.2734   -8082931.17147  -6224247.90762
  22992125.8524   -3803566.66846  -2914723.07561
  20887264.9844     579247.77847    452897.03562
  23580436.953    -3258684.497 5  -2252456.33321
  23661251.633    -3696154.276 5  -2781357.87021
 91  4 25 20 38 45.0000000  0  6G18G 2G11G19G16G 6
  21736625.773     5793385.951 7   4500113.97222
  21989482.469    -8117486.548 7  -6251174.09222
  22990937.4304   -3809809.49446  -2919587.60661
  20888607.4614     586298.86746    458391.39262
  23578677.9224   -3267923.02545  -2259655.23761
  23655067.836    -3728628.989 5  -2806662.69421
 91  4 25 20 39  0.0000000  0  6G18G 2G11G19G16G 6
  21743988.188     5832074.344 7   4530260.71422
  21982919.4844   -8151976.59747  -6278049.36162
  22989776.6724   -3815914.70846  -2924344.90161
  20889956.9694     593386.57246    463914.28162
  23576943.641    -3277037.717 5  -2266757.60321
  23648886.2194   -3761102.21145  -2831966.35361
 91  4 25 20 39 15.0000000  0  6G18G 2G11G19G16G 6
  21751363.938     5870838.972 7   4560466.86722
  21976367.8914   -8186402.39347  -6304874.56762
  22988638.4384   -3821883.39046  -2928995.81661
  20891311.9064     600509.79847    469464.84262
  23575233.7814   -3286029.85045  -2273764.46361
  23642710.977    -3793575.120 5  -2857269.76621
 91  4 25 20 39 30.0000000  0  6G18G 2G11G19G16G 6
  21758756.258     5909676.178 7   4590729.57122
  21969830.0084   -8220767.39347  -6331652.40462
  22987531.5314   -3827718.87946  -2933542.93561
  20892672.2584     607665.12447    475040.42162
  23573544.2664   -3294902.65645  -2280678.38161
  23636530.0234   -3826051.32945  -2882575.74061
 91  4 25 20 39 45.0000000  0  6G18G 2G11G19G16G 6
  21766161.0704    5948591.85847   4621053.42262
  21963301.531    -8255065.390 7  -6358378.02722
  22986445.1334   -3833415.03646  -2937981.50061
  20894042.6484     614858.59746    480645.71962
  23571880.672    -3303650.474 5  -2287494.88121
  23630349.9844   -3858524.63245  -2907879.48461
 91  4 25 20 40  0.0000000  0  6G18G 2G11G19G16G 6
  21773580.4614    5987584.66547   4651437.36462
  21956786.5084   -8289297.52347  -6385052.32962
  22985388.156    -3838972.765 6  -2942312.18121
  20895419.1804     622089.24246    486279.98662
  23570240.930    -3312273.899 5  -2294214.48621
  23624169.578    -3890996.383 5  -2933181.96921
 91  4 25 20 40 15.0000000  0  6G18G 2G11G19G16G 6
  21781014.680     6026645.631 7   4681874.43122
  21950284.1884   -8323472.32747  -6411681.95862
  22984356.3674   -3844400.72646  -2946541.75761
  20896800.1174     629348.27446    491936.37062
  23568620.2194   -3320781.83645  -2300844.05361
  23617990.9694   -3923475.27045  -2958490.04261
 91  4 25 20 40 30.0000000  0  6G18G 2G11G19G16G 6
  21788462.625     6065778.908 7   4712367.83922
  21943793.1724   -8357585.28547  -6438263.39762
  22983348.695    -3849694.493 6  -2950666.75721
  20898187.4774     636640.42746    497618.56562
  23567023.5234   -3329170.20345  -2307380.46061
  23611808.4454   -3955956.82845  -2983800.19061
 91  4 25 20 40 45.0000000  0  6G18G 2G11G19G16G 6
  21795920.6484    6104981.68747   4742915.39962
  21937312.813    -8391639.180 7  -6464798.81122
  22982366.8754   -3854856.72146  -2954689.27161
  20899582.2814     643962.82146    503324.32662
  23565451.9454   -3337441.53145  -2313825.69461
  23605627.6564   -3988444.04845  -3009114.76761
 91  4 25 20 41  0.0000000  0  6G18G 2G11G19G16G 6
  21803395.9224    6144258.18147   4773520.40362
  21930842.0864   -8425629.47347  -6491284.66862
  22981407.5784   -3859882.94946  -2958605.79661
  20900981.5234     651319.90846    509057.12262
  23563899.0164   -3345591.50345  -2320176.31561
  23599445.9304   -4020932.48145  -3034430.26061
 91  4 25 20 41 15.0000000  0  6G18G 2G11G19G16G 6
  21810881.492     6183610.113 7   4804184.19222
  21924390.016    -8459554.042 7  -6517719.31022
  22980480.336    -3864770.867 6  -2962414.55621
  20902388.2734     658713.96346    514818.71162
  23562370.6564   -3353617.74945  -2326430.54161
  23593260.1094   -4053419.93845  -3059744.99161
 91  4 25 20 41 30.0000000  0  6G18G 2G11G19G16G 6
  21818384.9924    6223033.39347   4834903.57662
  21917947.000    -8493416.891 7  -6544105.86322
  22979574.0234   -3869524.55346  -2966118.73261
  20903800.5084     666140.89246    520605.92662
  23560866.7894   -3361524.56545  -2332591.75861
  23587078.484    -4085910.697 5  -3085062.30121
 91  4 25 20 41 45.0000000  0  6G18G 2G11G19G16G 6
  21825902.492     6262531.856 7   4865681.54322
  21911512.742    -8527214.231 7  -6570441.36422
  22978698.6484   -3874140.12546  -2969715.27861
  20905222.0554     673604.32546    526421.58362
  23559384.109    -3369308.302 5  -2338657.03121
  23580896.719    -4118400.995 5  -3110379.26021
 91  4 25 20 42  0.0000000  0  6G18G 2G11G19G16G 6
  21833434.719     6302104.827 7   4896517.56422
  21905094.820    -8560945.969 7  -6596725.75522
  22977842.742    -3878617.432 6  -2973204.07421
  20906647.2664     681104.50346    532265.87462
  23557928.656    -3376968.973 5  -2344626.35021
  23574714.2734   -4150890.83745  -3135695.86361
 91  4 25 20 42 15.0000000  0  6G18G 2G11G19G16G 6
  21840975.320     6341750.932 7   4927410.57322
  21898686.836    -8594613.188 7  -6622959.87422
  22977017.3834   -3882957.52746  -2976585.97561
  20908084.6254     688640.30946    538137.91662
  23556495.0004   -3384507.44445  -2350500.50461
  23568528.6484   -4183381.36345  -3161013.00461
 91  4 25 20 42 30.0000000  0  6G18G 2G11G19G16G 6
  21848535.531     6381468.757 7   4958359.47822
  21892292.4534   -8628216.95947  -6649144.54062
  22976215.1174   -3887161.63646  -2979861.88761
  20909522.0704     696210.45146    544036.73262
  23555083.719    -3391925.333 5  -2356280.69921
  23562343.4454   -4215873.80145  -3186331.63961
 91  4 25 20 42 45.0000000  0  6G18G 2G11G19G16G 6
  21856106.3674    6421258.00447   4989364.02262
  21885910.320    -8661757.607 7  -6675280.03122
  22975445.1954   -3891230.00246  -2983032.03761
  20910969.5164     703814.61646    549962.04962
  23553692.3524   -3399222.83645  -2361967.12961
  23556162.727    -4248368.673 5  -3211652.14921
 91  4 25 20 42 59.9990000  0  6G18G 2G11G19G16G 6
  21863694.8784    6461119.48347   5020424.85762
  21879540.237    -8695229.005 7  -6701361.56322
  22974693.5034   -3895158.53946  -2986093.23961
  20912422.2224     711456.10346    555916.45062
  23552325.292    -3406395.563 5  -2367556.27921
  23549980.1054   -4280859.94145  -3236969.85561
 91  4 25 20 43 14.9990000  0  6G18G 2G11G19G16G 6
  21871290.355     6501052.190 7   5051541.19222
  21873182.815    -8728641.723 7  -6727397.36322
  22973974.7224   -3898953.62346  -2989050.44261
  20913883.5344     719129.92346    561896.04062
  23550985.230    -3413450.680 5  -2373053.74921
  23543792.901    -4313358.040 5  -3262292.89321
 91  4 25 20 43 29.9990000  0  6G18G 2G11G19G16G 6
  21878903.011     6541062.724 7   5082718.18222
  21866838.386    -8761983.971 7  -6753378.26422
  22973279.0894   -3902605.54646  -2991896.09561
  20915352.1364     726845.23846    567907.96862
  23549664.128    -3420378.367 5  -2378451.95021
  23537610.8784   -4345851.52245  -3287612.32561
 91  4 25 20 43 44.9990000  0  6G18G 2G11G19G16G 6
  21886534.9564    6581148.75047   5113953.99062
  21860506.769    -8795257.919 7  -6779305.93422
  22972612.355    -3906116.556 6  -2994631.94321
  20916827.2454     734599.90646    573950.56162
  23548370.4804   -3427180.79745  -2383752.60161
  23531426.401    -4378342.580 5  -3312929.88821
 91  4 25 20 43 59.9990000  0  6G18G 2G11G19G16G 6
  21894174.370     6621306.845 7   5145245.95022
  21854184.565    -8828466.799 7  -6805182.90522
  22971970.9644   -3909489.69946  -2997260.36561
  20918312.3234     742390.56446    580021.19962
  23547100.7924   -3433861.46945  -2388958.34561
  23525250.1594   -4410834.50845  -3338248.09961
 91  4 25 20 44 14.9990000  0  6G18G 2G11G19G16G 6
  21901830.0734    6661537.42747   5176594.39462
  21847879.769    -8861609.850 7  -6831008.58422
  22971353.5584   -3912724.20946  -2999780.76861
  20919803.9644     750217.99247    586120.48962
  23545854.8944   -3440419.56545  -2394068.58561
  23519061.1054   -4443326.58545  -3363566.43861
 91  4 25 20 44 29.9990000  0  6G18G 2G11G19G16G 6
  21909497.487     6701836.064 6   5207995.87422
  21841584.042    -8894691.167 7  -6856786.16222
  22970765.5734   -3915824.19346  -3002196.34161
  20921297.5584     758078.18746    592245.30662
  23544629.1284   -3446858.99745  -2399086.34161
  23512880.6984   -4475823.00145  -3388888.18161
 91  4 25 20 44 44.9990000  0  6G18G 2G11G19G16G 6
  21917181.4014    6742205.92647   5239452.84962
  21835303.167    -8927707.150 7  -6882512.82722
  22970198.831    -3918786.009 6  -3004504.24221
  20922800.3234     765974.63746    598398.37562
  23543426.659    -3453176.582 5  -2404009.13521
  23506696.878    -4508320.347 5  -3414210.61321
 91  4 25 20 44 59.9990000  0  6G18G 2G11G19G16G 6
  21924876.3704    6782644.76847   5270963.57162
  21829028.6204   -8960660.03547  -6908190.32962
  22969663.4404   -3921612.00846  -3006706.32561
  20924306.1984     773904.96746    604577.84962
  23542247.3314   -3459374.67645  -2408838.86061
  23500506.6904   -4540821.02245  -3439535.63061
 91  4 25 20 45 14.9990000  0  6G18G 2G11G19G16G 6
  21932585.230     6823153.108 7   5302528.45122
  21822772.065    -8993548.903 7  -6933817.94722
  22969147.9564   -3924301.19146  -3008801.79161
  20925823.2924     781870.06446    610784.41062
  23541091.956    -3465452.388 5  -2413574.77521
  23494324.9014   -4573324.06045  -3464862.52661
 91  4 25 20 45 29.9990000  0  6G18G 2G11G19G16G 6
  21940305.2374    6863733.01446   5334149.10262
  21816526.3554   -9026371.30747  -6959393.77862
  22968667.0034   -3926851.03846  -3010788.69161
  20927344.7454     789872.48947    617020.06162
  23539955.6754   -3471407.30145  -2418215.01761
  23488140.1444   -4605827.07245  -3490189.38161
 91  4 25 20 45 44.9990000  0  6G18G 2G11G19G16G 6
  21948042.7374    6904381.57347   5365823.24562
  21810292.308    -9059130.111 7  -6984920.04522
  22968204.2614   -3929264.35146  -3012669.18561
  20928876.3234     797909.54446    623282.68962
  23538848.808    -3477242.592 5  -2422762.03721
  23481954.886    -4638333.041 5  -3515518.57621
 91  4 25 20 45 59.9990000  0  6G18G 2G11G19G16G 6
  21955793.1754    6945099.59847   5397551.51962
  21804069.878    -9091824.245 7  -7010395.92122
  22967774.4954   -3931540.19946  -3014442.59161
  20930415.2614     805982.08146    629572.97162
  23537758.9484   -3482957.20745  -2427214.98461
  23475770.761    -4670841.075 5  -3540849.34121
 91  4 25 20 46 14.9990000  0  6G18G 2G11G19G16G 6
  21963554.1514    6985892.03347   5429337.77262
  21797862.542    -9124448.520 7
  22967366.2764   -3933673.36346  -3016104.79761
  20931956.2694     814095.23746    635894.90962
  23536694.6674   -3488546.03345  -2431569.96461
  23469583.183    -4703345.996 5
 91  4 25 20 46 29.9990000  0  6G18G 2G11G19G16G 6
  21971328.4484    7026755.66346   5461179.49962
  21791667.7064   -9157005.44447
  22966984.6444   -3935666.59746  -3017657.98561
  20933505.8004     822246.36147    642246.42462
  23535656.6514   -3494011.56245  -2435828.89261
  23463395.995    -4735850.539 5
 91  4 25 20 46 44.9990000  0  6G18G 2G11G19G16G 6
  21979119.347     7067691.585 6   5493077.56222
  21785484.847    -9189493.941 7
  22966636.6514   -3937518.69946  -3019101.17961
  20935065.7374     830436.61746    648628.43762
  23534641.2614   -3499353.07545  -2439991.14261
  23457211.737    -4768353.837 5
 91  4 25 20 46 59.9990000  0  6G18G 2G11G19G16G 6
  21986922.5344    7108696.06846   5525029.05062
  21779315.4724   -9221917.49647  -7111766.99662
  22966310.7694   -3939232.96746  -3020436.97761
  20936630.5894     838662.66547    655038.33562
  23533643.4014   -3504573.70045  -2444059.19861
  23451027.792    -4800859.161 5  -3642161.48321
 91  4 25 20 47 14.9990000  0  6G18G 2G11G19G16G 6
  21994741.5734    7149778.84046   5557041.53562
  21773158.534    -9254266.066 7  -7136973.60122
  22966012.2144   -3940799.44246  -3021657.60861
  20938205.4644     846934.40246    661483.83462
  23532677.808    -3509663.842 5  -2448025.58221
  23444843.464    -4833356.718 5  -3667484.11321
 91  4 25 20 47 29.9990000  0  6G18G 2G11G19G16G 6
  22002568.9804    7190928.12246   5589105.84262
  21767015.964    -9286551.147 7  -7162130.73522
  22965739.5974   -3942229.46346  -3022771.91561
  20939785.4094     855240.43047    667956.05962
  23531733.3314   -3514634.92445  -2451899.18561
  23438658.878    -4865857.829 5  -3692809.49221
 91  4 25 20 47 44.9990000  0  6G18G 2G11G19G16G 6
  22010414.1754    7232150.32646   5621226.97962
  21760883.1754   -9318766.31747  -7187233.39762
  22965494.9804   -3943516.59846  -3023774.87561
  20941374.8944     863587.20447    674460.03162
  23530812.144    -3519480.517 5  -2455675.01221
  23432475.7144   -4898356.21145  -3718132.74661
 91  4 25 20 47 59.9990000  0  6G18G 2G11G19G16G 6
  22018273.6984    7273447.28446   5653406.36461
  21754768.8704   -9350909.26947  -7212279.78062
  22965276.3784   -3944658.68046  -3024664.81561
  20942969.7924     871977.11947    680997.61962
  23529911.5344   -3524198.55545  -2459351.46461
  23426289.2924   -4930849.69545  -3743452.20261
 91  4 25 20 48 14.9990000  0  6G18G 2G11G19G16G 6
  22026144.3084    7314815.28746   5685641.11262
  21748666.190    -9382983.539 7  -7237272.64722
  22965086.4094   -3945659.22046  -3025444.44961
  20944575.6834     880406.66046    687566.08362
  23529039.558    -3528792.866 5  -2462931.44421
  23420104.0654   -4963342.09945  -3768770.79661
 91  4 25 20 48 29.9990000  0  6G18G 2G11G19G16G 6
  22034031.6284    7356252.60846   5717929.86862
  21742572.9954   -9414990.47547  -7262213.04562
  22964921.8004   -3946519.56546  -3026114.85261
  20946185.2374     888874.50547    694164.39962
  23528187.0584   -3533264.80345  -2466416.15661
  23413926.9874   -4995834.38145  -3794089.31561
 91  4 25 20 48 44.9990000  0  6G18G 2G11G19G16G 6
  22041930.4954    7397759.93046   5750273.17762
  21736496.597    -9446928.867 7  -7287100.03422
  22964784.4334   -3947238.56946  -3026675.11261
  20947806.5264     897381.74147    700793.41062
  23527358.815    -3537613.094 5  -2469804.50221
  23407738.011    -5028325.842 5  -3819407.19421
 91  4 25 20 48 59.9990000  0  6G18G 2G11G19G16G 6
  22049841.4174    7439335.63146   5782669.76162
  21730430.9174   -9478800.57547  -7311935.06562
  22964672.8474   -3947818.02946  -3027126.63761
  20949430.9954     905926.55447    707451.69962
  23526555.0344   -3541839.88845  -2473098.11261
  23401555.878    -5060818.272 5  -3844725.80721
 91  4 25 20 49 14.9990000  0  6G18G 2G11G19G16G 6
  22057764.6984    7480985.74246   5815124.33161
  21724379.4404   -9510599.23147  -7336713.17162
  22964592.8554   -3948251.52746  -3027464.43461
  20951065.1754     914515.38046    714144.28362
  23525777.9174   -3545938.99245  -2476292.24861
  23395375.5504   -5093305.35045  -3870040.25761
 91  4 25 20 49 29.9990000  0  6G18G 2G11G19G16G 6
  22065708.7924    7522703.21246   5847631.39162
  21718342.722    -9542331.196 7  -7361439.30922
  22964540.8314   -3948545.63046  -3027693.59961
  20952706.8864     923141.62646    720866.03062
  23525021.339    -3549916.836 5  -2479391.92421
  23389191.4644   -5125793.63245  -3895355.65161
 91  4 25 20 49 44.9990000  0  6G18G 2G11G19G16G 6
  22073658.9174    7564491.39446   5880193.53861
  21712318.175    -9573993.023 7  -7386110.79222
  22964503.4564   -3948696.90846
  20954357.0114     931808.83046    727619.69062
  23524285.0504   -3553770.25545  -2482394.65061
  23383012.706    -5158279.742 5  -3920669.34121
 91  4 25 20 49 59.9990000  0  6G18G 2G11G19G16G 6
  22081624.5114    7606351.41146   5912811.66862
  21706305.0894   -9605583.36547  -7410726.57662
  22964507.7304   -3948703.96046
  20956011.6364     940518.50747    734406.44462
  23523574.073    -3557497.865 5  -2485299.29721
  23376828.667    -5190762.439 5  -3945980.39621
 91  4 25 20 50 14.9990000  0  6G18G 2G11G19G16G 6
  22089600.9254    7648282.07046   5945484.84462
  21700308.0584   -9637103.17647  -7435287.39662
  22964532.8004   -3948567.71346
  20957679.2844     949269.57346    741225.45362
  23522892.9484   -3561100.34445  -2488106.45461
  23370645.331    -5223242.623 5  -3971289.46621
 91  4 25 20 50 29.9990000  0  6G18G 2G11G19G16G 6
  22097597.3474    7690282.23346   5978212.17761
  21694322.0974   -9668553.29147  -7459793.90762
  22964587.7304   -3948289.09446
  20959351.6284     958061.08847    748075.97462
  23522227.722    -3564578.741 5  -2490816.96721
  23364470.097    -5255721.229 5  -3996597.33321
 91  4 25 20 50 44.9990000  0  6G18G 2G11G19G16G 6
  22105604.6284    7732355.18246   6010996.22862
  21688351.9014   -9699930.18147  -7484243.35862
  22964665.9334   -3947864.49146  -3027162.83661
  20961033.1514     966896.61146    754960.79162
  23521592.722    -3567930.044 5  -2493428.43721
  23358289.831    -5288194.800 5  -4021901.24921
 91  4 25 20 50 59.9990000  0  6G18G 2G11G19G16G 6
  22113621.651     7774499.902 6   6043836.19522
  21682394.112    -9731234.749 7  -7508636.45522
  22964777.3554   -3947294.93246  -3026719.02761
  20962723.120      975775.386 6    761879.30422
  23520972.792    -3571154.952 5  -2495941.38621
  23352109.730    -5320664.332 5  -4047202.03521
 91  4 25 20 51 14.9990000  0  6G18G 2G11G19G16G 6
  22121656.597     7816715.116 6   6076731.09322
  21676448.3784   -9762467.74147  -7532973.79162
  22964911.8154   -3946581.17946  -3026162.85361
  20964421.6594     984696.64247    768830.92962
  23520386.800    -3574254.607 5  -2498356.72021
  23345929.7224   -5353130.61045  -4072500.27761
 91  4 25 20 51 29.9990000  0  6G18G 2G11G19G16G 6
  22129700.948     7858999.473 6   6109679.89122
  21670519.651    -9793630.314 7  -7557256.24622
  22965072.8234   -3945724.27446  -3025495.13761
  20966127.6984     993659.33446    775814.84062
  23519822.925    -3577229.976 6  -2500675.22521
  23339750.386    -5385594.799 5  -4097796.88421
 91  4 25 20 51 44.9990000  0  6G18G 2G11G19G16G 6
  22137761.6834    7901354.62246   6142683.84261
  21664602.1594   -9824720.69547  -7581482.44962
  22965262.651    -3944722.533 6  -3024714.54621
  20967839.4254    1002665.28946    782832.46062
  23519280.0584   -3580079.37545  -2502895.59761
  23333576.9254   -5418055.27445  -4123090.61261
 91  4 25 20 51 59.9990000  0  6G18G 2G11G19G16G 6
  22145834.2844    7943779.22346   6175741.89761
  21658700.1364   -9855739.91847  -7605653.20662
  22965484.2144   -3943577.13946  -3023822.04161
  20969561.0654    1011713.34346    789882.87962
  23518759.4804   -3582804.23245  -2505018.89861
  23327399.6984   -5450513.11245  -4148382.27261
 91  4 25 20 52 14.9990000  0  6G18G 2G11G19G16G 6
  22153920.4174    7986273.27746   6208854.08261
  21652812.3004   -9886687.58147  -7629768.20162
  22965728.1834   -3942287.69246  -3022817.27761
  20971293.1754    1020803.74446    796966.30462
  23518266.0814   -3585404.04645  -2507044.76261
  23321225.2694   -5482968.20045  -4173671.78761
 91  4 25 20 52 29.9990000  0  6G18G 2G11G19G16G 6
  22162020.5034    8028839.88246   6242022.80261
  21646936.8154   -9917560.45047  -7653824.91862
  22966001.3944   -3940850.81046  -3021697.63661
  20973031.6364    1029940.04146    804085.48962
  23517794.0194   -3587875.87245  -2508970.88661
  23315050.558    -5515417.017 5  -4198956.42221
 91  4 25 20 52 44.9990000  0  6G18G 2G11G19G16G 6
  22170133.4484    8071472.79946   6275243.18861
  21641073.3624   -9948364.31547  -7677827.86262
  22966302.3864   -3939272.50246  -3020467.78961
  20974777.5734    1039116.30746    811235.82562
  23517351.1054   -3590225.89345  -2510802.10761
  23308872.1124   -5547865.65945  -4224240.93861
 91  4 25 20 52 59.9990000  0  6G18G 2G11G19G16G 6
  22178264.394     8114175.944 6   6308518.29321
  21635226.8474   -9979094.91847  -7701773.72762
  22966631.6204   -3937548.40646  -3019124.33461
  20976530.8944    1048336.84746    818420.65362
  23516924.1444   -3592449.75945  -2512535.04061
  23302698.1754   -5580309.85345  -4249521.96961
 91  4 25 20 53 14.9990000  0  6G18G 2G11G19G16G 6
  22186399.011     8156946.604 6   6341846.00321
  21629393.3624  -10009754.70847  -7725664.39762
  22966984.2454   -3935681.11146  -3017669.31161
  20978295.1834    1057599.08046    825637.96862
  23516525.4094   -3594550.10445  -2514171.67461
  23296525.2924   -5612752.20945  -4274801.59161
 91  4 25 20 53 29.9990000  0  6G18G 2G11G19G16G 6
  22194554.831     8199781.906 6   6375224.09321
  21623572.5114  -10040346.43547  -7749502.04362
  22967369.9014   -3933673.29946  -3016104.78461
  20980065.0504    1066900.39146    832885.73762
  23516150.4804   -3596529.62145  -2515714.19961
  23290352.472    -5645195.430 5  -4300081.85521
 91  4 25 20 53 44.9990000  0  6G18G 2G11G19G16G 6
  22202712.9484    8242683.77446   6408654.04361
  21617763.5344  -10070868.11047  -7773285.10262
  22967777.4174   -3931522.89046  -3014429.14661
  20981842.5734    1076242.93046    840165.63062
  23515798.003    -3598386.303 5  -2517161.01021
  23284177.5504   -5677637.53045  -4325361.25861
 91  4 25 20 53 59.9990000  0  6G18G 2G11G19G16G 6
  22210891.761     8285652.158 6   6442135.83321
  21611968.2924  -10101319.33547  -7797013.26662
  22968211.5344   -3929229.73546  -3012642.27961
  20983627.1364    1085627.08546    847477.95062
  23515466.144    -3600119.966 5  -2518511.96621
  23278005.159    -5710078.234 5  -4350639.57221
 91  4 25 20 54 14.9990000  0  6G18G 2G11G19G16G 6
  22219082.355     8328684.580 6   6475667.51421
  21606187.3704  -10131702.14847  -7820688.11762
  22968676.5654   -3926795.83246  -3010745.74361
  20985421.5114    1095050.72946    854821.04362
  23515156.808    -3601732.887 5  -2519768.82821
  23271827.9724   -5742519.61645  -4375918.41261
 91  4 25 20 54 29.9990000  0  6G18G 2G11G19G16G 6
  22227282.1674    8371779.88246   6509248.20461
  21600417.2224  -10162017.69647  -7844310.55862
  22969164.3234   -3924222.31846  -3008740.40461
  20987221.0654    1104512.83547    862194.10562
  23514875.745    -3603226.324 5  -2520932.55921
  23265659.5504   -5774962.73645  -4401198.61561
 91  4 25 20 54 44.9990000  0  6G18G 2G11G19G16G 6
  22235495.9334    8414936.93646   6542877.00761
  21594659.8234  -10192266.61647  -7867881.08262
  22969680.9724   -3921510.04446  -3006626.96461
  20989030.7764    1114012.58046    869596.49562
  23514613.7374   -3604601.12045  -2522003.86661
  23259483.440    -5807408.582 5  -4426480.93621
 91  4 25 20 54 59.9990000  0  6G18G 2G11G19G16G 6
  22243716.6984    8458155.70246   6576553.89761
  21588916.7924  -10222448.79647  -7891399.60562
  22970225.5504   -3918658.79146  -3004405.20261
  20990841.2304    1123550.14247    877028.35762
  23514372.347    -3605857.208 5  -2522982.71521
  23253307.519    -5839856.952 5  -4451765.20721
 91  4 25 20 55 14.9990000  0  6G18G 2G11G19G16G 6
  22251953.5344    8501435.81046   6610278.59261
  21583187.8784  -10252564.44747  -7914866.28462
  22970794.2614   -3915668.82746  -3002075.37161
  20992664.4094    1133125.41546    884489.60162
  23514156.3154   -3606994.78945  -2523869.17661
  23247132.1284   -5872308.00545  -4477051.59961
 91  4 25 20 55 29.9990000  0  6G18G 2G11G19G16G 6
  22260202.1124    8544774.83646   6644049.19561
  21577467.0974  -10282615.52847  -7938282.64362
  22971389.0194   -3912542.10046  -2999638.96061
  20994493.9174    1142736.35347    891978.63362
  23513965.7534   -3608016.18345  -2524665.09761
  23240953.9804   -5904763.94745  -4502341.77661
 91  4 25 20 55 44.9990000  0  6G18G 2G11G19G16G 6
  22268458.987     8588174.871 6   6677867.32921
  21571762.8624  -10312599.93547  -7961647.05762
  22972009.2144   -3909276.43646  -2997094.28861
  20996332.1674    1152385.36347    899497.33662
  23513792.980    -3608919.390 5  -2525368.92221
  23234777.659    -5937222.571 5  -4527634.04821
 91  4 25 20 55 59.9990000  0  6G18G 2G11G19G16G 6
  22276731.159     8631633.025 6   6711730.75321
  21566068.6054  -10342520.26347  -7984961.53962
  22972654.0264   -3905874.64446  -2994443.55061
  20998173.5734    1162069.66647    907043.54262
  23513642.3474   -3609706.96245  -2525982.67461
  23228602.183    -5969686.693 5  -4552930.61921
 91  4 25 20 56 14.9990000  0  6G18G 2G11G19G16G 6
  22285009.8704    8675149.87446   6745639.91761
  21560388.8084  -10372375.57147  -8008225.35462
  22973332.2764   -3902335.72246  -2991685.94061
  21000023.4484    1171790.27746    914618.03862
  23513511.9404   -3610377.96945  -2526505.61161
  23222423.589    -6002155.282 5  -4578230.66521
 91  4 25 20 56 29.9990000  0  6G18G 2G11G19G16G 6
  22293302.6124    8718728.88946   6779597.52061
  21554720.1674  -10402162.09647  -8031435.57562
  22974032.1514   -3898655.93746  -2988818.59561
  21001880.3864    1181551.16947    922223.91862
  23513407.5264   -3610929.15645  -2526935.10561
  23216242.198    -6034624.547 5  -4603531.25621
 91  4 25 20 56 44.9990000  0  6G18G 2G11G19G16G 6
  22301606.058     8762367.821 6   6813601.80821
  21549063.0504  -10431881.90247  -8054593.80162
  22974756.3784   -3894837.39646  -2985843.12261
  21003745.6364    1191350.14246    929859.47762
  23513325.2924   -3611362.38745  -2527272.71761
  23210064.3314   -6067096.61845  -4628834.03661
 91  4 25 20 56 59.9990000  0  6G18G 2G11G19G16G 6
  22309925.933     8806067.250 6   6847653.23421
  21543424.0894  -10461534.01347  -8077699.28862
  22975512.0654   -3890879.28446  -2982758.87661
  21005618.7144    1201188.02647    937525.35362
  23513268.933    -3611677.080 5  -2527518.00221
  23203887.776    -6099570.739 5  -4654138.38721
 91  4 25 20 57 14.9990000  0  6G18G 2G11G19G16G 6
  22318250.276     8849823.341 6   6881748.81221
  21537793.1284  -10491121.97447  -8100754.77662
  22976288.2694   -3886785.19046  -2979568.69161
  21007496.6754    1211061.30447    945218.81162
  23513227.886    -3611876.840 5
  23197706.8474   -6132050.52545  -4679447.18261
 91  4 25 20 57 29.9990000  0  6G18G 2G11G19G16G 6
  22326587.9484    8893638.31446   6915890.28061
  21532174.3004  -10520643.29347  -8123758.34362
  22977094.472    -3882552.580 6  -2976270.55921
  21009381.1904    1220972.63347    952941.91962
  23513212.3084   -3611959.33145
  23191526.933    -6164533.475 5  -4704758.44421
 91  4 25 20 57 44.9990000  0  6G18G 2G11G19G16G 6
  22334936.433     8937511.064 6   6950076.76521
  21526567.6984  -10550098.75147  -8146710.58662
  22977929.0814   -3878182.32446  -2972865.17461
  21011278.3314    1230921.25247    960694.08062
  23513215.6904   -3611925.57245
  23185342.9094   -6197020.34145  -4730072.74061
 91  4 25 20 57 59.9990000  0  6G18G 2G11G19G16G 6
  22343296.6594    8981440.62646   6984307.52161
  21520972.7534  -10579489.28247  -8169612.23762
  22978788.0114   -3873675.41446  -2969353.29261
  21013174.2924    1240906.37247    968474.67762
  23513247.776    -3611776.341 5
  23179155.503    -6229512.078 5  -4755390.83921
 91  4 25 20 58 14.9990000  0  6G18G 2G11G19G16G 6
  22351668.597     9025429.476 6   7018584.47521
  21515395.9254  -10608811.75547  -8192460.86162
  22979669.9174   -3869028.90446  -2965732.63661
  21015084.8394    1250931.02047    976286.08762
  23513297.698    -3611508.942 5
  23172976.503    -6262005.720 6  -4780710.42721
 91  4 25 20 58 29.9990000  0  6G18G 2G11G19G16G 6
  22360048.1754    9069471.35146   7052902.75061
  21509827.9804  -10638072.45647  -8215261.34262
  22980578.1754   -3864249.13546  -2962008.14561
  21016997.8704    1260988.83947    984123.33762
  23513370.120    -3611129.933 5  -2527092.00221
  23166790.792    -6294507.735 6  -4806036.55821
 91  4 25 20 58 44.9990000  0  6G18G 2G11G19G16G 6
  22368438.5424    9113573.48546   7087267.98061
  21504273.6984  -10667263.80247  -8238007.78662
  22981516.1674   -3859328.48846  -2958173.88661
  21018919.5424    1271087.48447    991992.40262
  23513462.4874   -3610631.71545  -2526703.83961
  23160603.776    -6327010.354 5  -4831363.14921
 91  4 25 20 58 59.9990000  0  6G18G 2G11G19G16G 6
  22376842.2764    9157737.92246   7121681.75761
  21498730.1754  -10696383.34647  -8260698.28262
  22982477.886    -3854264.509 6  -2954227.93921
  21020848.2844    1281229.55147    999895.31062
  23513584.730    -3610011.501 5  -2526220.61421
  23154418.456    -6359511.193 5  -4856688.34521
 91  4 25 20 59 14.9990000  0  6G18G 2G11G19G16G 6
  22385259.230     9201955.452 6   7156136.90321
  21493201.9484  -10725440.36347  -8283340.05362
  22983466.081    -3849066.408 6  -2950177.48021
  21022787.7304    1291405.89147   1007824.91262
  23513724.3084   -3609279.21245  -2525650.09661
  23148232.972    -6392019.494 5  -4882019.36121
 91  4 25 20 59 29.9990000  0  6G18G 2G11G19G16G 6
  22393687.4954    9246226.59346   7190633.82961
  21487682.7534  -10754434.04047  -8305932.46862
  22984483.9334   -3843733.65146  -2946022.09361
  21024726.1054    1301617.45747   1015781.97162
  23513886.2924   -3608433.84445  -2524991.38861
  23142047.448    -6424534.462 5  -4907355.56621
 91  4 25 20 59 44.9990000  0  6G18G 2G11G19G16G 6
  22402120.855     9290553.820 6   7225174.46321
  21482177.1674  -10783361.63947  -8328473.39162
  22985523.4094   -3838263.44346  -2941759.59861
  21026678.5894    1311866.89847   1023768.54562
  23514066.5344   -3607472.91445  -2524242.67061
  23135858.167    -6457053.415 6  -4932694.88921
 91  4 25 20 59 59.9990000  0  6G18G 2G11G19G16G 6
  22410563.4954    9334937.72546   7259759.25561
  21476686.0814  -10812222.30547  -8350962.16762
  22986591.253    -3832655.080 6  -2937389.46421
  21028635.659     1322154.918 7   1031785.17622
  23514270.4644   -3606396.16245  -2523403.75161
  23129668.5584   -6489575.63445  -4958036.75161
 91  4 25 21  0 14.9990000  0  6G18G 2G11G19G16G 6
  22419019.4954    9379378.18846   7294388.12461
  21471207.4404  -10841015.74747  -8373398.55762
  22987683.605    -3826908.171 6  -2932911.36321
  21030604.315     1332482.000 7   1039832.24022
  23514492.440    -3605203.114 5  -2522474.14221
  23123481.3084   -6522100.83146  -4983380.93761
 91  4 25 21  0 29.9990000  0  6G18G 2G11G19G16G 6
  22427489.5584    9423875.30046   7329061.13861
  21465742.0114  -10869741.56147  -8395782.25362
  22988805.394    -3821022.460 6  -2928325.12121
  21032572.9404    1342848.52947   1047910.04662
  23514747.6904   -3603893.46745  -2521453.68361
  23117288.9334   -6554628.58746  -5008727.13061
 91  4 25 21  0 44.9990000  0  6G18G 2G11G19G16G 6
  22435967.097     9468427.578 6   7363777.11621
  21460286.3084  -10898401.12247  -8418114.32162
  22989950.4174   -3814999.34046  -2923631.77761
  21034555.5344    1353253.15947   1056017.54762
  23515020.5894   -3602468.91245  -2520343.71361
  23111099.987    -6587160.263 6  -5034076.34721
 91  4 25 21  0 59.9990000  0  6G18G 2G11G19G16G 6
  22444456.948     9513035.420 6   7398536.39621
  21454847.3394  -10926993.63947  -8440394.14662
  22991123.0034   -3808838.11846  -2918830.83961
  21036540.495     1363696.687 7   1064155.34122
  23515310.5344   -3600928.58245  -2519143.54961
  23104906.948    -6619695.205 6  -5059428.14321
 91  4 25 21  1 14.9990000  0  6G18G 2G11G19G16G 6
  22452955.2844    9557697.29046   7433337.78561
  21449416.612   -10955520.433 7  -8462622.76122
  22992320.995    -3802540.176 6  -2913923.37321
  21038536.1594    1374177.95347   1072322.55662
  23515625.870    -3599273.866 5  -2517854.21521
  23098717.4404   -6652234.66346  -5084783.44661
 91  4 25 21  1 29.9990000  0  6G18G 2G11G19G16G 6
  22461464.5814    9602412.25546   7468180.55161
  21444002.3784  -10983982.13547  -8484800.65262
  22993546.401    -3796106.232 6  -2908909.92121
  21040537.839     1384696.156 7   1080518.54722
  23515962.5894   -3597505.85645  -2516476.58661
  23092522.956    -6684779.376 6  -5110142.84821
 91  4 25 21  1 44.9990000  0  6G18G 2G11G19G16G 6
  22469983.831     9647183.367 6   7503067.05321
  21438599.1834  -11012375.38247  -8506925.20462
  22994793.8234   -3789533.01946  -2903787.95761
  21042549.4954    1395254.82346   1088746.06962
  23516323.855    -3595621.327 5  -2515008.18421
  23086326.253    -6717326.019 6  -5135503.75321
 91  4 25 21  1 59.9990000  0  6G18G 2G11G19G16G 6
  22478517.8944    9692005.54946   7537993.35861
  21433208.0424  -11040704.99547  -8529000.16962
  22996072.9404   -3782825.52446  -2898561.34761
  21044563.4954    1405849.33847   1097001.53062
  23516703.6444   -3593624.90845  -2513452.63161
  23080133.284    -6749879.444 5  -5160869.92321
 91  4 25 21  2 14.9990000  0  6G18G 2G11G19G16G 6
  22487053.6834    9736884.81246   7572964.12461
  21427830.222   -11068964.942 7  -8551020.85222
  22997376.4404   -3775977.77346  -2893225.45061
  21046588.4014    1416485.66046   1105289.56762
  23517109.315    -3591510.926 5  -2511805.44121
  23073941.565    -6782433.658 6  -5186236.73521
 91  4 25 21  2 29.9990000  0  6G18G 2G11G19G16G 6
  22495606.792     9781816.849 6   7607976.02421
  21422463.1834  -11097158.87847  -8572990.09362
  22998706.097    -3768993.528 6  -2887783.19521
  21048615.9564    1427160.07447   1113607.28462
  23517527.972    -3589283.808 5  -2510070.06721
  23067745.800    -6814992.441 5  -5211607.09621
 91  4 25 21  2 44.9990000  0  6G18G 2G11G19G16G 6
  22504163.862     9826807.584 6   7643033.65821
  21417113.3394  -11125280.93747  -8594903.33062
  23000063.0114   -3761866.77346  -2882229.87561
  21050658.8784    1437878.68047   1121959.43562
  23517977.0814   -3586937.14345  -2508241.59461
  23061546.605    -6847549.841 5  -5236976.39021
 91  4 25 21  2 59.9990000  0  6G18G 2G11G19G16G 6
  22512739.511     9871855.229 6   7678135.64921
  21411775.8084  -11153332.67947  -8616761.77462
  23001441.5584   -3754599.13746  -2876566.79161
  21052707.3234    1448639.87447   1130344.76762
  23518443.7064   -3584472.62445  -2506321.24861
  23055349.909    -6880107.352 5  -5262345.74521
 91  4 25 21  3 14.9990000  0  6G18G 2G11G19G16G 6
  22521319.2224    9916954.72646   7713278.05461
  21406450.3944  -11181318.58747  -8638568.91662
  23002851.9874   -3747195.32646  -2870797.59861
  21054763.3704    1459439.18746   1138759.81062
  23518936.909    -3581895.087 5  -2504312.84421
  23049156.7064   -6912669.53345  -5287718.74961
 91  4 25 21  3 29.9990000  0  6G18G 2G11G19G16G 6
  22529915.1594    9962107.29646   7748461.80861
  21401138.7144  -11209237.12747  -8660323.56662
  23004288.5584   -3739653.90046  -2864921.17361
  21056823.8554    1470278.01347   1147205.63962
  23519448.011    -3579203.048 5  -2502215.21521
  23042958.2614   -6945235.09345  -5313094.39461
 91  4 25 21  3 44.9990000  0  6G18G 2G11G19G16G 6
  22538515.714    10007313.179 6   7783687.09521
  21395835.9014  -11237087.83647  -8682025.35462
  23005751.1204   -3731974.44646  -2858937.19761
  21058894.9014    1481156.87847   1155682.66262
  23519986.245    -3576396.162 5  -2500028.07921
  23036758.7064   -6977803.43945  -5338472.20161
 91  4 25 21  3 59.9990000  0  6G18G 2G11G19G16G 6
  22547127.745    10052576.882 6   7818957.43921
  21390552.730   -11264866.569 7  -8703671.07122
  23007240.1594   -3724152.74346  -2852842.37361
  21060974.722     1492080.222 6   1164194.35122
  23520538.292    -3573470.379 5  -2497748.37721
  23030564.933    -7010370.335 5  -5363848.86921
 91  4 25 21  4 14.9990000  0  6G18G 2G11G19G16G 6
  22555749.7374   10097896.65546   7854271.47961
  21385278.159   -11292574.267 7  -8725261.43022
  23008752.917    -3716189.786 6  -2846637.48621
  21063060.0194    1503047.16746   1172740.00862
  23521116.894    -3570426.714 5  -2495376.74721
  23024367.0504   -7042936.61845  -5389225.06761
 91  4 25 21  4 29.9990000  0  6G18G 2G11G19G16G 6
  22564385.8704   10143273.49746   7889629.99361
  21380019.7454  -11320209.82847  -8746795.58162
  23010297.0584   -3708084.52546  -2840321.70561
  21065155.4804    1514058.90147   1181320.57462
  23521719.573    -3567264.536 5  -2492912.77021
  23018170.214    -7075501.323 5  -5414600.02121
 91  4 25 21  4 44.9990000  0  6G18G 2G11G19G16G 6
  22573032.1124   10188704.33846   7925030.58061
  21374772.776   -11347775.889 7  -8768275.57522
  23011861.1444   -3699839.81746  -2833897.26361
  21067259.8394    1525112.84446   1189934.02962
  23522341.5814   -3563986.49945  -2490358.55561
  23011971.667    -7108067.123 6  -5439975.82321
 91  4 25 21  4 59.9990000  0  6G18G 2G11G19G16G 6
  22581688.980    10234187.553 6   7960471.97921
  21369540.464   -11375273.937 7  -8789702.57223
  23013460.8624   -3691457.31846  -2827365.46161
  21069370.1984    1536207.37046   1198579.10162
  23522986.7144   -3560594.57545  -2487715.56261
  23005776.394    -7140635.656 5  -5465353.76521
 91  4 25 21  5 14.9990000  0  6G18G 2G11G19G16G 6
  22590354.776    10279722.286 6   7995953.51721
  21364318.878   -11402704.254 7  -8811076.79623
  23015082.917    -3682937.413 6  -2820726.59621
  21071488.8944    1547342.10046   1207255.50762
  23523658.581    -3557089.185 5  -2484984.14521
  22999575.933    -7173207.248 5  -5490734.09421
 91  4 25 21  5 29.9990000  0  6G18G 2G11G19G16G 6
  22599030.4874   10325316.93546   8031481.74461
  21359115.878   -11430058.706 7  -8832391.90023
  23016732.808    -3674272.016 6  -2813974.33921
  21073616.5034    1558525.35246   1215969.72362
  23524345.097    -3553462.004 5  -2482157.89421
  22993374.292    -7205773.694 5  -5516110.39821
 91  4 25 21  5 44.9990000  0  6G18G 2G11G19G16G 6
  22607715.620    10370961.142 6   8067048.60521
  21353922.706   -11457347.073 7  -8853655.51122
  23018405.8154   -3665470.97546  -2807116.39161
  21075753.605     1569747.390 6   1224714.15522
  23525057.105    -3549723.188 5  -2479244.56421
  22987180.2304   -7238344.72046  -5541490.29761
 91  4 25 21  5 59.9990000  0  6G18G 2G11G19G16G 6
  22616408.6444   10416661.11646   8102658.90861
  21348745.206   -11484562.958 7  -8874862.64222
  23020106.6284   -3656527.89946  -2800147.76961
  21077899.0034    1581014.65046   1233493.83062
  23525792.0814   -3545866.44145  -2476239.39361
  22980980.847    -7270914.015 6  -5566868.83321
 91  4 25 21  6 14.9990000  0  6G18G 2G11G19G16G 6
  22625116.558    10462411.038 6   8138308.12121
  21343576.706   -11511711.821 7  -8896017.54922
  23021835.026    -3647448.437 6  -2793072.87621
  21080048.8474    1592321.76246   1242304.56262
  23526549.026    -3541897.235 5  -2473146.61121
  22974788.3624   -7303487.02146  -5592250.27861
 91  4 25 21  6 29.9990000  0  6G18G 2G11G19G16G 6
  22633835.0894   10508212.38346   8173997.42361
  21338426.440   -11538792.013 7  -8917118.95123
  23023587.073    -3638231.006 6  -2785890.47821
  21082209.4724    1603670.44546   1251147.67662
  23527323.7304   -3537814.27345  -2469965.16761
  22968584.8784   -7336062.06446  -5617633.28361
 91  4 25 21  6 44.9990000  0  6G18G 2G11G19G16G 6
  22642560.6834   10554065.59946   8209727.13661
  21333286.120   -11565802.872 7  -8938166.32322
  23025370.730    -3628875.062 6  -2778600.15121
  21084376.4874    1615061.42646   1260023.75762
  23528121.3864   -3533617.05345  -2466694.67061
  22962388.401    -7368638.452 6  -5643017.33921
 91  4 25 21  6 59.9990000  0  6G18G 2G11G19G16G 6
  22651292.7374   10599969.82646   8245496.59361
  21328158.331   -11592744.957 7  -8959160.10322
  23027177.7694   -3619381.10946  -2771202.28961
  21086549.7144    1626494.21347   1268932.41862
  23528946.6904   -3529306.30645  -2463335.72961
  22956188.683    -7401216.845 6  -5668402.95921
 91  4 25 21  7 14.9990000  0  6G18G 2G11G19G16G 6
  22660037.745    10645922.972 6   8281304.19321
  21323043.714   -11619620.132 7  -8980101.74522
  23029008.3864   -3609751.15546  -2763698.43261
  21088735.4014    1637967.11646   1277872.33562
  23529784.3554   -3524883.85245  -2459889.77061
  22949982.573    -7433798.974 6  -5693791.49321
 91  4 25 21  7 29.9990000  0  6G18G 2G11G19G16G 6
  22668794.776    10691927.129 6   8317151.53121
  21317941.315   -11646426.197 7  -9000989.53822
  23030864.847    -3599982.998 6  -2756086.90221
  21090925.3234    1649482.50646   1286845.35462
  23530647.2924   -3520347.85545  -2456355.30361
  22943786.3784   -7466382.72446  -5719181.29561
 91  4 25 21  7 44.9990000  0  6G18G 2G11G19G16G 6
  22677558.2454   10737982.85146   8353039.04661
  21312852.339   -11673162.298 7  -9021822.81523
  23032749.894    -3590075.888 6  -2748367.09921
  21093126.5974    1661041.13146   1295852.06862
  23531534.5814   -3515697.66445  -2452731.81661
  22937585.4804   -7498967.17546  -5744571.62961
 91  4 25 21  7 59.9990000  0  6G18G 2G11G19G16G 6
  22686332.706    10784084.911 6   8388962.67321
  21307779.355   -11699833.094 7  -9042605.20522
  23034664.0504   -3580034.79846  -2740542.88761
  21095330.0504    1672638.02546   1304888.60462
  23532441.901    -3510938.216 5  -2449023.25921
  22931381.605    -7531557.188 6  -5769966.31021
 91  4 25 21  8 14.9990000  0  6G18G 2G11G19G16G 6
  22695114.2694   10830237.71846   8424925.83461
  21302716.675   -11726433.982 7  -9063333.12222
  23036601.081    -3569855.228 6  -2732610.77221
  21097548.6674    1684278.04946   1313958.74662
  23533368.456    -3506064.828 5  -2445225.91721
  22925180.534    -7564148.279 6  -5795361.82921
 91  4 25 21  8 29.9990000  0  6G18G 2G11G19G16G 6
  22703904.9334   10876438.99646   8460926.76961
  21297668.659   -11752967.121 7  -9084008.25123
  23038562.019    -3559539.105 6  -2724572.25421
  21099768.0974    1695959.42946   1323061.10962
  23534314.073    -3501079.924 5  -2441341.64821
  22918978.144    -7596742.192 6  -5820759.53821
 91  4 25 21  8 44.9990000  0  6G18G 2G11G19G16G 6
  22712706.550    10922690.468 6   8496966.82521
  21292631.714   -11779430.379 7  -9104628.92323
  23040551.4644   -3549084.58146  -2716425.88161
  21102002.151     1707684.208 6   1332197.28922
  23535287.5344   -3495981.43045  -2437368.87661
  22912775.284    -7629336.886 6  -5846157.87021
 91  4 25 21  8 59.9990000  0  6G18G 2G11G19G16G 6
  22721514.8394   10968986.79246   8533041.82161
  21287606.925   -11805828.957 7  -9125199.19823
  23042573.870    -3538496.961 6  -2708175.81421
  21104238.6754    1719447.30547   1341363.33862
  23536276.1834   -3490774.62645  -2433311.69061
  22906572.5114   -7661937.61246  -5871560.89961
 91  4 25 21  9 14.9990000  0  6G18G 2G11G19G16G 6
  22730335.5344   11015331.47246   8569154.50061
  21282598.394   -11832158.980 7  -9145716.05422
  23044606.323    -3527772.503 6  -2699819.10221
  21106488.1674    1731252.52447   1350562.19962
  23537288.745    -3485456.222 5  -2429167.56821
  22900367.1444   -7694540.63846  -5896965.71261
 91  4 25 21  9 29.9990000  0  6G18G 2G11G19G16G 6
  22739164.4014   11061724.18946   8605304.61061
  21277599.5504  -11858420.57747  -9166179.59362
  23046676.612    -3516911.454 6  -2691355.96921
  21108740.3554    1743099.74747   1359793.78862
  23538324.2064   -3480026.14745  -2424936.42761
  22894164.4954   -7727145.91446  -5922372.29261
 91  4 25 21  9 44.9990000  0  6G18G 2G11G19G16G 6
  22747999.8234   11108162.74146   8641490.42461
  21272617.261   -11884615.745 7  -9186591.36822
  23048769.284    -3505915.777 6  -2682787.91921
  21111002.6204    1754987.08946   1369056.64762
  23539377.2764   -3474486.73545  -2420620.09661
  22887960.425    -7759755.413 6  -5947782.15521
 91  4 25 21  9 59.9990000  0  6G18G 2G11G19G16G 6
  22756847.6124   11154652.32546   8677716.01661
  21267645.292   -11910738.883 7  -9206947.00822
  23050885.8554   -3494780.18146  -2674110.85061
  21113273.1444    1766920.04747   1378355.04762
  23540449.4484   -3468832.70545  -2416214.43761
  22881752.2064   -7792363.78946  -5973191.15561
 91  4 25 21 10 14.9990000  0  6G18G 2G11G19G16G 6
  22765704.8474   11201191.00846   8713979.86461
  21262687.534   -11936791.922 7  -9227248.03522
  23053033.308    -3483506.661 6  -2665326.30821
  21115554.2844    1778896.71546   1387687.51862
  23541551.0894   -3463066.08945  -2411721.05961
  22875546.0114   -7824973.00146  -5998600.79761
 91  4 25 21 10 29.9990000  0  6G18G 2G11G19G16G 6
  22774565.9804   11247774.13046   8750278.34161
  21257741.714   -11962779.005 7  -9247497.66022
  23055200.987    -3472099.432 6  -2656437.58121
  21117836.9254    1790913.17747   1397050.98162
  23542667.323    -3457191.337 5  -2407143.39921
  22869342.683    -7857587.006 6  -6024014.17021
 91  4 25 21 10 44.9990000  0  6G18G 2G11G19G16G 6
  22783440.097    11294403.876 6   8786613.14921
  21252808.159   -11988697.585 7  -9267693.91322
  23057397.3624   -3460556.12546  -2647442.80361
  21120135.0974    1802972.00646   1406447.47062
  23543806.7454   -3451206.00845  -2402479.59561
  22863132.7064   -7890203.31746  -6049429.34961
 91  4 25 21 10 59.9990000  0  6G18G 2G11G19G16G 6
  22792323.300    11341080.137 6   8822984.18721
  21247889.792   -12014547.689 7  -9287836.80322
  23059623.8704   -3448876.81746  -2638342.06061
  21122438.1594    1815073.41946   1415877.13362
  23544968.034    -3445109.903 5  -2397729.47321
  22856925.526    -7922821.911 6  -6074846.30521
 91  4 25 21 11 14.9990000  0  6G18G 2G11G19G16G 6
  22801216.5654   11387804.65546   8859392.84961
  21242983.972   -12040327.670 7  -9307925.05122
  23061871.433    -3437059.909 6  -2629134.09521
  21124748.5344    1827219.18746   1425341.35862
  23546150.2224   -3438901.99145  -2392892.19661
  22850718.8704   -7955441.01746  -6100263.67461
 91  4 25 21 11 29.9990000  0  6G18G 2G11G19G16G 6
  22810114.2694   11434572.25546   8895835.06161
  21238092.776   -12066042.224 7  -9327962.31822
  23064145.3554   -3425110.15446  -2619822.60361
  21127066.6904    1839404.59247   1434836.47562
  23547348.2374   -3432587.00345  -2387971.54561
  22844510.0814   -7988065.28845  -6125685.05361
 91  4 25 21 11 44.9990000  0  6G18G 2G11G19G16G 6
  22819023.9174   11481384.57546   8932312.12061
  21233212.417   -12091689.099 7  -9347946.85422
  23066445.0194   -3413025.51646
  21129395.4014    1851631.53446
  23548572.972    -3426163.182 5  -2382966.03121
  22838303.9334   -8020692.65046  -6151108.84661
 91  4 25 21 11 59.9990000  0  6G18G 2G11G19G16G 6
  22827938.1594   11528243.66246   8968825.63361
  21228343.464   -12117266.227 7  -9367877.02922
  23068771.761    -3400803.925 6
  21131727.1984    1863902.60747
  23549817.4014   -3419628.10845  -2377873.86361
  22832090.7064   -8053320.88446  -6176533.31661
 91  4 25 21 12 14.9990000  0  6G18G 2G11G19G16G 6
  22836863.6594   11575147.15746   9005373.75461
  21223488.5034  -12142775.59847  -9387754.41962
  23071119.0974   -3388447.52746
  21134072.9094    1876215.78546
  23551075.472    -3412984.021 5  -2372696.72421
  22825883.3704   -8085952.03646  -6201960.06761
 91  4 25 21 12 29.9990000  0  6G18G 2G11G19G16G 6
  22845801.3084   11622094.88446   9041956.32961
  21218648.065   -12168217.274 7  -9407579.05122
  23073496.409    -3375956.633 6  -2581521.24021
  21136421.0034    1888571.03447   1473147.95762
  23552364.675    -3406231.441 5  -2367435.06921
  22819675.7374   -8118586.14746  -6227389.12561
 91  4 25 21 12 44.9990000  0  6G18G 2G11G19G16G 6
  22854744.1054   11669081.67646   9078569.33961
  21213818.667   -12193595.953 7  -9427354.60522
  23075899.417    -3363336.161 6  -2571687.13121
  21138779.6124    1900963.59546   1482804.49262
  23553671.448    -3399375.361 5  -2362092.76021
  22813462.698    -8151228.083 6  -6252824.28921
 91  4 25 21 12 59.9990000  0  6G18G 2G11G19G16G 6
  22863689.792    11716110.918 6   9115215.42021
  21209002.261   -12218908.370 7  -9447078.51522
  23078328.651    -3350582.651 6  -2561749.35121
  21141146.3314    1913396.82746   1492492.71862
  23554995.0114   -3392412.61245  -2356667.33861
  22807246.1834   -8183874.41846  -6278262.87361
 91  4 25 21 13 14.9990000  0  6G18G 2G11G19G16G 6
  22872646.425    11763184.038 6   9151895.70021
  21204198.730   -12244152.665 7  -9466749.35022
  23080778.2694   -3337694.43146  -2551706.60461
  21143523.4484    1925872.70446   1502214.17462
  23556340.105    -3385341.696 5  -2351157.60221
  22801037.308    -8216523.241 6  -6303703.39421
 91  4 25 21 13 29.9990000  0  6G18G 2G11G19G16G 6
  22881612.690    11810301.487 6   9188610.51821
  21199405.714   -12269328.200 7  -9486366.60722
  23083258.175    -3324670.779 6  -2541558.33221
  21145902.7374    1938392.29847   1511969.69062
  23557704.5264   -3378161.62345  -2345562.85361
  22794824.417    -8249173.688 6  -6329145.18921
 91  4 25 21 13 44.9990000  0  6G18G 2G11G19G16G 6
  22890589.065    11857464.647 6   9225360.96121
  21194629.9014  -12294433.33247  -9505929.00962
  23085763.480    -3311510.475 6  -2531303.58021
  21148294.4484    1950956.96446   1521760.33162
  23559093.9804   -3370871.49645  -2339882.32061
  22788610.276    -8281824.353 6  -6354587.16221
 91  4 25 21 13 59.9990000  0  6G18G 2G11G19G16G 6
  22899572.776    11904671.381 6   9262145.35021
  21189862.753   -12319469.825 7  -9525437.91422
  23088289.745    -3298215.385 6  -2520943.78921
  21150693.964     1963565.099 7   1531584.83922
  23560506.222    -3363472.941 5  -2334117.28321
  22782397.5264   -8314476.91246  -6380030.61961
 91  4 25 21 14 14.9990000  0  6G18G 2G11G19G16G 6
  22908564.206    11951921.448 6   9298963.50221
  21185114.4254  -12344437.70847  -9544893.37362
  23090847.589    -3284785.620 6  -2510479.06021
  21153102.6204    1976216.81546   1541443.31262
  23561929.940    -3355966.140 5  -2328267.92221
  22776181.347    -8347131.382 6  -6405475.54221
 91  4 25 21 14 29.9990000  0  6G18G 2G11G19G16G 6
  22917567.058    11999216.646 6   9335816.83421
  21180375.5504  -12369335.29047  -9564294.04262
  23093428.940    -3271219.647 6  -2499908.19421
  21155517.4404    1988913.79747   1551337.05862
  23563380.269    -3348349.469 5  -2322332.98021
  22769970.3234   -8379785.97746  -6430920.57661
 91  4 25 21 14 44.9990000  0  6G18G 2G11G19G16G 6
  22926573.526    12046556.302 6   9372704.79321
  21175651.4094  -12394162.48247  -9583639.86963
  23096039.112    -3257517.404 6  -2489231.14321
  21157942.7064    2001656.08746   1561266.10562
  23564852.769    -3340623.027 5  -2316312.44921
  22763754.933    -8412440.631 6  -6456365.64521
 91  4 25 21 14 59.9990000  0  6G18G 2G11G19G16G 6
  22935590.730    12093939.384 6   9409626.59421
  21170938.8944  -12418920.01147  -9602931.41063
  23098670.597    -3243679.723 6  -2478448.54321
  21160373.1204    2014443.38146   1571230.22362
  23566344.5114   -3332788.05845  -2310207.39961
  22757541.097    -8445095.989 6  -6481811.28421
 91  4 25 21 15 14.9990000  0  6G18G 2G11G19G16G 6
  22944611.4804   12141371.72546   9446586.79161
  21166244.831   -12443601.875 7  -9622163.98922
  23101332.644    -3229701.024 6  -2467556.07821
  21162820.362     2027281.491 6   1581233.93622
  23567854.847    -3324838.763 5  -2304013.21221
  22751325.0894   -8477746.25446  -6507252.95061
 91  4 25 21 15 29.9990000  0  6G18G 2G11G19G16G 6
  22953651.558    12188848.804 6   9483581.84321
  21161561.019   -12468212.446 7  -9641341.01623
  23104013.9874   -3215585.74846  -2456557.18861
  21165270.8234    2040165.97246   1591273.78062
  23569386.5974   -3316779.66345  -2297733.50261
  22745111.964    -8510395.613 6  -6532693.90521
 91  4 25 21 15 44.9990000  0  6G18G 2G11G19G16G 6
  22962689.792    12236370.019 6   9520611.26821
  21156891.3784  -12492752.13747  -9660462.81463
  23106727.2614   -3201334.14546  -2445452.07161
  21167733.8234    2053096.71646   1601349.67762
  23570940.2454   -3308611.19845  -2291368.54861
  22738903.480    -8543044.416 6  -6558134.43021
 91  4 25 21 15 59.9990000  0  6G18G 2G11G19G16G 6
  22971748.644    12283939.741 6   9557678.51121
  21152235.3084  -12517216.36447  -9679525.80363
  23109468.7224   -3186941.97546  -2434237.40661
  21170199.6364    2066078.28546   1611465.17162
  23572521.222    -3300329.169 5  -2284915.12121
  22732688.636    -8575688.072 6  -6583570.95821
 91  4 25 21 16 14.9990000  0  6G18G 2G11G19G16G 6
  22980805.198    12331555.238 6   9594781.41621
  21147595.8864  -12541607.48047  -9698531.82863
  23112231.230    -3172411.402 6  -2422914.91121
  21172680.8704    2079108.38046   1621618.48762
  23574118.3314   -3291935.94845  -2278375.02461
  22726476.948    -8608328.892 6  -6609005.25421
 91  4 25 21 16 29.9990000  0  6G18G 2G11G19G16G 6
  22989876.464    12379217.074 6   9631920.42721
  21142963.8944  -12565924.68447  -9717480.25363
  23115023.237    -3157741.945 6  -2411484.17521
  21175170.761     2092187.945 6   1631810.33922
  23575737.972    -3283430.786 5  -2271747.71021
  22720266.175    -8640965.999 6  -6634436.67421
 91  4 25 21 16 44.9990000  0  6G18G 2G11G19G16G 6
  22998955.581    12426924.795 6   9669095.19421
  21138353.269   -12590168.182 7  -9736371.25322
  23117842.9804   -3142934.04646  -2399945.57861
  21177670.5584    2105316.78746   1642040.60362
  23577373.1364   -3274814.42445  -2265033.77561
  22714055.8004   -8673599.62846  -6659865.37961
 91  4 25 21 16 59.9990000  0  6G18G 2G11G19G16G 6
  23008036.495    12474676.615 6   9706304.33421
  21133754.745   -12614339.439 7  -9755205.95522
  23120686.1444   -3127989.35846  -2388300.40561
  21180177.292     2118493.488 7   1652308.15422
  23579034.847    -3266088.478 5  -2258234.45121
  22707845.3314   -8706231.41146  -6685292.65461
 91  4 25 21 17 14.9990000  0  6G18G 2G11G19G16G 6
  23017139.972    12522475.146 6   9743549.87221
  21129168.0344  -12638435.82947  -9773982.32362
  23123556.1834   -3112905.26646  -2376546.59661
  21182696.7764    2131720.88346   1662615.19962
  23580716.722    -3257250.665 5  -2251347.91721
  22701636.464    -8738858.460 6  -6710716.22921
 91  4 25 21 17 29.9990000  0  6G18G 2G11G19G16G 6
  23026240.394    12570317.174 6   9780829.28821
  21124597.4724  -12662460.14947  -9792702.53062
  23126454.620    -3097684.810 6  -2364686.52321
  21185220.0894    2144996.03846   1672959.46962
  23582421.878    -3248303.719 5  -2244376.38021
  22695430.315    -8771483.552 6  -6736138.27421
 91  4 25 21 17 44.9990000  0  6G18G 2G11G19G16G 6
  23035353.448    12618199.801 6   9818140.35221
  21120036.2924  -12686414.58647  -9811368.28662
  23129374.0424   -3082330.41446  -2352722.08761
  21187753.9014    2158316.99546   1683339.42462
  23584140.464    -3239250.169 5  -2237321.76421
  22689219.628    -8804108.978 6  -6761560.60121
 91  4 25 21 17 59.9990000  0  6G18G 2G11G19G16G 6
  23044472.9874   12666126.76546   9855485.95361
  21115492.1054  -12710295.65647  -9829976.87762
  23132321.0194   -3066838.61446  -2340650.58761
  21190297.612     2171687.137 6   1693757.70522
  23585885.1514   -3230086.36845  -2230181.22961
  22683012.9404   -8836731.13046  -6786980.36661
 91  4 25 21 18 14.9990000  0  6G18G 2G11G19G16G 6
  23053601.839    12714098.540 6   9892866.47521
  21110963.1124  -12734102.70347  -9848527.78663
  23135299.7454   -3051208.73546  -2328471.49861
  21192853.3154    2185107.48146   1704215.10562
  23587651.9954   -3220812.17045  -2222954.69461
  22676807.386    -8869349.234 6  -6812396.96821
 91  4 25 21 18 29.9990000  0  6G18G 2G11G19G16G 6
  23062740.1444   12762114.49346   9930281.41661
  21106445.4094  -12757835.95047  -9867021.18263
  23138295.9804   -3035441.12146  -2316185.07761
  21195416.8004    2198577.91446   1714711.53762
  23589440.9094   -3211427.96845  -2215642.43161
  22670601.2534   -8901963.38746  -6837810.49461
 91  4 25 21 18 44.9990000  0  6G18G 2G11G19G16G 6
  23071881.940    12810173.800 6   9967730.15221
  21101942.1364  -12781496.24247  -9885457.73663
  23141326.9564   -3019536.72246  -2303792.07461
  21197990.222     2212097.686 6   1725246.40922
  23591241.2694   -3201934.64345  -2208245.12161
  22664394.0584   -8934574.40346  -6863221.58461
 91  4 25 21 18 59.9990000  0  6G18G 2G11G19G16G 6
  23081035.605    12858275.724 6  10005212.08121
  21097454.9644  -12805083.91747  -9903837.70762
  23144374.7764   -3003496.19846  -2291292.99161
  21200570.433     2225666.327 6   1735819.36122
  23593071.5654   -3192332.87545  -2200763.33961
  22658186.909    -8967182.751 6  -6888630.58021
 91  4 25 21 19 14.9990000  0  6G18G 2G11G19G16G 6
  23090198.737    12906419.868 6  10042726.92921
  21092981.6674  -12828599.03747  -9922161.14263
  23147452.8704   -2987319.70046  -2278687.95861
  21203165.034     2239283.941 7   1746430.47622
  23594918.065    -3182623.014 5  -2193197.33121
  22651984.925    -8999788.454 6  -6914037.52821
 91  4 25 21 19 29.9990000  0  6G18G 2G11G19G16G 6
  23099371.175    12954603.469 6  10080272.51421
  21088517.4564  -12852044.13947  -9940430.00963
  23150560.7224   -2971009.83446  -2265979.00861
  21205762.519     2252948.129 6   1757077.87022
  23596787.901    -3172807.909 5  -2185549.28521
  22645780.6754   -9032394.01746  -6939444.35561
 91  4 25 21 19 44.9990000  0  6G18G 2G11G19G16G 6
  23108544.605    13002830.152 6  10117851.66721
  21084072.0584  -12875415.32847  -9958641.29763
  23153687.3944   -2954562.90846  -2253163.25761
  21208369.495     2266662.761 6   1767764.58822
  23598674.3474   -3162883.66945  -2177816.22361
  22639575.4094   -9064995.35846  -6964847.88761
 91  4 25 21 19 59.9990000  0  6G18G 2G11G19G16G 6
  23117732.933    13051097.929 6  10155462.84921
  21079637.972   -12898714.249 7  -9976796.25623
  23156840.5584   -2937980.72446  -2240242.10261
  21210988.4874    2280426.35746   1778489.45862
  23600584.2144   -3152851.92245  -2169999.37461
  22633372.503    -9097594.181 6  -6990249.46321
 91  4 25 21 20 14.9990000  0  6G18G 2G11G19G16G 6
  23126925.4804   13099408.41346  10193107.30261
  21075218.9484  -12921939.18347  -9994893.57063
  23160023.3864   -2921261.66346  -2227214.29661
  21213620.7694    2294240.70246   1789253.87362
  23602514.4644   -3142711.51445  -2162097.85561
  22627170.6284   -9130188.62846  -7015647.61961
 91  4 25 21 20 29.9990000  0  6G18G 2G11G19G16G 6
  23136122.894    13147760.442 5  10230784.12421
  21070811.5114  -12945091.02547 -10012933.93263
  23163231.5894   -2904406.77946  -2214080.65661
  21216257.198     2308104.909 6   1800057.13822
  23604465.620    -3132463.692 5  -2154112.63821
  22620965.1834   -9162779.64346  -7041043.09661
 91  4 25 21 20 44.9990000  0  6G18G 2G11G19G16G 6
  23145335.2064   13196154.49746  10268493.70661
  21066419.3784  -12968169.20147 -10030916.89263
  23166467.1834   -2887415.51346  -2200840.74661
  21218907.0504    2322019.80446   1810899.90662
  23606436.815    -3122107.654 5  -2146043.11621
  22614765.1514   -9195366.46246  -7066435.32861
 91  4 25 21 20 59.9990000  0  6G18G 2G11G19G16G 6
  23154554.183    13244586.844 6  10306233.11921
  21062043.0654  -12991176.94547 -10048844.97363
  23169722.847    -2870291.430 6  -2187497.31721
  21221562.808     2335982.157 6   1821779.64922
  23608427.558    -3111646.979 5  -2137892.04521
  22608568.222    -9227952.233 6  -7091826.73221
 91  4 25 21 21 14.9990000  0  6G18G 2G11G19G16G 6
  23163775.315    13293060.816 6  10344004.96221
  21057679.3624  -13014110.65447 -10066715.35363
  23173007.7144   -2853031.34546  -2174047.93861
  21224232.269     2349995.514 6   1832699.13622
  23610435.519    -3101078.418 5  -2129656.91721
  22602366.167    -9260533.613 6  -7117214.69521
 91  4 25 21 21 29.9990000  0  6G18G 2G11G19G16G 6
  23173010.659    13341576.634 6  10381809.41921
  21053328.6444  -13036969.93947 -10084527.74863
  23176319.7614   -2835634.74146  -2160492.17361
  21226905.636     2364060.466 6   1843658.82222
  23612468.730    -3090401.678 5  -2121337.49721
  22596164.948    -9293109.953 6  -7142598.74421
 91  4 25 21 21 44.9990000  0  6G18G 2G11G19G16G 6
  23182248.269    13390135.511 6  10419647.42721
  21048993.8864  -13059753.37447 -10102281.03963
  23179655.7924   -2818100.31046  -2146829.00561
  21229592.081     2378178.517 6   1854659.88322
  23614521.995    -3079615.796 5  -2112933.03021
  22589968.644    -9325679.751 6  -7167977.69321
 91  4 25 21 21 59.9990000  0  6G18G 2G11G19G16G 6
  23191501.5504   13438731.88446  10457514.65161
  21044671.8394  -13082466.25647 -10119979.36263
  23183018.4014   -2800433.51246  -2133062.71161
  21232287.417     2392344.420 6   1865698.23422
  23616595.9724   -3068725.87545  -2104447.50661
  22583769.5814   -9358248.30346  -7193355.67361
 91  4 25 21 22 14.9990000  0  6G18G 2G11G19G16G 6
  23200748.4724   13487370.79646  10495415.02161
  21040362.6284  -13105103.28147 -10137618.56763
  23186407.7224   -2782629.25446  -2119189.29761
  21234993.831     2406563.448 6   1876777.98022
  23618688.5114   -3057727.02445  -2095877.07561
  22577575.081    -9390810.325 6  -7218728.55121
 91  4 25 21 22 29.9990000  0  6G18G 2G11G19G16G 6
  23210014.2694   13536046.88846  10533344.37061
  21036068.8704  -13127669.40147 -10155202.52663
  23189820.5424   -2764692.75846  -2105212.83461
  21237707.394     2420830.769 6   1887895.35322
  23620801.3314   -3046624.48445  -2087225.83761
  22571377.2304   -9423370.76046  -7244100.20461
 91  4 25 21 22 44.9990000  0  6G18G 2G11G19G16G 6
  23219282.394    13584762.110 5  10571304.19921
  21031787.6984  -13150162.60847 -10172729.66763
  23193256.784    -2746622.066 6  -2091131.80321
  21240433.9804    2435148.44746   1899051.97762
  23622933.245    -3035416.397 5  -2078492.40321
  22565182.222    -9455927.428 6  -7269468.93021
 91  4 25 21 22 59.9990000  0  6G18G 2G11G19G16G 6
  23228563.745    13633514.473 5  10609292.98221
  21027522.1834  -13172584.52247 -10190201.26063
  23196724.3314   -2728418.93646  -2076947.58461
  21243163.612     2449515.119 6   1910246.76922
  23625085.1984   -3024104.74545  -2069678.23661
  22558986.183    -9488481.883 6  -7294835.91921
 91  4 25 21 23 14.9990000  0  6G18G 2G11G19G16G 6
  23237846.534    13682304.477 5  10647311.07621
  21023268.3314  -13194934.42447 -10207616.73863
  23200210.620    -2710082.765 6  -2062659.69321
  21245912.839     2463931.543 6   1921480.32922
  23627257.409    -3012688.844 5  -2060782.83521
  22552794.0114   -9521033.51046  -7320200.71761
 91  4 25 21 23 29.9990000  0  6G18G 2G11G19G16G 6
  23247141.5814   13731134.04946  10685360.02661
  21019029.323   -13217210.115 7 -10224974.39323
  23203725.3474   -2691611.40046  -2048266.46961
  21248665.2694    2478400.21646   1932754.60362
  23629446.651    -3001166.700 5  -2051804.64621
  22546598.9094   -9553579.78946  -7345561.33061
 91  4 25 21 23 44.9990000  0  6G18G 2G11G19G16G 6
  23256442.2224   13780003.85846  10723440.30861
  21014806.8084  -13239410.90447 -10242273.67963
  23207266.4804   -2673004.40546  -2033767.54661
  21251426.706     2492921.629 6   1944069.96922
  23631663.784    -2989537.752 5  -2042743.24021
  22540406.597    -9586120.105 6  -7370917.30721
 91  4 25 21 23 59.9990000  0  6G18G 2G11G19G16G 6
  23265746.2844   13828909.29145  10761548.34861
  21010594.425   -13261540.823 7 -10259517.74423
  23210829.4404   -2654266.17046  -2019166.37561
  21254200.792     2507491.820 6   1955423.34522
  23633894.581    -2977806.612 5  -2033602.19021
  22534215.6444   -9618658.53546  -7396271.80761
 91  4 25 21 24 14.9990000  0  6G18G 2G11G19G16G 6
  23275057.605    13877848.376 5  10799682.62021
  21006395.9484  -13283602.10347 -10276708.32163
  23214421.2924   -2635398.85546  -2004464.60261
  21256981.378     2522108.801 6   1966813.18222
  23636146.9174   -2965975.22045  -2024383.05561
  22528024.425    -9651196.986 6  -7421626.33621
 91  4 25 21 24 29.9990000  0  6G18G 2G11G19G16G 6
  23284377.815    13926822.269 5  10837844.00421
  21002210.315   -13305593.017 7 -10293844.07023
  23218036.3944   -2616400.99246  -1989661.11361
  21259770.714     2536774.200 6   1978240.75322
  23638418.042    -2954042.268 5  -2015084.72721
  22521829.644    -9683733.768 6  -7446979.56821
 91  4 25 21 24 44.9990000  0  6G18G 2G11G19G16G 6
  23293705.6054   13975833.13145  10876034.21461
  20998040.019   -13327511.091 7 -10310923.06423
  23221678.8784   -2597270.18346  -1974754.03861
  21262572.605     2551490.753 6   1989708.17422
  23640707.7534   -2942005.48645  -2005705.55061
  22515641.308    -9716266.326 6  -7472329.49721
 91  4 25 21 24 59.9990000  0  6G18G 2G11G19G16G 6
  23303034.2694   14024881.14445  10914253.37661
  20993884.1054  -13349356.10147 -10327945.12463
  23225344.651    -2578006.419 6  -1959743.35021
  21265379.909     2566258.769 6   2001215.70422
  23643022.300    -2929864.930 5  -1996245.47621
  22509448.4254   -9748794.36046  -7497675.92661
 91  4 25 21 25 14.9990000  0  6G18G 2G11G19G16G 6
  23312375.3084   14073966.19545  10952501.38661
  20989739.886   -13371127.626 7 -10344909.92523
  23229035.972    -2558609.597 6  -1944628.98621
  21268203.370     2581078.579 6   2012763.58522
  23645349.073    -2917620.741 5  -1986704.66721
  22503261.128    -9781317.646 6  -7523018.63521
 91  4 25 21 25 29.9990000  0  6G18G 2G11G19G16G 6
  23321730.1834   14123090.41645  10990779.91061
  20985612.3554  -13392823.48747 -10361815.76263
  23232754.581    -2539077.411 6  -1929409.15721
  21271032.925     2595952.733 6   2024353.82322
  23647699.940    -2905270.562 5  -1977081.25221
  22497074.5814   -9813833.59746  -7548355.62461
 91  4 25 21 25 44.9990000  0  6G18G 2G11G19G16G 6
  23331083.808    14172250.311 5  11029086.24121
  20981497.1124  -13414446.99747 -10378665.21963
  23236494.3704   -2519413.43346  -1914086.62061
  21273874.667     2610878.061 6   2035983.92722
  23650071.925    -2892817.932 5  -1967378.01821
  22490886.706    -9846345.503 6  -7573689.47221
 91  4 25 21 25 59.9990000  0  6G18G 2G11G19G16G 6
  23340445.9954   14221451.43945  11067424.70861
  20977397.315   -13435992.289 7 -10395453.73923
  23240263.5654   -2499612.10846  -1898657.06661
  21276724.714     2625860.178 6   2047658.29322
  23652459.487    -2880257.447 5  -1957590.74121
  22484701.198    -9878847.629 6  -7599015.70221
 91  4 25 21 26 14.9990000  0  6G18G 2G11G19G16G 6
  23349811.605    14270686.145 5  11105789.33221
  20973309.472   -13457466.773 7 -10412187.07723
  23244056.5734   -2479680.86946  -1883126.27661
  21279586.167     2640891.870 6   2059371.27822
  23654868.862    -2867596.704 5  -1947725.33621
  22478516.995    -9911347.152 6  -7624339.90821
 91  4 25 21 26 29.9990000  0  6G18G 2G11G19G16G 6
  23359189.1984   14319956.48645  11144181.73461
  20969237.308   -13478867.999 7 -10428863.33123
  23247872.558    -2459617.468 6  -1867492.49921
  21282456.105     2655975.774 6   2071124.95522
  23657297.214    -2854833.335 5  -1937779.95721
  22472334.1594   -9943841.62546  -7649660.16861
 91  4 25 21 26 44.9990000  0  6G18G 2G11G19G16G 6
  23368573.3154   14369260.04745  11182600.00061
  20965178.7304  -13500198.50547 -10445484.47763
  23251718.933    -2439424.572 6  -1851757.83521
  21285334.698     2671109.476 6   2082917.42622
  23659745.0974   -2841970.11645  -1927756.78061
  22466151.1904   -9976333.38346  -7674978.33361
 91  4 25 21 26 59.9990000  0  6G18G 2G11G19G16G 6
  23377959.9874   14418602.18745  11221048.35161
  20961132.4874  -13521452.52747 -10462046.02763
  23255586.972    -2419096.519 6  -1835917.82721
  21288225.9874    2686298.90246   2094753.33962
  23662215.464    -2829001.126 5  -1917651.18621
  22459970.901   -10008816.638 6  -7700289.84421
 91  4 25 21 27 14.9990000  0  6G18G 2G11G19G16G 6
  23387355.6594   14467980.84545  11259525.13761
  20957103.706   -13542631.717 7 -10478549.26723
  23259478.3004   -2398635.36246  -1819974.12461
  21291127.808     2701542.230 6   2106631.23822
  23664702.058    -2815928.643 5  -1907464.95221
  22453789.6514  -10041293.04346  -7725596.03961
 91  4 25 21 27 29.9990000  0  6G18G 2G11G19G16G 6
  23396759.472    14517395.929 5  11298030.32021
  20953088.487   -13563736.146 7 -10494994.25223
  23263396.9874   -2378041.26346  -1803926.80661
  21294035.128     2716839.606 6   2118551.25822
  23667209.6514   -2802752.89345  -1897198.24361
  22447610.0654  -10073762.56346  -7750896.86861
 91  4 25 21 27 44.9990000  0  6G18G 2G11G19G16G 6
  23406174.706    14566844.980 5  11336561.97821
  20949085.7454  -13584767.63547 -10511382.39163
  23267341.839    -2357316.209 6  -1787777.46721
  21296960.870     2732189.240 6   2130511.99822
  23669734.6284   -2789476.05145  -1886852.77261
  22441432.386   -10106226.943 6  -7776193.67121
 91  4 25 21 27 59.9990000  0  6G18G 2G11G19G16G 6
  23415588.6904   14616330.68145  11375122.18061
  20945096.042   -13605723.717 7 -10527711.78923
  23271309.011    -2336457.688 6  -1771524.12321
  21299888.565     2747593.939 6   2142515.64622
  23672282.261    -2776095.666 5  -1876426.59421
  22435256.675   -10138683.530 6  -7801484.43621
 91  4 25 21 28 14.9990000  0  6G18G 2G11G19G16G 6
  23425012.0034   14665847.38045  11413706.54161
  20941122.933   -13626609.686 7 -10543986.54423
  23275301.2764   -2315471.48746  -1755171.28461
  21302831.362     2763048.336 6   2154558.02122
  23674847.9404   -2762617.47945  -1865924.22761
  22429081.0504  -10171137.67546  -7826773.29561
 91  4 25 21 28 29.9990000  0  6G18G 2G11G19G16G 6
  23434441.448    14715400.163 5  11452319.02121
  20937161.8234  -13647420.17747 -10560202.48563
  23279323.620    -2294352.367 6  -1738714.86121
  21305781.8154    2778557.62346   2166643.16762
  23677429.222    -2749035.942 5  -1855341.32521
  22422905.433   -10203583.854 6  -7852055.95521
 91  4 25 21 28 44.9990000  0  6G18G 2G11G19G16G 6
  23443873.2144   14764990.76445  11490960.96161
  20933217.2534  -13668153.25447 -10576358.10563
  23283368.167    -2273098.704 6  -1722153.61721
  21308744.0814    2794123.93646   2178772.75462
  23680036.7614   -2735349.83345  -1844676.95061
  22416734.1284  -10236020.29046  -7877331.01961
 91  4 25 21 28 59.9990000  0  6G18G 2G11G19G16G 6
  23453323.987    14814615.296 5  11529629.36721
  20929285.8624  -13688812.51047 -10592456.19763
  23287437.073    -2251714.075 6  -1705490.31621
  21311719.6054    2809744.10846   2190944.30862
  23682658.3944   -2721562.96345  -1833934.05461
  22410561.5584  -10268450.24246  -7902601.01961
 91  4 25 21 29 14.9990000  0  6G18G 2G11G19G16G 6
  23462772.331    14864273.452 5  11568323.94821
  20925370.1444  -13709398.18147 -10608496.95563
  23291527.5894   -2230198.82746  -1688725.22761
  21314699.8944    2825417.91046   2203157.65262
  23685302.659    -2707675.537 5  -1823112.77421
  22404391.433   -10300873.847 6  -7927866.07821
 91  4 25 21 29 29.9990000  0  6G18G 2G11G19G16G 6
  23472226.308    14913966.519 5  11607045.74721
  20921466.417   -13729908.423 7 -10624478.93723
  23295650.8394   -2208551.33246  -1671857.10061
  21317691.308     2841147.181 6   2215414.21322
  23687966.7374   -2693685.99645  -1812211.97961
  22398223.5584  -10333289.24346  -7953124.74661
 91  4 25 21 29 44.9990000  0  6G18G 2G11G19G16G 6
  23481688.6594   14963693.82745  11645794.22161
  20917577.815   -13750343.856 7 -10640402.62623
  23299794.800    -2186772.358 6  -1654886.52321
  21320696.3784    2856931.42346   2227713.61162
  23690646.878    -2679594.994 5  -1801232.08221
  22392057.3084  -10365696.96046  -7978377.41461
 91  4 25 21 29 59.9990000  0  6G18G 2G11G19G16G 6
  23491156.870    15013453.989 5  11684568.30421
  20913701.7924  -13770705.59147 -10656268.88163
  23303964.2064   -2164863.30746  -1637814.57361
  21323710.2844    2872769.75046   2240055.15662
  23693345.847    -2665404.104 5  -1790174.34421
  22385892.565   -10398097.981 6  -8003624.89021
 91  4 25 21 30 14.9990000  0  6G18G 2G11G19G16G 6
  23500635.9954   15063248.89245  11723369.45661
  20909842.7224  -13790991.60547 -10672076.13963
  23308159.355    -2142822.279 6  -1620639.78221
  21326734.487     2888664.217 6   2252440.44122
  23696066.1364   -2651111.61145  -1779037.47161
  22379725.315   -10430490.282 6  -8028865.55621
 91  4 25 21 30 29.9990000  0  6G18G 2G11G19G16G 6
  23510117.698    15113076.520 5  11762196.09021
  20905996.589   -13811203.376 7 -10687825.54723
  23312378.605    -2120650.944 6  -1603363.48121
  21329769.6124    2904613.43446   2264868.39362
  23698808.9014   -2636719.08845  -1767822.61761
  22373564.433   -10462875.203 6  -8054100.48321
 91  4 25 21 30 44.9990000  0  6G18G 2G11G19G16G 6
  23519605.776    15162940.869 5  11801051.35221
  20902165.5504  -13831337.01347 -10703514.06163
  23316623.3314   -2098345.54446  -1585982.68061
  21332816.097     2920621.308 6   2277342.04722
  23701564.870    -2622222.943 5  -1756527.04821
  22367402.167   -10495248.732 6  -8079326.52521
 91  4 25 21 30 59.9990000  0  6G18G 2G11G19G16G 6
  23529096.5194   15212837.94045  11839932.12861
  20898347.3004  -13851396.09147 -10719144.48463
  23320892.237    -2075909.872 6  -1568500.38721
  21335877.7064    2936684.47946   2289858.79462
  23704340.558    -2607626.904 5  -1745153.64821
  22361245.792   -10527614.299 6  -8104546.35621
 91  4 25 21 31 14.9990000  0  6G18G 2G11G19G16G 6
  23538603.5194   15262768.72145  11878839.16061
  20894544.901   -13871379.257 7 -10734715.75923
  23325185.620    -2053342.922 6  -1550915.80921
  21338942.081     2952804.228 6   2302419.62322
  23707140.550    -2592930.164 5  -1733701.74721
  22355085.464   -10559970.729 6  -8129759.06621
 91  4 25 21 31 29.9990000  0  6G18G 2G11G19G16G 6
  23548113.964    15312733.703 5  11917772.82421
  20890755.0734  -13891285.91047 -10750227.40663
  23329505.7374   -2030644.09946  -1533228.44661
  21342016.1124    2968981.14946   2315025.00862
  23709954.3704   -2578132.16845  -1722170.97761
  22348932.386   -10592317.117 6  -8154963.96621
 91  4 25 21 31 44.9990000  0  6G18G 2G11G19G16G 6
  23557620.8474   15362727.70345  11956729.11261
  20886981.394   -13911121.127 7 -10765683.40223
  23333848.745    -2007818.696 6  -1515442.48021
  21345108.597     2985210.317 6   2327671.09222
  23712790.0974   -2563238.19345  -1710565.41361
  22342778.394   -10624658.496 6  -8180164.95821
 91  4 25 21 31 59.9990000  0  6G18G 2G11G19G16G 6
  23567139.8084   15412759.57445  11995714.91761
  20883222.230   -13930875.976 7 -10781076.76623
  23338218.620    -1984857.813 6  -1497550.91621
  21348207.1594    3001500.87946   2340365.02862
  23715645.3234   -2548239.29745  -1698878.08761
  22336625.5654  -10656985.82146  -8205354.99161
 91  4 25 21 32 14.9990000  0  6G18G 2G11G19G16G 6
  23576667.284    15462820.963 5  12034723.71821
  20879478.925   -13950558.312 7 -10796413.62323
  23342613.808    -1961769.571 6  -1479560.11721
  21351316.339     3017845.182 6   2353100.83222
  23718517.964    -2533143.923 5  -1687115.55321
  22330475.7224  -10689306.71546  -8230540.01261
 91  4 25 21 32 29.9990000  0  6G18G 2G11G19G16G 6
  23586206.6514   15512909.29445  12073753.52461
  20875744.7454  -13970170.62847 -10811695.92063
  23347031.847    -1938556.665 6  -1461472.19921
  21354435.651     3034240.771 6   2365876.59822
  23721404.276    -2517954.588 5  -1675279.86921
  22324326.6444  -10721623.61746  -8255721.92061
 91  4 25 21 32 44.9990000  0  6G18G 2G11G19G16G 6
  23595742.2064   15563026.64245  12112805.93361
  20872027.761   -13989710.188 7 -10826921.53023
  23351471.175    -1915216.769 6  -1443285.31021
  21357568.3004    3050690.28746   2378694.39062
  23724315.6834   -2502669.00145  -1663369.14361
  22318177.003   -10753933.848 6  -8280898.64621
 91  4 25 21 32 59.9990000  0  6G18G 2G11G19G16G 6
  23605280.776    15613171.633 5  12151879.86221
  20868322.362   -14009178.498 7 -10842091.61423
  23355938.698    -1891751.534 6  -1425000.76221
  21360708.550     3067192.478 6   2391553.22622
  23727241.433    -2487288.691 5  -1651384.63321
  22312028.8864  -10786238.91946  -8306071.34461
 91  4 25 21 33 14.9990000  0  6G18G 2G11G19G16G 6
  23614831.495    15663343.261 5  12190974.58221
  20864631.409   -14028576.065 7 -10857206.58123
  23360425.870    -1868161.489 6  -1406618.95021
  21363859.136     3083746.865 6   2404452.73622
  23730184.542    -2471814.454 5  -1639326.90521
  22305882.8864  -10818539.00446  -8331240.14761
 91  4 25 21 33 29.9990000  0  6G18G 2G11G19G16G 6
  23624380.8784   15713537.05445  12230086.55361
  20860952.901   -14047907.332 7 -10872269.88223
  23364936.5504   -1844451.34846  -1388143.57061
  21367016.605     3100349.142 6   2417389.55822
  23733148.3004   -2456251.18545  -1627199.82961
  22299736.042   -10850838.528 6  -8356408.51521
 91  4 25 21 33 44.9990000  0  6G18G 2G11G19G16G 6
  23633933.534    15763755.848 5  12269218.02221
  20857285.855   -14067169.183 7 -10887279.09323
  23369471.089    -1820618.288 6  -1369572.40621
  21370186.886     3117002.504 6   2430366.19222
  23736128.253    -2440595.763 5  -1615000.92021
  22293591.503   -10883134.303 6  -8381573.98121
 91  4 25 21 33 59.9990000  0  6G18G 2G11G19G16G 6
  23643497.1054   15813996.50045  12308366.50361
  20853634.386   -14086364.604 7 -10902236.54423
  23374030.0814   -1796665.46646  -1350907.91061
  21373363.128     3133704.175 6   2443380.46522
  23739121.878    -2424851.427 5  -1602732.74721
  22287447.198   -10915429.192 6  -8406738.73421
 91  4 25 21 34 14.9990000  0  6G18G 2G11G19G16G 6
  23653059.8234   15864260.98145  12347533.56661
  20849995.105   -14105491.340 7 -10917140.46923
  23378611.589    -1772590.724 6  -1332148.41821
  21376552.417     3150456.311 6   2456434.06322
  23742138.9954   -2409016.44745  -1590393.93961
  22281301.534   -10947720.932 6  -8431901.03521
 91  4 25 21 34 29.9990000  0  6G18G 2G11G19G16G 6
  23662630.917    15914550.675 5  12386720.25921
  20846367.3394  -14124547.72947 -10931989.58363
  23383217.597    -1748392.633 6  -1313292.81821
  21379749.714     3167260.814 6   2469528.45922
  23745170.276    -2393089.288 5  -1577983.30421
  22275157.0734  -10980007.56346  -8457059.35361
 91  4 25 21 34 44.9990000  0  6G18G 2G11G19G16G 6
  23672208.245    15964860.240 5  12425922.44321
  20842754.276   -14143539.137 7 -10946788.05823
  23387843.980    -1724076.704 6  -1294345.38621
  21382958.519     3184112.464 6   2482659.60722
  23748213.8474   -2377075.32145  -1565505.05061
  22269014.1124  -11012294.45846  -8482217.88761
 91  4 25 21 34 59.9990000  0  6G18G 2G11G19G16G 6
  23681785.019    16015195.365 5  12465144.56521
  20839153.690   -14162459.630 7 -10961531.27623
  23392494.534    -1699637.084 6  -1275301.58021
  21386173.550     3201017.400 6   2495832.26322
  23751279.9094   -2360968.88245  -1552954.70661
  22262869.433   -11044575.401 6  -8507371.76421
 91  4 25 21 35 14.9990000  0  6G18G 2G11G19G16G 6
  23691368.5114   16065555.93645  12504386.49261
  20835567.0584  -14181308.94247 -10976219.02263
  23397167.4724   -1675073.65446  -1256161.28461
  21389400.753     3217975.980 6   2509046.72122
  23754362.7694   -2344769.98845  -1540332.32161
  22256726.558   -11076849.979 6  -8532520.68221
 91  4 25 21 35 29.9990000  0  6G18G 2G11G19G16G 6
  23700951.4564   16115940.03445  12543646.76861
  20831993.253   -14200088.575 7 -10990852.47723
  23401866.6754   -1650388.27046  -1236925.98261
  21392635.394     3234986.698 6   2522301.80422
  23757463.753    -2328480.270 5  -1527639.18721
  22250587.7534  -11109119.81946  -8557665.91661
 91  4 25 21 35 44.9990000  0  6G18G 2G11G19G16G 6
  23710548.8944   16166348.13345  12582925.73161
  20828433.081   -14218797.791 7 -11005431.06623
  23406586.784    -1625580.585 6  -1217595.37821
  21395887.753     3252050.282 6   2535598.09122
  23760583.339    -2312099.304 5  -1514874.93321
  22244447.4014  -11141384.14746  -8582806.85861
 91  4 25 21 35 59.9990000  0  6G18G 2G11G19G16G 6
  23720146.355    16216776.413 5  12622220.44521
  20824883.878   -14237440.396 7 -11019957.74623
  23411331.2374   -1600654.39146  -1198172.39561
  21399143.409     3269163.242 6   2548932.84822
  23763715.3944   -2295631.23545  -1502042.79761
  22238308.269   -11173646.457 6  -8607946.23321
 91  4 25 21 36 14.9990000  0  6G18G 2G11G19G16G 6
  23729741.8554   16267230.00245  12661534.86461
  20821352.573   -14256011.302 7 -11034428.55723
  23416096.878    -1575604.727 6  -1178653.23621
  21402407.120     3286330.854 6   2562310.18922
  23766868.0894   -2279071.24045  -1489139.05461
  22232169.3944  -11205901.48246  -8633079.92961
 91  4 25 21 36 29.9990000  0  6G18G 2G11G19G16G 6
  23739349.4404   16317711.78745  12700871.24861
  20817833.065   -14274507.164 7 -11048840.89023
  23420891.401    -1550428.486 6  -1159035.43621
  21405684.534     3303556.632 6   2575732.85422
  23770034.5894   -2262416.25345  -1476161.28861
  22226034.4014  -11238145.80546  -8658205.28061
 91  4 25 21 36 44.9990000  0  6G18G 2G11G19G16G 6
  23748964.9954   16368218.50545  12740227.06261
  20814326.5264  -14292930.99947 -11063197.09863
  23425703.4724   -1525129.03046  -1139321.63161
  21408978.519     3320837.239 6   2589198.24122
  23773223.792    -2245669.441 5  -1463111.94521
  22219896.4564  -11270382.50146  -8683324.68961
 91  4 25 21 36 59.9990000  0  6G18G 2G11G19G16G 6
  23758584.355    16418755.062 5  12779606.12821
  20810834.144   -14311277.284 7 -11077492.88023
  23430540.5114   -1499701.12446  -1119507.71561
  21412274.862     3338178.323 6   2602710.75922
  23776428.972    -2228825.838 5  -1449987.19121
  22213768.183   -11302606.018 6  -8708433.82121
 91  4 25 21 37 14.9990000  0  6G18G 2G11G19G16G 6
  23768199.6514   16469317.88745  12819005.67961
  20807356.7454  -14329549.67947 -11091731.08363
  23435404.7304   -1474148.48146  -1099596.59761
  21415586.815     3355576.389 6   2616267.66722
  23779651.6054   -2211889.05545  -1436789.84861
  22207637.6444  -11334819.66346  -8733535.25961
 91  4 25 21 37 29.9990000  0  6G18G 2G11G19G16G 6
  23777830.511    16519904.160 5  12858423.47121
  20803896.1444  -14347751.01047 -11105913.91363
  23440288.3314   -1448474.00046  -1079590.59061
  21418907.636     3373028.814 6   2629866.93722
  23782890.401    -2194862.159 5  -1423522.26621
  22201509.5734  -11367026.16246  -8758631.14561
 91  4 25 21 37 44.9990000  0  6G18G 2G11G19G16G 6
  23787458.2374   16570511.76345  12897857.91761
  20800443.4954  -14365882.84147 -11120042.58163
  23445198.073    -1422679.673 6  -1059491.15221
  21422239.362     3390533.957 6   2643507.29222
  23786147.159    -2177746.759 5  -1410185.73321
  22195381.542   -11399227.066 6  -8783722.66021
 91  4 25 21 37 59.9990000  0  6G18G 2G11G19G16G 6
  23797094.870    16621145.322 5  12937312.55321
  20797006.909   -14383940.364 7 -11134113.35323
  23450131.3474   -1396760.88146  -1039294.72961
  21425578.081     3408096.833 6   2657192.62622
  23789423.0974   -2160538.55545  -1396776.86261
  22189254.136   -11431417.443 6  -8808805.95121
 91  4 25 21 38 14.9990000  0  6G18G 2G11G19G16G 6
  23806732.058    16671801.153 5  12976784.57121
  20793585.276   -14401927.239 7 -11148129.07723
  23455085.933    -1370721.523 6  -1019004.39721
  21428933.7304    3425713.92346   2670920.21862
  23792716.097    -2143241.614 5  -1383298.87921
  22183131.8084  -11463600.87646  -8833883.85261
 91  4 25 21 38 29.9990000  0  6G18G 2G11G19G16G 6
  23816377.675    16722480.677 5  13016275.04521
  20790175.519   -14419841.296 7 -11162088.05723
  23460060.667    -1344559.703 6   -998618.60921
  21432296.511     3443387.420 6   2684691.75522
  23796024.7374   -2125854.01345  -1369750.23961
  22177005.2224  -11495775.06146  -8858954.55561
 91  4 25 21 38 44.9990000  0  6G18G 2G11G19G16G 6
  23826026.105    16773190.517 5  13055789.15621
  20786783.1674  -14437675.92747 -11175985.14363
  23465064.269    -1318268.955 6   -978132.37821
  21435673.964     3461124.042 6   2698512.47922
  23799350.167    -2108369.168 5  -1356125.80021
  22170888.511   -11527933.323 6  -8884012.83521
 91  4 25 21 38 59.9990000  0  6G18G 2G11G19G16G 6
  23835680.4254   16823927.60245  13095324.48261
  20783401.573   -14455434.081 7 -11189822.64523
  23470096.0894   -1291852.37946   -957548.05361
  21439058.034     3478920.997 6   2712380.22122
  23802697.2454   -2090790.26045  -1342428.12761
  22164772.2534  -11560078.31046  -8909060.78161
 91  4 25 21 39 14.9990000  0  6G18G 2G11G19G16G 6
  23845342.3084   16874693.69545  13134882.41461
  20780038.7374  -14473113.77847 -11203599.00263
  23475145.5264   -1265308.12946   -936864.26861
  21442457.042     3496780.399 6   2726296.61822
  23806059.7374   -2073115.89945  -1328656.03261
  22158656.8154  -11592208.01946  -8934096.82961
 91  4 25 21 39 29.9990000  0  6G18G 2G11G19G16G 6
  23855007.878    16925488.550 5  13174462.76721
  20776689.440   -14490715.206 7 -11217314.38123
  23480219.901    -1238636.597 6   -916081.34121
  21445864.456     3514702.201 6   2740261.64322
  23809444.761    -2055346.095 5  -1314809.55921
  22152545.8004  -11624322.39046  -8959120.92061
 91  4 25 21 39 44.9990000  0  6G18G 2G11G19G16G 6
  23864681.526    16976310.585 5  13214064.29221
  20773354.7374  -14508239.75547 -11230969.84163
  23485319.3784   -1211839.26846   -895200.34861
  21449289.722     3532685.314 6   2754274.44222
  23812843.894    -2037482.215 5  -1300889.82921
  22146438.7144  -11656422.55346  -8984133.94161
 91  4 25 21 39 59.9990000  0  6G18G 2G11G19G16G 6
  23874357.745    17027158.438 5  13253685.95121
  20770033.519   -14525688.439 7 -11244566.19423
  23490441.198    -1184917.488 6   -874222.37721
  21452720.480     3550728.756 6
  23816259.339    -2019525.909 5
  22140331.7064  -11688509.57146  -9009136.70961
 91  4 25 21 40 14.9990000  0  6G18G 2G11G19G16G 6
  23884039.1054   17078034.42645  13293329.50961
  20766728.355   -14543058.464 7 -11258101.25723
  23495592.6904   -1157868.82046   -853145.56461
  21456167.948     3568835.097 6
  23819693.456    -2001474.754 5
  22134228.4484  -11720580.72946  -9034127.13261
 91  4 25 21 40 29.9990000  0  6G18G 2G11G19G16G 6
  23893726.222    17128936.896 5  13332993.72221
  20763438.3084  -14560351.41547 -11271576.25363
  23500760.917    -1130694.837 6   -831971.09721
  21459624.222     3587003.123 6
  23823147.308    -1983330.449 5
  22128127.3784  -11752637.30546  -9059106.17961
 91  4 25 21 40 44.9990000  0  6G18G 2G11G19G16G 6
  23903418.9874   17179867.94845  13372680.20861
  20760162.1124  -14577564.87947 -11284989.31763
  23505957.3554   -1103393.56446   -810697.43061
  21463094.948     3605235.144 6
  23826620.089    -1965091.056 5
  22122032.4404  -11784676.84646  -9084071.96161
 91  4 25 21 40 59.9990000  0  6G18G 2G11G19G16G 6
  23913118.1984   17230823.33545  13412385.62861
  20756900.659   -14594703.102 7 -11298343.75123
  23511172.948    -1075969.360 6   -789327.96321
  21466573.690     3623527.158 6
  23830107.394    -1946760.908 5
  22115935.9094  -11816703.34446  -9109027.57661
 91  4 25 21 41 14.9990000  0  6G18G 2G11G19G16G 6
  23922808.128    17281804.250 5  13452110.94721
  20753653.315   -14611764.470 7 -11311638.30323
  23516417.9014   -1048420.89446   -767861.69761
  21470068.011     3641880.811 6
  23833609.190    -1928338.470 5
  22109845.940   -11848715.114 6  -9133971.71021
 91  4 25 21 41 29.9990000  0  6G18G 2G11G19G16G 6
  23932519.214    17332816.527 5  13491860.75521
  20750424.925   -14628742.937 7 -11324868.25323
  23521683.3784   -1020742.24046   -746293.96361
  21473575.503     3660302.271 6   2853716.10322
  23837137.4334   -1909818.09745
  22103757.0344  -11880705.99146  -9158899.57261
 91  4 25 21 41 44.9990000  0  6G18G 2G11G19G16G 6
  23942232.5654   17383854.26045  13531630.33861
  20747206.167   -14645644.289 7 -11338038.11423
  23526978.003     -992939.521 6   -724629.56421
  21477092.901     3678785.869 6   2868118.89122
  23840681.917    -1891205.943 5  -1258127.07021
  22097673.6204  -11912681.55646  -9183815.50661
 91  4 25 21 41 59.9990000  0  6G18G 2G11G19G16G 6
  23951948.323    17434918.589 5  13571420.65121
  20744005.5344  -14662466.88647 -11351146.60463
  23532291.105     -965011.350 6   -702867.42321
  21480618.690     3697333.300 6   2882571.41322
  23844235.784    -1872500.818 5  -1243551.82621
  22091590.9174  -11944640.14646  -9208718.20861
 91  4 25 21 42 14.9990000  0  6G18G 2G11G19G16G 6
  23961670.183    17486004.630 5  13611227.92721
  20740818.151   -14679215.747 7 -11364197.64023
  23537626.8394    -936962.91946   -681011.53261
  21484161.550     3715939.636 6   2897069.83622
  23847813.190    -1853707.655 5  -1228907.97021
  22085511.4874  -11976586.66346  -9233611.49861
 91  4 25 21 42 29.9990000  0  6G18G 2G11G19G16G 6
  23971402.151    17537117.615 5  13651056.17521
  20737645.261   -14695885.511 7 -11377187.04823
  23542989.394     -908788.915 6   -659057.85321
  21487715.253     3734610.535 6   2911618.57622
  23851401.847    -1834821.263 4  -1214191.44921
  22079436.9724  -12008515.48146  -9258491.00461
 91  4 25 21 42 44.9990000  0  6G18G 2G11G19G16G 6
  23981126.9564   17588257.67745  13690905.49761
  20734488.651   -14712475.456 7 -11390114.25223
  23548372.870     -880489.002 6   -637006.06621
  21491280.276     3753346.878 6   2926218.30122
  23855022.151    -1815841.357 5  -1199402.07121
  22073362.7374  -12040425.74646  -9283356.05061
 91  4 25 21 42 59.9990000  0  6G18G 2G11G19G16G 6
  23990861.1514   17639423.34645  13730774.79361
  20731346.1904  -14728987.06847 -11402980.41663
  23553784.495     -852064.837 6   -614857.38721
  21494857.862     3772147.074 6   2940867.78822
  23858645.9174   -1796769.73744  -1184541.22261
  22067294.5424  -12072318.92546  -9308207.78861
 91  4 25 21 43 14.9990000  0  6G18G 2G11G19G16G 6
  24000608.378    17690616.842 5  13770665.79021
  20728219.651   -14745417.911 7 -11415783.65023
  23559219.3394    -823514.00646   -592610.04761
  21498447.558     3791013.873 6   2955569.16922
  23862293.2924   -1777604.23244  -1169607.21661
  22061226.151   -12104192.342 6  -9333044.10921
 91  4 25 21 43 29.9990000  0  6G18G 2G11G19G16G 6
  24010358.7224   17741837.26645  13810577.73961
  20725108.323   -14761768.428 7 -11428524.28623
  23564675.4404    -794837.32146   -570264.66561
  21502048.378     3809946.869 6   2970322.14522
  23865959.6754   -1758345.41644  -1154600.50261
  22055167.347   -12136046.292 6  -9357865.29121
 91  4 25 21 43 44.9990000  0  6G18G 2G11G19G16G 6
  24020106.769    17793085.690 5  13850511.52721
  20722011.081   -14778037.299 7 -11441201.30523
  23570154.573     -766033.826 6   -547820.44021
  21505668.417     3828947.399 6   2985127.73522
  23869643.042    -1738992.106 4  -1139520.14421
  22049110.0654  -12167879.30246  -9382670.13961
 91  4 25 21 43 59.9990000  0  6G18G 2G11G19G16G 6
  24029864.245    17844357.285 5  13890463.37421
  20718932.651   -14794229.402 7 -11453818.50423
  23575659.6364    -737108.62846   -525281.38561
  21509290.308     3848010.524 6   2999982.09822
  23873340.464    -1719549.561 4  -1124370.28321
  22043054.534   -12199696.259 6  -9407462.48421
 91  4 25 21 44 14.9990000  0  6G18G 2G11G19G16G 6
  24039625.5504   17895658.90245  13930438.60861
  20715867.7374  -14810337.67147 -11466370.37863
  23581188.058     -708054.697 6   -502642.02921
  21512937.5974    3867143.64846   3014891.01462
  23877062.526    -1700010.921 4  -1109145.52321
  22037003.1834  -12231489.85246  -9432236.62861
 91  4 25 21 44 29.9990000  0  6G18G 2G11G19G16G 6
  24049399.409    17946985.061 5  13970432.93421
  20712815.034   -14826367.534 7 -11478861.15623
  23586741.9874    -678877.62646   -479906.73361
  21516588.019     3886341.591 6   3029850.42522
  23880796.6284   -1680381.68544  -1093850.17061
  22030958.2844  -12263265.28646  -9456996.61461
 91  4 25 21 44 44.9990000  0  6G18G 2G11G19G16G 6
  24059163.7144   17998336.06645  14010446.68161
  20709780.159   -14842317.800 7 -11491289.91623
  23592316.7304    -649576.63646   -457074.83661
  21520256.0654    3905605.42246   3044861.18862
  23884550.690    -1660661.285 4  -1078483.77521
  22024915.4724  -12295021.35746  -9481741.50561
 91  4 25 21 44 59.9990000  0  6G18G 2G11G19G16G 6
  24068946.6754   18049712.06745  14050479.86661
  20706760.0894  -14858188.64247 -11503656.77863
  23597912.6204    -620152.11446   -434146.68661
  21523931.323     3924935.114 6   3059923.26422
  23888320.448    -1640850.182 4  -1063046.70221
  22018872.745   -12326757.936 6  -9506471.23421
 91  4 25 21 45 14.9990000  0  6G18G 2G11G19G16G 6
  24078726.480    18101109.533 5  14090529.78421
  20703753.808   -14873983.414 7 -11515964.36923
  23603538.9484    -590607.48646   -411124.99261
  21527622.347     3944327.275 6   3075034.02122
  23892104.972    -1620951.589 4  -1047541.46821
  22012837.894   -12358478.331 6  -9531188.34521
 91  4 25 21 45 29.9990000  0  6G18G 2G11G19G16G 6
  24088508.894    18152527.766 5  14130595.89521
  20700763.456   -14889702.203 7 -11528212.75723
  23609183.940     -560943.289 6   -388010.06921
  21531322.995     3963781.893 6   3090193.44422
  23895908.9334   -1600966.16244  -1031968.56061
  22006807.105   -12390182.607 6  -9555892.88921
 91  4 25 21 45 44.9990000  0  6G18G 2G11G19G16G 6
  24098298.987    18203971.880 5  14170682.16121
  20697789.940   -14905339.578 7 -11540397.70123
  23614850.0734    -531154.25746   -364797.91661
  21535041.284     3983304.601 6   3105405.92522
  23899731.167    -1580888.950 4  -1016324.10421
  22000778.355   -12421865.191 6  -9580580.53721
 91  4 25 21 45 59.9990000  0  6G18G 2G11G19G16G 6
  24108097.456    18255437.211 5  14210784.97921
  20694828.065   -14920900.479 7 -11552523.06123
  23620543.573     -501245.355 6   -341492.33521
  21538763.706     4002890.730 6   3120667.82222
  23903568.2374   -1560724.91244  -1000612.03861
  21994751.8154  -12453530.55246  -9605254.75261
 91  4 25 21 46 14.9990000  0  6G18G 2G11G19G16G 6
  24117887.698    18306918.753 5  14250900.37821
  20691879.589   -14936389.587 7 -11564592.47123
  23626258.144     -471221.608 6   -318097.28121
  21542506.495     4022535.710 6   3135975.58922
  23907417.823    -1540478.838 4   -984836.03921
  21988728.386   -12485183.349 6  -9629919.18921
 91  4 25 21 46 29.9990000  0  6G18G 2G11G19G16G 6
  24127686.058    18358418.650 5  14291030.15621
  20688945.714   -14951804.714 7 -11576604.23423
  23631992.8394    -441081.07446   -294611.21861
  21546250.331     4042241.675 6   3151330.86622
  23911285.058    -1520148.894 4   -968994.67721
  21982707.097   -12516821.335 6  -9654572.09021
 91  4 25 21 46 44.9990000  0  6G18G 2G11G19G16G 6
  24137489.8474   18409942.20445  14331178.28461
  20686028.019   -14967139.773 7 -11588553.60823
  23637750.425     -410817.948 6   -271029.63321
  21550018.690     4062014.889 6   3166738.54722
  23915173.3084   -1499729.25944   -953083.44961
  21976690.925   -12548438.352 6  -9679208.64621
 91  4 25 21 46 59.9990000  0  6G18G 2G11G19G16G 6
  24147299.581    18461487.857 5  14371343.69021
  20683123.183   -14982396.381 7 -11600441.85023
  23643530.5734    -380434.11146   -247353.97361
  21553790.292     4081853.824 6   3182197.43822
  23919075.2304   -1479221.70044   -937103.63961
  21970678.4644  -12580035.75546  -9703829.93361
 91  4 25 21 47 14.9990000  0  6G18G 2G11G19G16G 6
  24157114.308    18513055.362 5  14411526.10221
  20680237.050   -14997574.703 7 -11612269.09523
  23649337.448     -349929.862 6   -223584.49821
  21557580.573     4101758.484 6   3197707.54322
  23922994.3394   -1458626.74744   -921055.80561
  21964668.1754  -12611613.59146  -9728435.95861
 91  4 25 21 47 29.9990000  0  5G 2G11G19G16G 6
  20677362.683   -15012675.196 7 -11624035.68823
  23655165.7144    -319305.86846   -199721.70361
  21561380.042     4121728.508 6   3213268.58422
  23926930.003    -1437945.313 4   -904940.54021
  21958661.839   -12643172.121 6  -9753026.94521
 91  4 25 21 47 44.9990000  0  5G 2G11G19G16G 6
  20674505.011   -15027697.698 7 -11635741.51623
  23661013.940     -288562.298 6   -175765.75521
  21565193.683     4141764.055 6   3228880.67922
  23930878.8554   -1417177.43644   -888757.95861
  21952663.8704  -12674711.03346  -9777602.65161
 91  4 25 21 47 59.9990000  0  5G 2G11G19G16G 6
  20671659.308   -15042639.400 7 -11647384.38123
  23666889.425     -257696.658 6   -151714.67921
  21569018.315     4161867.933 6   3244546.01822
  23934854.3084   -1396320.52744   -872505.96461
  21946665.605   -12706227.560 6  -9802160.91421
 91  4 25 21 48 14.9990000  0  5G 2G11G19G16G 6
  20668832.644   -15057503.829 7 -11658967.03523
  23672784.417     -226712.416 6   -127571.14521
  21572855.948     4182037.111 6   3260262.24322
  23938833.7304   -1375378.04144   -856187.29861
  21940671.9094  -12737724.73546  -9826704.10761
 91  4 25 21 48 29.9990000  0  5G 2G11G19G16G 6
  20666018.050   -15072290.531 7 -11670489.12323
  23678704.019     -195609.336 6   -103335.07021
  21576712.503     4202272.097 6   3276029.74522
  23942840.222    -1354349.842 4   -839801.85321
  21934680.472   -12769201.943 6  -9851231.72721
 91  4 25 21 48 44.9990000  0  5G 2G11G19G16G 6
  20663220.237   -15086995.254 7 -11681947.32523
  23684645.2764    -164383.69746    -79003.49761
  21580574.112     4222576.998 6   3291851.72822
  23946860.3864   -1333232.20845   -823346.71961
  21928693.136   -12800654.991 6  -9875740.53821
 91  4 25 21 48 59.9990000  0  5G 2G11G19G16G 6
  20660437.620   -15101622.856 8 -11693345.43923
  23690611.073     -133040.486 6    -54580.28521
  21584446.433     4242947.122 6   3307724.53122
  23950893.503    -1312030.154 4   -806825.80521
  21922712.480   -12832088.552 6  -9900234.14421
 91  4 25 21 49 14.9990000  0  5G 2G11G19G16G 6
  20657667.894   -15116173.808 7 -11704683.82123
  23696596.417     -101580.281 6    -30065.87821
  21588337.714     4263382.244 6   3323647.97822
  23954941.214    -1290744.376 5   -790239.65621
  21916734.4254  -12863502.75846  -9924712.67461
 91  4 25 21 49 29.9990000  0  5G 2G11G19G16G 6
  20654915.112   -15130644.044 7 -11715959.31023
  23702608.769      -69999.345 6     -5457.44021
  21592237.761     4283886.540 6   3339625.33822
  23959013.1054   -1269371.58645   -773585.67761
  21910760.5264  -12894893.48346  -9949172.91561
 91  4 25 21 49 44.9990000  0  4G 2G11G19G 6
  20652176.230   -15145033.108 7 -11727171.54323
  23708640.1834     -38297.60646     19245.15061
  21596156.456     4304460.299 6   3355656.82022
  21904792.1984  -12926260.29046  -9973614.51861
 91  4 25 21 49 59.9990000  0  4G 2G11G19G 6
  20649452.315   -15159343.666 7 -11738322.60423
  23714695.4404      -6477.79746     44039.72161
  21600079.753     4325101.043 6   3371740.49422
  21898826.1054  -12957605.49846  -9998039.28961
 91  4 25 21 50 14.9990000  0  4G 2G11G19G 6
  20646743.378   -15173574.044 7 -11749411.19323
  23720771.901       25461.600 5     68927.49621
  21604023.425     4345810.771 6   3387877.92222
  21892866.987   -12988927.228 6 -10022445.75621
 91  4 25 21 50 29.9990000  0  4G 2G11G19G 6
  20644052.995   -15187716.413 7 -11760431.20323
  23726874.7374      57528.19346     93914.39461
  21607976.690     4366597.368 6   3404075.25522
  21886914.3624  -13020217.49246 -10046827.71361
 91  4 25 21 50 44.9990000  0  4G 2G11G19G 6
  20641375.894   -15201776.782 7 -11771387.30923
  23732999.6284      89715.57046    118995.37061
  21611946.347     4387454.838 6   3420327.81222
  21880964.0264  -13051482.21546 -10071189.77361
 91  4 25 21 50 59.9990000  0  4G 2G11G19G 6
  20638716.628   -15215750.338 7 -11782275.78023
  23739151.222      122028.309 6    144174.04121
  21615926.151     4408387.921 6   3436639.28022
  21875019.417   -13082716.476 6 -10095528.07821
 91  4 25 21 51 14.9990000  0  4G 2G11G19G 6
  20636076.417   -15229644.550 7 -11793102.42123
  23745322.011      154458.713 6    169444.42221
  21619925.855     4429389.370 6   3453004.02722
  21869080.1904  -13113927.48046 -10119848.27261
 91  4 25 21 51 29.9990000  0  4G 2G11G19G 6
  20633446.355   -15243456.847 7 -11803865.22723
  23751515.1514     187008.96246    194808.17861
  21623935.909     4450461.949 6   3469424.20122
  21863145.144   -13145112.590 6 -10144148.28921
 91  4 25 21 51 44.9990000  0  4G 2G11G19G 6
  20630833.487   -15257185.005 7 -11814562.47723
  23757730.706      219681.324 6    220267.08721
  21627963.425     4471608.118 6   3485901.71822
  21857218.034   -13176269.232 6 -10168426.11621
 91  4 25 21 51 59.9990000  0  4G 2G11G19G 6
  20628236.956   -15270829.307 7 -11825194.38223
  23763969.394      252475.195 6    245820.64121
  21631998.7614    4492827.59146   3502436.34362
  21851294.3624  -13207397.60846 -10192681.93461
 91  4 25 21 52 14.9990000  0  4G 2G11G19G 6
  20625657.480   -15284388.527 7 -11835759.98923
  23770235.0584     285391.38146    271469.56561
  21636049.331     4514121.814 6   3519029.21922
  21845375.136   -13238496.316 6 -10216914.61621
 91  4 25 21 52 29.9990000  0  4G 2G11G19G 6
  20623092.573   -15297863.033 7 -11846259.59023
  23776524.3624     318429.54246    297213.52261
  21640114.261     4535490.616 6   3535680.21922
  21839462.9174  -13269565.40146 -10241124.22661
 91  4 25 21 52 44.9990000  0  4G 2G11G19G 6
  20620545.042   -15311255.662 7 -11856695.38723
  23782832.1754     351586.62246    323050.10761
  21644195.5734    4556931.35346   3552387.26262
  21833555.151   -13300607.651 6 -10265312.90821
 91  4 25 21 52 59.9990000  0  4G 2G11G19G 6
  20618010.675   -15324564.501 7 -11867065.89823
  23789167.050      384864.124 6    348980.54721
  21648290.776     4578445.813 6   3569151.75722
  21827654.9724  -13331621.07346 -10289479.14961
 91  4 25 21 53 14.9990000  0  4G 2G11G19G 6
  20615495.190   -15337791.614 7 -11877372.72223
  23795520.050      418259.739 6    375003.01921
  21652399.706     4600031.886 6   3585972.05522
  21821756.9954  -13362607.49446 -10313624.34361
 91  4 25 21 53 29.9990000  0  4G 2G11G19G 6
  20612994.472   -15350932.340 7 -11887612.23223
  23801900.206      451777.891 6    401120.99621
  21656520.706     4621694.393 6   3602851.90422
  21815868.386   -13393562.097 6 -10337744.74521
 91  4 25 21 53 44.9990000  0  4G 2G11G19G 6
  20610510.237   -15363982.775 7 -11897781.38823
  23808300.4804     485422.31846    427337.32561
  21660658.206     4643437.124 6   3619794.26722
  21809983.4014  -13424480.82846 -10361837.19361
 91  4 25 21 53 59.9990000  0  4G 2G11G19G 6
  20608044.065   -15376948.012 7 -11907884.14723
  23814726.425      519187.638 6    453647.88721
  21664811.386     4665255.227 6   3636795.35722
  21804106.519   -13455368.535 6 -10385905.45421
 91  4 25 21 54 14.9990000  0  4G 2G11G19G 6
  20605591.386   -15389828.743 7 -11917921.06123
  23821175.4874     553072.97546    480051.97061
  21668978.456     4687148.241 6   3653854.83022
  21798234.651   -13486225.720 6 -10409949.94121
 91  4 25 21 54 29.9990000  0  4G 2G11G19G 6
  20603156.956   -15402621.123 7 -11927889.13323
  23827647.120      587081.833 6    506552.29921
  21673157.659     4709120.034 6   3670975.68722
  21792367.9174  -13517048.43546 -10433967.56861
 91  4 25 21 54 44.9990000  0  4G 2G11G19G 6
  20600740.769   -15415326.398 7 -11937789.32723
  23834139.2844     621212.68445    533147.66061
  21677352.128     4731169.542 6   3688157.09722
  21786510.378   -13547837.664 6 -10457959.10121
 91  4 25 21 54 59.9990000  0  4G 2G11G19G 6
  20598338.253   -15427946.233 7 -11947622.94623
  23840659.597      655463.505 6    559836.52621
  21681563.0814    4753294.99446   3705397.67862
  21780655.8234  -13578595.13346 -10481925.89861
 91  4 25 21 55 14.9990000  0  4G 2G11G19G 6
  20595953.175   -15440479.755 7 -11957389.31323
  23847196.198      689835.004 6    586619.44621
  21685787.7534    4775497.51746   3722698.32062
  21774809.417   -13609319.504 6 -10505866.87621
 91  4 25 21 55 29.9990000  0  4G 2G11G19G 6
  20593583.792   -15452927.825 7 -11967089.09223
  23853763.550      724326.344 6    613495.70921
  21690027.073     4797776.668 6   3740058.67222
  21768970.4254  -13640011.33646 -10529782.52861
 91  4 25 21 55 44.9990000  0  4G 2G11G19G 6
  20591232.620   -15465286.451 7 -11976719.17123
  23860349.7694     758940.94046    640468.01861
  21694283.8554    4820136.36446   3757481.78462
  21763136.183   -13670666.699 6 -10553669.75521
 91  4 25 21 55 59.9990000  0  4G 2G11G19G 6
  20588899.050   -15477559.173 7 -11986282.31423
  23866960.9174     793675.05346    667533.48261
  21698554.019     4842573.067 6   3774964.90822
  21757307.9404  -13701288.89246 -10577531.12861
 91  4 25 21 56 14.9990000  0  4G 2G11G19G 6
  20586579.050   -15489743.465 7 -11995776.55222
  23873593.2144     828531.25445    694694.08961
  21702839.6904    4865089.56546   3792510.20362
  21751487.9404  -13731875.15346 -10601364.51361
 91  4 25 21 56 29.9990000  0  4G 2G11G19G 6
  20584278.730   -15501832.895 7 -12005196.86823
  23880249.808      863515.561 6    721954.49221
  21707137.0504    4887692.30046   3810122.69762
  21745676.456   -13762418.848 6 -10625164.72221
 91  4 25 21 56 44.9990000  0  4G 2G11G19G 6
  20581995.355   -15513836.195 7 -12014550.07423
  23886931.019      898618.964 6    749307.68421
  21711455.261     4910372.595 6   3827795.62922
  21739870.0894  -13792928.65346 -10648938.52561
 91  4 25 21 56 59.9990000  0  4G 2G11G19G 6
  20579727.050   -15525750.291 7 -12023833.76723
  23893633.0194     933844.39046    776755.99161
  21715786.730     4933133.760 6   3845531.58322
  21734071.855   -13823401.101 6 -10672683.21821
 91  4 25 21 57 14.9990000  0  4G 2G11G19G 6
  20577475.198   -15537578.886 7 -12033050.83823
  23900360.456      969187.850 6    804296.28921
  21720132.042     4955972.064 6   3863327.64422
  21728279.651   -13853839.965 6 -10696401.73621
 91  4 25 21 57 29.9990000  0  4G 2G11G19G 6
  20575241.519   -15549322.785 8 -12042201.91023
  23907106.026     1004648.154 6    831927.57421
  21724489.4484    4978886.77546   3881183.23562
  21722493.5504  -13884245.74646 -10720094.48661
 91  4 25 21 57 44.9990000  0  4G 2G11G19G 6
  20573024.737   -15560975.460 7 -12051281.90123
  23913879.362     1040231.530 6    859654.77521
  21728874.0814    5001884.40846   3899103.44262
  21716713.6204  -13914611.79946 -10743756.27161
 91  4 25 21 57 59.9990000  0  4G 2G11G19G 6
  20570823.480   -15572537.924 7 -12060291.59623
  23920673.3084    1075936.88646    887477.04861
  21733261.128     5024964.243 6   3917087.69522
  21710942.417   -13944938.780 6 -10767387.61121
 91  4 25 21 58 14.9990000  0  4G 2G11G19G 6
  20568640.862   -15584005.556 7 -12069227.39923
  23927488.675     1111768.474 6    915397.68321
  21737670.5424    5048131.04246   3935139.71562
  21705179.4094  -13975221.95646 -10790984.81861
 91  4 25 21 58 29.9990000  0  4G 2G11G19G 6
  20566476.636   -15595380.421 7 -12078090.91823
  23934335.792     1147723.862 6    943414.78921
  21742093.737     5071382.600 6   3953257.79222
  21699425.964   -14005463.499 6 -10814549.59122
 91  4 25 21 58 44.9990000  0  4G 2G11G19G 6
  20564328.620   -15606663.013 7 -12086882.52823
  23941199.573     1183802.536 6    971527.95221
  21746533.620     5094718.792 6   3971441.80722
  21693678.894   -14035663.342 6 -10838081.85822
 91  4 25 21 58 59.9990000  0  4G 2G11G19G 6
  20562199.347   -15617854.268 7 -12095602.97223
  23948087.675     1220003.282 6    999736.23121
  21750991.0584    5118138.73446   3989691.09062
  21687938.9564  -14065822.19846 -10861582.19661
 91  4 25 21 59 14.9990000  0  4G 2G11G19G 6
  20560088.175   -15628956.761 8 -12104254.24923
  23954999.6204    1256323.26846   1028037.43861
  21755466.050     5141639.829 6   4008003.60722
  21682205.6514  -14095942.64946 -10885052.61461
 91  4 25 21 59 29.9990000  0  4G 2G11G19G 6
  20557992.230   -15639968.444 8 -12112834.77023
  23961933.230     1292764.160 6   1056432.83221
  21759951.878     5165224.375 6   4026381.14822
  21676484.2764  -14126022.38146 -10908491.30562
 91  4 25 21 59 44.9990000  0  4G 2G11G19G 6
  20555911.230   -15650893.594 7 -12121347.85623
  23968892.5194    1329321.55746   1084919.01261
  21764452.737     5188888.226 6   4044820.48522
  21670765.1834  -14156065.36246 -10931901.35961
 91  4 25 21 59 59.9990000  0  4G 2G11G19G 6
  20553850.605   -15661724.622 7 -12129787.61223
  23975870.7534    1366002.78946   1113501.74061
  21768975.581     5212639.012 6   4063327.57122
  21665058.042   -14186063.948 6 -10955276.80522
 91  4 25 22  0 14.9990000  0  4G 2G11G19G 6
  20551807.276   -15672461.124 7 -12138153.70323
  23982877.347     1402807.918 6   1142180.94921
  21773511.1674    5236477.20646   4081902.76562
  21659356.2064  -14216017.55646 -10978617.21462
 91  4 25 22  0 29.9990000  0  4G 2G11G19G 6
  20549782.7764  -15683105.98748 -12146448.39463
  23989902.222     1439733.898 5   1170954.33921
  21778061.9874    5260399.98446   4100543.86162
  21653666.6054  -14245928.63447 -11001924.48061
 91  4 25 22  0 44.9990000  0  4G 2G11G19G 6
  20547774.589   -15693658.350 8 -12154670.99923
  23996952.1444    1476781.36846   1199822.39261
  21782631.5504    5284408.36646   4119251.65562
  21647982.112   -14275796.260 6 -11025197.90322
 91  4 25 22  0 59.9990000  0  4G 2G11G19G 6
  20545783.9954  -15704117.93148 -12162821.31663
  24004025.2224    1513950.30545   1228785.10661
  21787217.683     5308502.780 6   4138026.49622
  21642307.245   -14305619.987 7 -11048437.08621
 91  4 25 22  1 14.9990000  0  4G 2G11G19G 6
  20543811.120   -15714485.343 7 -12170899.80723
  24011121.823     1551239.852 5   1257841.81221
  21791819.112     5332682.797 6   4156868.04122
  21636641.2374  -14335400.07947 -11071642.29061
 91  4 25 22  1 29.9990000  0  4G 2G11G19G 6
  20541855.714   -15724761.851 7 -12178907.46523
  24018238.222     1588648.410 5   1286991.23821
  21796434.3234    5356947.05746   4175775.22662
  21630982.7064  -14365137.84046 -11094814.50762
 91  4 25 22  1 44.9990000  0  4G 2G11G19G 6
  20539917.7224  -15734946.34648 -12186843.42363
  24025380.6204    1626176.83245   1316234.05261
  21801070.9254    5381296.81946   4194749.03362
  21625332.0194  -14394831.84946 -11117952.62262
 91  4 25 22  1 59.9990000  0  4G 2G11G19G 6
  20537998.2764  -15745038.08948 -12194707.10763
  24032545.6204    1663825.49345   1345570.54661
  21805717.2694    5405732.79646   4213790.02062
  21619687.7924  -14424481.27846 -11141056.01562
 91  4 25 22  2 14.9990000  0  4G 2G11G19G 6
  20536093.2694  -15755037.34247 -12202498.72063
  24039733.7694    1701594.03645   1375000.48461
  21810384.5654    5430254.86846   4232898.10362
  21614053.698   -14454086.149 7 -11164124.67522
 91  4 25 22  2 29.9990000  0  4G 2G11G19G 6
  20534209.3394  -15764945.79148 -12210219.58363
  24046941.3624    1739480.49245   1404522.32361
  21815064.3864    5454861.63146   4252072.17062
  21608430.9954  -14483647.71946 -11187159.60061
 91  4 25 22  2 44.9990000  0  4G 2G11G19G 6
  20532340.456   -15774764.405 8 -12217870.43423
  24054173.5734    1777483.70545   1434135.09861
  21819769.7304    5479552.29546   4271311.61962
  21602810.3314  -14513166.90046 -11210161.49662
 91  4 25 22  2 59.9990000  0  4G 2G11G19G 6
  20530489.5654  -15784490.44447 -12225449.16063
  24061428.4874    1815606.01945   1463840.70461
  21824479.0654    5504329.51346   4290618.50862
  21597203.4564  -14542640.74246 -11233128.06461
 91  4 25 22  3 14.9990000  0  4G 2G11G19G 6
  20528655.5974  -15794129.08048 -12232959.77863
  24068702.620     1853842.137 5   1493634.94721
  21829211.6984    5529188.34346   4309988.99062
  21591600.964   -14572074.136 6 -11256063.10821
 91  4 25 22  3 29.9990000  0  4G 2G11G19G 6
  20526838.9014  -15803678.38448 -12240400.78263
  24076004.1834    1892193.72045   1523519.20461
  21833957.3944    5554130.67346   4329424.54562
  21586007.9874  -14601464.96446 -11278964.98162
 91  4 25 22  3 44.9990000  0  4G 2G11G19G 6
  20525039.448   -15813134.597 7 -12247769.24723
  24083324.597     1930664.199 5   1553496.11421
  21838721.784     5579160.328 6   4348928.14721
  21580424.4254  -14630809.36246 -11301830.69262
 91  4 25 22  3 59.9990000  0  4G 2G11G19G 6
  20523257.878   -15822498.766 7 -12255065.99123
  24090664.9254    1969252.34045   1583564.67961
  21843499.5974    5604276.41546   4368499.09962
  21574850.894   -14660108.081 7 -11324660.78422
 91  4 25 22  4 14.9990000  0  4G 2G11G19G 6
  20521490.534   -15831776.434 7 -12262295.32523
  24098032.651     2007952.285 5   1613720.35421
  21848297.5974    5629473.61846   4388133.24962
  21569282.1284  -14689366.30047 -11347459.32762
 91  4 25 22  4 29.9990000  0  4G 2G11G19G 6
  20519741.784   -15840969.214 7 -12269458.51723
  24105415.3554    2046761.86645   1643961.50961
  21853106.5504    5654750.32046   4407829.34561
  21563720.2534  -14718585.89747 -11370227.77362
 91  4 25 22  4 44.9990000  0  4G 2G11G19G 6
  20518008.448   -15850073.182 7 -12276552.50723
  24112822.4484    2085685.10145   1674291.17461
  21857933.1594    5680110.50846   4427590.50461
  21558169.7304  -14747762.34847 -11392962.59961
 91  4 25 22  4 59.9990000  0  4G 2G11G19G 6
  20516291.878   -15859095.992 7 -12283583.25423
  24120251.698     2124714.152 5   1704703.33521
  21862769.3704    5705546.64646   4447410.83562
  21552622.2844  -14776903.13446 -11415669.64362
 91  4 25 22  5 14.9990000  0  4G 2G11G19G 6
  20514590.761   -15868034.459 7 -12290548.27823
  24127695.1834    2163851.79945   1735200.06961
  21867629.339     5731061.959 6   4467292.87022
  21547085.1284  -14806004.85647 -11438346.24062
 91  4 25 22  5 29.9990000  0  4G 2G11G19G 6
  20512906.417   -15876889.068 7 -12297447.96223
  24135166.5734    2203097.34145   1765780.90661
  21872495.3474    5756656.25846   4487236.44862
  21541554.2374  -14835067.68447 -11460992.53162
 91  4 25 22  5 44.9990000  0  4G 2G11G19G 6
  20511237.487   -15885654.395 7 -12304278.07223
  24142654.792     2242455.828 5   1796449.76421
  21877386.5114    5782334.93946   4507245.78061
  21536033.0814  -14864086.14946 -11483604.25762
 91  4 25 22  5 59.9990000  0  4G 2G11G19G 6
  20509586.292   -15894332.781 7 -12311040.43823
  24150167.409     2281924.708 5   1827204.64921
  21882288.9014    5808095.56946   4527318.96861
  21530519.5734  -14893062.47146 -11506183.14562
 91  4 25 22  6 14.9990000  0  4G 2G11G19G 6
  20507951.417   -15902932.978 7 -12317741.87623
  24157696.198     2321495.034 5   1858038.53221
  21887204.1284    5833929.65346   4547449.39061
  21525010.4564  -14922005.11546 -11528735.78462
 91  4 25 22  6 29.9990000  0  4G 2G11G19G 6
  20506329.753   -15911452.726 7 -12324380.62623
  24165245.558     2361168.793 5   1888953.04621
  21892136.3154    5859839.72646   4567639.02861
  21519511.4484  -14950911.35347 -11551260.06562
 91  4 25 22  6 44.9990000  0  4G 2G11G19G 6
  20504725.394   -15919890.083 7 -12330955.17723
  24172816.8784    2400947.52345   1919949.33061
  21897080.6284    5885827.75046   4587889.40662
  21514016.9644  -14979779.27946 -11573754.48662
 91  4 25 22  6 59.9990000  0  4G 2G11G19G 6
  20503134.175   -15928244.193 7 -12337464.85823
  24180401.605     2440832.033 5   1951028.09021
  21902039.1204    5911894.70646   4608201.29062
  21508532.3624  -15008607.65746 -11596218.09562
 91  4 25 22  7 14.9990000  0  4G 2G11G19G 6
  20501560.6124  -15936515.39147 -12343909.93763
  24188016.276     2480821.609 5   1982188.64321
  21907015.9014    5938040.29646   4628574.44962
  21503051.151   -15037396.658 6 -11618651.02622
 91  4 25 22  7 29.9990000  0  4G 2G11G19G 6
  20500001.5504  -15944706.85947 -12350292.88663
  24195646.198     2520912.797 5   2013428.42421
  21912005.214     5964261.350 6   4649006.41221
  21497579.0974  -15066149.20247 -11641055.54162
 91  4 25 22  7 44.9990000  0  4G 2G11G19G 6
  20498458.362   -15952816.181 7 -12356611.82523
  24203292.753     2561107.651 5   2044748.98221
  21917009.065     5990560.362 6   4669499.11921
  21492118.9484  -15094862.84047 -11663429.75062
 91  4 25 22  7 59.9990000  0  4G 2G11G19G 6
  20496930.5194  -15960846.16847 -12362868.94363
  24210960.4334    2601403.31045   2076148.05061
  21922026.769     6016934.815 6   4690050.62422
  21486661.2144  -15123539.94547 -11685775.48062
 91  4 25 22  8 14.9990000  0  4G 2G11G19G 6
  20495416.0814  -15968797.25947 -12369064.58663
  24218650.3004    2641798.86945   2107624.99761
  21927061.737     6043384.223 6   4710660.52222
  21481210.4644  -15152180.87747 -11708093.03562
 91  4 25 22  8 29.9990000  0  4G 2G11G19G 6
  20493918.565   -15976668.483 7 -12375197.99623
  24226357.1364    2682294.94545   2139180.28961
  21932108.4174    6069909.42846   4731329.48362
  21475767.800   -15180784.534 7 -11730381.54222
 91  4 25 22  8 44.9990000  0  3G 2G19G 6
  20492434.5264  -15984461.59947 -12381270.54163
  21937170.5194    6096509.01446   4752056.40462
  21470331.1204  -15209352.37147 -11752642.13762
 91  4 25 22  8 59.9990000  0  3G 2G19G 6
  20490968.2374  -15992175.48247 -12387281.34863
  21942244.5034    6123184.11846   4772842.17462
  21464900.2534  -15237882.95146 -11774873.69862
 91  4 25 22  9 14.9990000  0  3G 2G19G 6
  20489515.940   -15999809.172 7 -12393229.66523
  21947340.9334    6149935.83846   4793687.64062
  21459480.675   -15266375.209 7 -11797075.40422
 91  4 25 22  9 29.9990000  0  3G 2G19G 6
  20488078.331   -16007362.434 7 -12399115.30723
  21952440.1594    6176764.53646   4814593.08362
  21454064.495   -15294828.510 6 -11819246.75822
 91  4 25 22  9 44.9990000  0  3G 2G19G 6
  20486655.308   -16014839.339 7 -12404941.45623
  21957562.7614    6203666.28846   4835555.46261
  21448656.9404  -15323246.65346 -11841390.70762
 91  4 25 22  9 59.9990000  0  3G 2G19G 6
  20485248.2454  -16022239.50147 -12410707.80563
  21962693.925     6230641.474 6   4856575.06321
  21443255.980   -15351629.241 7 -11863506.95122
 91  4 25 22 10 14.9990000  0  3G 2G19G 6
  20483854.917   -16029563.199 7 -12416414.56923
  21967843.355     6257689.916 6   4877651.74622
  21437860.7224  -15379976.18946 -11885595.45062
 91  4 25 22 10 29.9990000  0  3G 2G19G 6
  20482475.503   -16036811.813 7 -12422062.82823
  21973003.2304    6284810.28446   4898784.46761
  21432475.4874  -15408288.55447 -11907656.97262
 91  4 25 22 10 44.9990000  0  3G 2G19G 6
  20481110.253   -16043983.583 7 -12427651.20923
  21978180.753     6312004.431 6   4919974.69222
  21427093.605   -15436564.535 7 -11929690.15622
 91  4 25 22 10 59.9990000  0  3G 2G19G 6
  20479761.2534  -16051075.75448 -12433177.56363
  21983364.4174    6339275.31746   4941224.69862
  21421717.925   -15464801.049 7 -11951692.58422
 91  4 25 22 11 14.9990000  0  3G 2G19G 6
  20478425.511   -16058092.275 7 -12438644.96923
  21988570.3704    6366619.01746   4962531.45261
  21416352.870   -15493001.826 7 -11973667.15822
 91  4 25 22 11 29.9990000  0  3G 2G19G 6
  20477104.315   -16065032.793 7 -12444053.15423
  21993784.1124    6394036.04046   4983895.33461
  21410993.9644  -15521166.33046 -11995613.48362
 91  4 25 22 11 44.9990000  0  3G 2G19G 6
  20475798.7224  -16071897.37347 -12449402.16863
  21999021.581     6421526.473 6   5005316.42822
  21405642.612   -15549294.246 7 -12017531.28622
 91  4 25 22 11 59.9990000  0  3G 2G19G 6
  20474504.495   -16078689.631 7 -12454694.82323
  22004263.5344    6449086.82546   5026791.99661
  21400296.026   -15577389.162 7 -12039423.38122
 91  4 25 22 12 14.9990000  0  3G 2G19G 6
  20473225.792   -16085413.147 7 -12459933.91423
  22009521.7694    6476713.23046   5048319.03061
  21394955.7844  -15605454.34447 -12061292.30062
 91  4 25 22 12 29.9990000  0  3G 2G19G 6
  20471961.089   -16092060.162 7 -12465113.39023
  22014790.9094    6504413.77546   5069903.83762
  21389618.8394  -15633481.78447 -12083131.82362
 91  4 25 22 12 44.9990000  0  3G 2G19G 6
  20470710.472   -16098634.299 7 -12470236.08523
  22020078.847     6532184.816 6   5091543.58821
  21384295.7924  -15661474.82647 -12104944.52662
 91  4 25 22 12 59.9990000  0  3G 2G19G 6
  20469472.4954  -16105135.05947 -12475301.59863
  22025373.9644    6560027.05546   5113238.80061
  21378974.675   -15689432.805 7 -12126729.91622
 91  4 25 22 13 14.9990000  0  3G 2G19G 6
  20468250.5344  -16111562.33047 -12480309.85363
  22030688.3784    6587940.64146   5134989.62161
  21373659.0034  -15717355.39447 -12148487.72162
 91  4 25 22 13 29.9990000  0  3G 2G19G 6
  20467041.4484  -16117916.85547 -12485261.42063
  22036015.5504    6615925.13446   5156795.68461
  21368352.815   -15745243.026 7 -12170218.29822
 91  4 25 22 13 44.9990000  0  3G 2G19G 6
  20465844.9174  -16124199.23047 -12490156.76463
  22041350.8314    6643979.82246   5178656.44361
  21363053.5504  -15773096.06547 -12191921.90862
 91  4 25 22 13 59.9990000  0  3G 2G19G 6
  20464663.1674  -16130410.48147 -12494996.69263
  22046700.7064    6672103.80246   5200571.20561
  21357759.120   -15800915.224 7 -12213599.11822
 91  4 25 22 14 14.9990000  0  3G 2G19G 6
  20463493.9014  -16136548.58747 -12499779.62263
  22052069.1674    6700298.98746   5222541.44561
  21352471.362   -15828698.392 7 -12235248.29522
 91  4 25 22 14 29.9990000  0  3G 2G19G 6
  20462340.9564  -16142617.77547 -12504508.85263
  22057445.5264    6728561.69746   5244564.30861
  21347192.128   -15856449.306 7 -12256872.32722
 91  4 25 22 14 44.9990000  0  3G 2G19G 6
  20461200.0814  -16148613.76547 -12509181.04063
  22062837.2304    6756896.08046   5266643.01261
  21341916.597   -15884163.793 7 -12278467.98722
 91  4 25 22 14 59.9990000  0  3G 2G19G 6
  20460071.3474  -16154539.78147 -12513798.70863
  22068242.1444    6785298.81046   5288774.98261
  21336649.714   -15911844.651 7 -12300037.43522
 91  4 25 22 15 14.9990000  0  3G 2G19G 6
  20458957.956   -16160396.828 7 -12518362.62823
  22073662.1754    6813769.21046   5310959.67061
  21331387.815   -15939492.488 7 -12321581.15422
 91  4 25 22 15 29.9990000  0  3G 2G19G 6
  20457856.5504  -16166175.90347 -12522865.79863
  22079095.6284    6842316.24746   5333204.09261
  21326134.558   -15967098.255 7 -12343092.08522
 91  4 25 22 15 44.9990000  0  3G 2G19G 6
  20456771.1904  -16171884.92547 -12527314.37463
  22084540.620     6870932.075 6   5355502.09221
  21320888.894   -15994669.676 7 -12364576.25822
 91  4 25 22 15 59.9990000  0  3G 2G19G 6
  20455697.9644  -16177521.55147 -12531706.54263
  22089996.2224    6899618.99846   5377855.50861
  21315649.425   -16022204.033 7 -12386031.54922
 91  4 25 22 16 14.9990000  0  3G 2G19G 6
  20454639.3234  -16183087.60847 -12536043.71763
  22095470.5034    6928375.16846   5400262.87761
  21310415.4644  -16049703.02547 -12407459.27962
 91  4 25 22 16 29.9990000  0  3G 2G19G 6
  20453591.6834  -16188585.05248 -12540327.43363
  22100955.9954    6957199.13546   5422723.07761
  21305190.183   -16077168.160 7 -12428860.62422
 91  4 25 22 16 44.9990000  0  3G 2G19G 6
  20452560.503   -16194014.938 8 -12544558.50023
  22106452.0034    6986089.67946   5445235.14861
  21299968.6594  -16104600.49647 -12450236.42362
 91  4 25 22 16 59.9990000  0  3G 2G19G 6
  20451540.5894  -16199379.71448 -12548738.83963
  22111963.0194    7015044.37546   5467797.21261
  21294753.245   -16132002.193 6 -12471588.33822
 91  4 25 22 17 14.9990000  0  3G 2G19G 6
  20450531.2064  -16204675.16648 -12552865.15563
  22117486.8314    7044067.55346   5490412.63661
  21289547.0734  -16159368.69947 -12492912.82662
 91  4 25 22 17 29.9990000  0  3G 2G19G 6
  20449535.8784  -16209898.73148 -12556935.45963
  22123020.7694    7073162.03146   5513083.62961
  21284347.987   -16186697.191 7 -12514207.70522
 91  4 25 22 17 44.9990000  0  3G 2G19G 6
  20448557.2144  -16215054.29048 -12560952.76663
  22128572.2614    7102323.86546   5535807.10561
  21279151.659   -16213991.269 7 -12535475.76722
 91  4 25 22 17 59.9990000  0  3G 2G19G 6
  20447587.1594  -16220143.13747 -12564918.09463
  22134132.6834    7131551.95046   5558582.20661
  21273964.800   -16241252.068 7 -12556717.88822
 91  4 25 22 18 14.9990000  0  3G 2G19G 6
  20446631.0504  -16225167.94947 -12568833.52963
  22139705.2924    7160843.71246   5581406.91361
  21268784.847   -16268481.840 7 -12577935.84722
 91  4 25 22 18 29.9990000  0  3G 2G19G 6
  20445689.0114  -16230122.58748 -12572694.27863
  22145295.9174    7190205.28146   5604286.03361
  21263608.7924  -16295674.33047 -12599124.73762
 91  4 25 22 18 44.9990000  0  3G 2G19G 6
  20444758.9254  -16235009.06348 -12576501.91563
  22150897.4404    7219634.65046   5627217.97761
  21258440.425   -16322831.317 7 -12620285.97222
 91  4 25 22 18 59.9990000  0  3G 2G19G 6
  20443842.1674  -16239828.32148 -12580257.17363
  22156509.4014    7249131.10846   5650202.19061
  21253279.581   -16349953.391 7 -12641420.01322
 91  4 25 22 19 14.9990000  0  3G 2G19G 6
  20442938.7454  -16244577.58648 -12583957.88863
  22162135.4724    7278697.24346   5673240.69961
  21248126.753   -16377037.611 7 -12662524.53922
 91  4 25 22 19 29.9990000  0  3G 2G19G 6
  20442047.4254  -16249260.24848 -12587606.70563
  22167770.0194    7308329.79746   5696330.95461
  21242978.503   -16404087.256 7 -12683602.13622
 91  4 25 22 19 44.9990000  0  3G 2G19G 6
  20441166.792   -16253875.189 8 -12591202.75023
  22173428.0114    7338030.11846   5719474.03761
  21237837.105   -16431100.714 7 -12704651.54422
 91  4 25 22 19 59.9990000  0  3G 2G19G 6
  20440301.6984  -16258424.76847 -12594747.86963
  22179089.4724    7367795.93746   5742668.14561
  21232703.0114  -16458080.20747 -12725674.46462
 91  4 25 22 20 14.9990000  0  3G 2G19G 6
  20439448.9334  -16262904.92547 -12598238.89263
  22184766.3474    7397631.50646   5765916.59561
  21227576.534   -16485021.310 7 -12746667.48622
 91  4 25 22 20 29.9990000  0  3G 2G19G 6
  20438610.011   -16267316.720 8 -12601676.64323
  22190458.7924    7427535.82346   5789218.63361
  21222458.323   -16511924.934 7 -12767631.29122
 91  4 25 22 20 44.9990000  0  3G 2G19G 6
  20437784.8864  -16271659.58448 -12605060.68563
  22196160.5194    7457509.19846   5812574.47761
  21217344.167   -16538790.258 7 -12788565.26222
 91  4 25 22 20 59.9990000  0  3G 2G19G 6
  20436969.9724  -16275940.25648 -12608396.26763
  22201878.0034    7487545.04346   5835978.99761
  21212240.058   -16565623.849 7 -12809474.50322
 91  4 25 22 21 14.9990000  0  3G 2G19G 6
  20436168.3474  -16280153.87548 -12611679.59663
  22207605.3624    7517648.65846   5859436.31861
  21207140.980   -16592420.245 7 -12830354.76022
 91  4 25 22 21 29.9990000  0  3G 2G19G 6
  20435380.6124  -16284292.14048 -12614904.21962
  22213348.651     7547828.068 6   5882952.71021
  21202048.745   -16619171.217 7 -12851199.62922
 91  4 25 22 21 44.9990000  0  3G 2G19G 6
  20434604.011   -16288361.888 7 -12618075.43623
  22219103.0974    7578076.51946   5906522.90161
  21196966.815   -16645883.421 7 -12872014.27722
 91  4 25 22 21 59.9990000  0  3G 2G19G 6
  20433843.3554  -16292367.63547 -12621196.79163
  22224873.7614    7608389.74946   5930143.56761
  21191890.417   -16672560.819 7 -12892801.81422
 91  4 25 22 22 14.9990000  0  3G 2G19G 6
  20433095.3864  -16296304.18348 -12624264.22263
  22230652.9804    7638772.95046   5953818.74761
  21186819.425   -16699197.923 7 -12913557.95022
 91  4 25 22 22 29.9990000  0  3G 2G19G 6
  20432358.2374  -16300172.20447 -12627278.26063
  22236447.8394    7669225.49446   5977547.96861
  21181759.651   -16725795.341 7 -12934283.16022
 91  4 25 22 22 44.9990000  0  3G 2G19G 6
  20431636.2764  -16303968.71248 -12630236.56963
  22242255.6124    7699750.37946   6001333.55861
  21176706.386   -16752349.710 7 -12954974.83422
 91  4 25 22 22 59.9990000  0  3G 2G19G 6
  20430926.9254  -16307700.66048 -12633144.57463
  22248081.034     7730340.835 6   6025170.23621
  21171660.019   -16778867.847 7 -12975638.26822
 91  4 25 22 23 14.9990000  0  3G 2G19G 6
  20430228.5034  -16311362.27248 -12635997.76963
  22253916.0734    7761002.73146   6049062.59061
  21166622.159   -16805343.688 7 -12996268.75222
 91  4 25 22 23 29.9990000  0  4G13G 2G19G 6
  23737149.8084         -0.86654
  20429546.0504  -16314953.52548 -12638796.14363
  22259764.9174    7791736.06346   6073010.61061
  21161590.761   -16831776.840 7 -13016865.97322
 91  4 25 22 23 44.9990000  0  4G13G 2G19G 6
  23725280.2144     -62366.33444
  20428875.8004  -16318478.14148 -12641542.58963
  22265624.456     7822537.150 6   6097011.40521
  21156568.198   -16858170.806 7 -13037432.65222
 91  4 25 22 23 59.9990000  0  4G13G 2G19G 6
  23713415.2224    -124703.56844
  20428218.3084  -16321937.10848 -12644237.87663
  22271496.948     7853405.178 6   6121064.38721
  21151551.8864  -16884526.32747 -13057969.38962
 91  4 25 22 24 14.9990000  0  4G13G 2G19G 6
  23701558.308     -187015.972 4
  20427570.2224  -16325334.42648 -12646885.13263
  22277385.948     7884336.312 6   6145166.52521
  21146544.401   -16910846.969 7 -13078478.92822
 91  4 25 22 24 29.9990000  0  4G13G 2G19G 6
  23689703.4644    -249295.13545
  20426936.9334  -16328662.09948 -12649478.11663
  22283283.9724    7915338.50746   6169324.05361
  21141544.3004  -16937124.70847 -13098955.05462
 91  4 25 22 24 44.9990000  0  4G13G 2G19G 6
  23677859.1754    -311541.91244        -0.24471
  20426317.6834  -16331921.49848 -12652017.89363
  22289198.0194    7946410.24946   6193535.75761
  21136549.870   -16963360.654 6 -13119398.59922
 91  4 25 22 24 59.9990000  0  4G13G 2G19G 6
  23666023.214     -373759.083 4    -48480.98521
  20425710.0894  -16335115.79048 -12654506.94663
  22295120.7454    7977548.60746   6217799.37861
  21131567.589   -16989557.609 7 -13139811.76422
 91  4 25 22 25 14.9990000  0  4G13G 2G19G 6
  23654192.698     -435943.607 5    -96936.24721
  20425112.0194  -16338242.58048 -12656943.39463
  22301063.4724    8008756.00046   6242116.78761
  21126589.300   -17015713.010 7 -13160192.55522
 91  4 25 22 25 29.9990000  0  4G13G 2G19G 6
  23642361.2694    -498099.03045   -145368.89561
  20424532.1124  -16341305.94248 -12659330.42363
  22307007.8084    8040028.46446   6266484.90861
  21121619.651   -17041830.458 7 -13180543.76322
 91  4 25 22 25 44.9990000  0  4G13G 2G19G 6
  23630532.761     -560223.126 4   -193777.08621
  20423958.7844  -16344303.98248 -12661666.54663
  22312978.3864    8071368.08946   6290905.35961
  21116657.6754  -17067907.92847 -13200863.83062
 91  4 25 22 25 59.9990000  0  4G13G 2G19G 6
  23618722.355     -622312.189 4   -242157.98821
  20423402.9254  -16347233.33048 -12663949.14863
  22318956.269     8102778.064 5   6315380.62621
  21111702.675   -17093941.859 7 -13221149.96822
 91  4 25 22 26 14.9990000  0  4G13G 2G19G 6
  23606917.1754    -684370.77045   -290515.16461
  20422857.5584  -16350099.22548 -12666182.30463
  22324942.2144    8134253.37245   6339906.81061
  21106755.6124  -17119937.09047 -13241405.95062
 91  4 25 22 26 29.9990000  0  4G13G 2G19G 6
  23595107.4804    -746399.67745   -338849.19661
  20422324.0504  -16352902.82748 -12668366.92163
  22330945.4094    8165793.03646   6364483.13461
  21101817.0194  -17145894.46547 -13261632.43762
 91  4 25 22 26 44.9990000  0  4G13G 2G19G 6
  23583307.7224    -808395.83344
  20421802.0584  -16355641.48848 -12670500.93663
  22336956.5034    8197399.65245   6389111.62961
  21096885.3864  -17171811.11847 -13281827.19362
 91  4 25 22 26 59.9990000  0  4G13G 2G19G 6
  23571523.2924    -870360.17945
  20421292.331   -16358316.556 7 -12672585.38823
  22342985.0264    8229071.89646   6413791.26661
  21091960.159   -17197688.158 7 -13301991.07422
 91  4 25 22 27 14.9990000  0  4G13G 2G19G 6
  23559736.612     -932293.516 5
  20420797.753   -16360929.222 8 -12674621.22023
  22349024.128     8260808.520 5   6438521.06121
  21087043.722   -17223526.483 7 -13322124.79022
 91  4 25 22 27 29.9990000  0  4G13G 2G19G 6
  23547956.276     -994192.808 5        -0.06631
  20420310.847   -16363477.145 7 -12676606.60123
  22355073.4254    8292611.79846   6463302.80061
  21082133.847   -17249323.694 7 -13342226.46622
 91  4 25 22 27 44.9990000  0  4G13G 2G19G 6
  23536180.5114   -1056055.79945    -48204.83461
  20419840.472   -16365958.780 7 -12678540.33523
  22361145.9484    8324483.70446   6488138.00861
  21077233.745   -17275077.744 7 -13362294.51322
 91  4 25 22 27 59.9990000  0  4G13G 2G19G 6
  23524414.159    -1117885.774 4
  20419378.3944  -16368377.65547 -12680425.15763
  22367217.4804    8356420.64846   6513023.91361
  21072341.761   -17300791.888 7 -13382331.46822
 91  4 25 22 28 14.9990000  0  4G13G 2G19G 6
  23512655.464    -1179681.021 5
  20418932.6364  -16370732.46948 -12682260.07063
  22373308.9804    8388423.91846   6537961.48761
  21067454.8554  -17326464.65447 -13402336.17862
 91  4 25 22 28 29.9990000  0  4G13G 2G19G 6
  23500900.026    -1241444.258 5        -0.34531
  20418494.2694  -16373026.45047 -12684047.57863
  22379410.1834    8420490.38146   6562948.30761
  21062576.792   -17352098.919 7 -13422310.88222
 91  4 25 22 28 44.9990000  0  4G13G 2G19G 6
  23489155.386    -1303168.488 5    -48096.99821
  20418070.7304  -16375253.14647 -12685782.65563
  22385528.3314    8452626.73146   6587989.58061
  21057706.730   -17377687.922 7 -13442250.32222
 91  4 25 22 28 59.9990000  0  4G13G 2G19G 6
  23477419.8394   -1364857.12545    -96165.90161
  20417658.394   -16377416.563 7 -12687468.41623
  22391654.2924    8484828.88846   6613082.13961
  21052845.800   -17403235.487 7 -13462157.46523
 91  4 25 22 29 14.9990000  0  4G13G 2G19G 6
  23465691.800    -1426516.780 5   -144212.22821
  20417256.089   -16379523.763 7 -12689110.38323
  22397796.0814    8517089.81946   6638220.48261
  21047990.378   -17428748.022 7 -13482037.32022
 91  4 25 22 29 29.9990000  0  4G13G 2G19G 6
  23453955.534    -1488138.206 5   -192228.75621
  20416870.6904  -16381565.79048 -12690701.55763
  22403943.4174    8549418.32346   6663411.49161
  21043144.753   -17454216.727 7 -13501883.01822
 91  4 25 22 29 44.9990000  0  4G13G 2G19G 6
  23442237.073    -1549724.657 5   -240218.05621
  20416491.6284  -16383546.16447 -12692244.69463
  22410110.159     8581811.152 5   6688652.60921
  21038307.190   -17479644.852 7 -13521697.09122
 91  4 25 22 29 59.9990000  0  4G13G 2G19G 6
  23430522.8784   -1611277.86145   -288181.41961
  20416126.5584  -16385467.48247 -12693741.81863
  22416283.519     8614265.680 6   6713941.81421
  21033474.464   -17505034.633 7 -13541481.28922
 91  4 25 22 30 14.9990000  0  4G13G 2G19G 6
  23418815.026    -1672796.119 5   -336117.56921
  20415771.9484  -16387328.56547 -12695192.00163
  22422476.9404    8646783.30446   6739280.18361
  21028649.620   -17530384.659 7 -13561234.50322
 91  4 25 22 30 29.9990000  0  4G13G 2G19G 6
  23407117.8474   -1734280.11945   -384027.02161
  20415432.003   -16389130.419 8 -12696596.03023
  22428671.870     8679363.108 6   6764666.99621
  21023833.456   -17555695.575 7 -13580957.24723
 91  4 25 22 30 44.9990000  0  4G13G 2G19G 6
  23395430.1904   -1795725.24145   -431906.17761
  20415097.4014  -16390868.83047 -12697950.62663
  22434889.5734    8712009.31646   6790105.56261
  21019025.745   -17580962.852 7 -13600645.98622
 91  4 25 22 30 59.9990000  0  4G13G 2G19G 6
  23383741.6834   -1857135.78745   -479758.40961
  20414779.5974  -16392548.59648 -12699259.52563
  22441109.456     8744717.271 6   6815592.24221
  21014224.198   -17606190.850 7 -13620304.11722
 91  4 25 22 31 14.9990000  0  4G13G 2G19G 6
  23372058.5114   -1918510.46545   -527582.71361
  20414472.128   -16394169.168 8 -12700522.29523
  22447340.7694    8777487.31645   6841127.30061
  21009431.440   -17631379.003 7 -13639931.19723
 91  4 25 22 31 29.9990000  0  4G13G 2G19G 6
  23360384.7844   -1979846.98745   -575377.24261
  20414174.956   -16395728.596 8 -12701737.41923
  22453597.0734    8810321.52445   6866712.36261
  21004647.370   -17656524.948 7 -13659525.38922
 91  4 25 22 31 44.9990000  0  4G13G 2G19G 6
  23348727.050    -2041148.173 5   -623144.23121
  20413887.847   -16397229.813 8 -12702907.18523
  22459854.8154    8843216.93945   6892345.11161
  20999867.995   -17681631.571 7 -13679088.94622
 91  4 25 22 31 59.9990000  0  4G13G 2G19G 6
  23337063.026    -2102413.810 5   -670883.55221
  20413614.776   -16398673.312 8 -12704031.97223
  22466125.9014    8876173.07345   6918025.18461
  20995097.980   -17706699.027 7 -13698621.98022
 91  4 25 22 32 14.9990000  0  4G13G 2G19G 6
  23325413.4564   -2163640.07545   -718592.19061
  20413352.011   -16400055.818 8 -12705109.23523
  22472406.878     8909193.587 5   6943755.41321
  20990335.878   -17731723.634 7 -13718121.62722
 91  4 25 22 32 29.9990000  0  4G13G 2G19G 6
  23313770.925    -2224828.162 5   -766271.10421
  20413099.1834  -16401378.96647 -12706140.25063
  22478709.7144    8942276.77245   6969534.48161
  20985582.144   -17756706.635 7 -13737588.85922
 91  4 25 22 32 44.9990000  0  4G13G 2G19G 6
  23302130.6834   -2285977.66945   -813919.90361
  20412859.5194  -16402642.86848 -12707125.10063
  22485010.0504    8975422.39845   6995362.19461
  20980836.730   -17781648.039 7 -13757023.66623
 91  4 25 22 32 59.9990000  0  4G13G 2G19G 6
  23290503.917    -2347090.151 5   -861539.85921
  20412628.3314  -16403849.32548 -12708065.18563
  22491331.6364    9008628.70545   7021237.20961
  20976097.534   -17806549.453 7 -13776427.32223
 91  4 25 22 33 14.9990000  0  4G13G 2G19G 6
  23278885.1444   -2408166.89445   -909132.03561
  20412409.3554  -16405000.41648 -12708962.13063
  22497659.151     9041893.715 5   7047157.95021
  20971366.323   -17831412.581 7 -13795801.13822
 91  4 25 22 33 29.9990000  0  4G13G 2G19G 6
  23267269.284    -2469204.088 5   -956693.34121
  20412202.6124  -16406092.53548 -12709813.12463
  22504003.4564    9075221.05145   7073127.26461
  20966641.698   -17856233.635 7 -13815142.17522
 91  4 25 22 33 44.9990000  0  4G13G 2G19G 6
  23255657.5584   -2530210.73145  -1004230.83761
  20412002.3474  -16407135.07648 -12710625.48363
  22510354.9874    9108601.32345   7099137.83161
  20961925.081   -17881021.544 7 -13834457.38423
 91  4 25 22 33 59.9990000  0  5G13G 2G15G19G 6
  23244053.5504   -2591177.92445  -1051737.60061
  20411817.7374  -16408119.74648 -12711392.75063
  23878201.1674         -0.58855
  22516721.5034    9142042.97645   7125196.22461
  20957215.940   -17905767.712 7 -13853740.07022
 91  4 25 22 34 14.9990000  0  5G13G 2G15G19G 6
  23232459.2614   -2652106.56645  -1099214.35261
  20411639.7534  -16409048.14448 -12712116.16663
  23873723.1754     -23522.20745
  22523094.870     9175544.629 5   7151301.36821
  20952515.737   -17930473.518 7 -13872991.29723
 91  4 25 22 34 29.9990000  0  5G13G 2G15G19G 6
  23220876.230    -2712994.016 5  -1146658.96121
  20411475.7064  -16409918.21548 -12712794.13363
  23869267.4954     -46945.97845
  22529480.737     9209108.274 5   7177454.81121
  20947822.2144  -17955136.64747 -13892209.28363
 91  4 25 22 34 44.9990000  0  5G13G 2G15G19G 6
  23209296.550    -2773838.545 5  -1194070.12321
  20411319.7144  -16410728.39147 -12713425.43463
  23864824.2764     -70270.17745
  22535879.480     9242735.509 5   7203657.81421
  20943137.2454  -17979755.23047 -13911392.55563
 91  4 25 22 34 59.9990000  0  5G13G 2G15G19G 6
  23197726.9954   -2834647.89645  -1241453.91661
  20411177.565   -16411486.955 8 -12714016.51223
  23860406.6984     -93502.63745        -0.46471
  22542289.5194    9276418.13545   7229903.97761
  20938459.730   -18004337.223 7 -13930547.31123
 91  4 25 22 35 14.9990000  0  5G13G 2G15G19G 6
  23186162.7144   -2895415.80145  -1288805.39061
  20411042.2304  -16412187.90247 -12714562.69463
  23856002.675     -116637.063 5    -18027.27221
  22548711.2694    9310162.05745   7256197.91461
  20933789.4874  -18028876.38347 -13949668.69763
 91  4 25 22 35 29.9990000  0  5G13G 2G15G19G 6
  23174601.261    -2956143.666 5  -1336125.66721
  20410922.4484  -16412833.37747 -12715065.65563
  23851623.433     -139674.955 5    -35978.85021
  22555142.4014    9343965.16345   7282537.95261
  20929128.667   -18053374.592 7 -13968758.16623
 91  4 25 22 35 44.9990000  0  5G13G 2G15G19G 6
  23163060.815    -3016834.588 5  -1383417.15621
  20410806.3624  -16413426.65647 -12715527.94463
  23847255.2064    -162619.32845    -53857.59361
  22561591.0894    9377824.36745   7308921.71261
  20924473.9564  -18077834.74247 -13987817.98063
 91  4 25 22 35 59.9990000  0  5G13G 2G15G19G 6
  23151517.5114   -3077485.75445  -1430677.67361
  20410705.8004  -16413965.61048 -12715947.90463
  23842906.8084    -185467.85245    -71661.59961
  22568038.4094    9411741.77345   7335350.82561
  20919825.761   -18102254.463 7 -14006846.29422
 91  4 25 22 36 14.9990000  0  5G13G 2G15G19G 6
  23139981.448    -3138093.932 5  -1477904.69221
  20410611.3474  -16414447.43748 -12716323.35163
  23838577.1444    -208217.33245    -89388.47661
  22574506.112     9445720.064 5   7361827.37821
  20915186.5734  -18126630.92447 -14025840.90163
 91  4 25 22 36 29.9990000  0  5G13G 2G15G19G 6
  23128455.964    -3198657.782 5  -1525097.18621
  20410531.6594  -16414871.38948 -12716653.69863
  23834267.2374    -230866.20345   -107036.90661
  22580986.784     9479760.237 5   7388352.16021
  20910556.136   -18150962.701 7 -14044800.68723
 91  4 25 22 36 44.9990000  0  5G13G 2G15G19G 6
  23116938.7694   -3259176.00945  -1572254.11661
  20410461.4724  -16415236.75448 -12716938.39263
  23829979.3394    -253413.33545   -124606.08161
  22587475.6674    9513863.13745   7414925.81661
  20905935.784   -18175248.694 7 -14063724.79423
 91  4 25 22 36 59.9990000  0  5G13G 2G15G19G 6
  23105428.339    -3319655.321 5  -1619380.68721
  20410404.3314  -16415550.48248 -12717182.85163
  23825706.3154    -275865.44245   -142101.21361
  22593973.5814    9548021.83445   7441542.95261
  20901320.6674  -18199495.73847 -14082618.56063
 91  4 25 22 37 14.9990000  0  5G13G 2G15G19G 6
  23093925.769    -3380094.901 5  -1666476.34821
  20410351.1444  -16415812.15348 -12717386.74663
  23821453.4404    -298222.09445   -159521.95261
  22600489.8004    9582236.47445   7468203.67261
  20896715.651   -18223703.408 7 -14101481.63723
 91  4 25 22 37 29.9990000  0  5G13G 2G15G19G 6
  23082439.1594   -3440492.37245  -1713539.17861
  20410313.0584  -16416019.94547 -12717548.65663
  23817217.534     -320481.165 5   -176866.68621
  22607006.1364    9616508.99745   7494909.49061
  20892116.1754  -18247869.42847 -14120312.26363
 91  4 25 22 37 44.9990000  0  5G13G 2G15G19G 6
  23070947.839    -3500847.022 5  -1760568.66221
  20410283.1284  -16416173.85148
  23812998.034     -342641.909 5   -194134.75821
  22613540.8784    9650839.63645   7521660.60861
  20887524.8624  -18271993.45447 -14139110.16963
 91  4 25 22 37 59.9990000  0  5G13G 2G15G19G 6
  23059477.222    -3561161.193 5  -1807566.59621
  20410266.7764  -16416276.43048
  23808801.7224    -364706.43245   -211327.86861
  22620080.0344    9685226.01345   7548455.15061
  20882942.1904  -18296077.62047 -14157877.02163
 91  4 25 22 38 14.9990000  0  5G13G 2G15G19G 6
  23048006.355    -3621430.285 5  -1854529.42921
  20410255.7534  -16416323.21048
  23804622.8314    -386670.24445   -228442.53661
  22626638.347     9719672.144 5   7575296.25221
  20878368.5034  -18320117.53047 -14176609.37763
 91  4 25 22 38 29.9990000  0  5G13G 2G15G19G 6
  23036542.7694   -3681655.63945  -1901458.11861
  20410255.2534  -16416316.40647
  23800457.659     -408534.990 5   -245479.94721
  22633208.8004    9754176.10245   7602182.41861
  20873802.1984  -18344114.77847 -14195308.49363
 91  4 25 22 38 44.9990000  0  5G13G 2G15G19G 6
  23025091.276    -3741835.643 5  -1948351.50321
  20410269.1444  -16416255.14048
  23796320.4334    -430299.04745   -262438.93861
  22639784.6444    9788739.03545   7629114.53161
  20869241.151   -18368068.189 7 -14213973.45023
 91  4 25 22 38 59.9990000  0  5G13G 2G15G19G 6
  23013650.456    -3801973.067 5  -1995211.70921
  20410290.4174  -16416142.37548
  23792188.9724    -451965.65145   -279321.97461
  22646369.1594    9823357.57745   7656089.99061
  20864694.5264  -18391980.74247 -14232606.57763
 91  4 25 22 39 14.9990000  0  5G13G 2G15G19G 6
  23002209.190    -3862066.539 5  -2042037.66821
  20410320.9174  -16415977.01048
  23788093.917     -473533.119 5   -296127.77721
  22652964.7764    9858032.86345   7683109.64861
  20860152.401   -18415850.830 7 -14251206.59923
 91  4 25 22 39 29.9990000  0  5G13G 2G15G19G 6
  22990781.495    -3922115.615 5  -2088829.01021
  20410362.8864  -16415758.90948
  23784001.1984    -495000.87945   -312855.87461
  22659576.3944    9892765.22545   7710173.79261
  20855615.8234  -18439678.33547 -14269773.45463
 91  4 25 22 39 44.9990000  0  5G13G 2G15G19G 6
  22979367.8554   -3982120.35645  -2135585.83861
  20410414.9644  -16415489.01948 -12717134.91563
  23779946.2844    -516369.25345   -329506.56261
  22666195.870     9927553.907 5   7737281.80721
  20851089.839   -18463463.635 7 -14288307.41223
 91  4 25 22 39 59.9990000  0  5G13G 2G15G19G 6
  22967951.7454   -4042080.21545  -2182307.67461
  20410477.4174  -16415167.15048 -12716884.10263
  23775891.261     -537637.905 5   -346079.50921
  22672827.4874    9962398.96645   7764433.76061
  20846571.2924  -18487206.08047 -14306807.97863
 91  4 25 22 40 14.9990000  0  5G13G 2G15G19G 6
  22956552.378    -4101998.011 5  -2228996.70721
  20410545.8704  -16414796.73248 -12716595.45963
  23771866.6444    -558809.79345   -362577.05561
  22679468.7924    9997296.97345   7791626.97161
  20842062.1124  -18510908.98547 -14325277.73563
 91  4 25 22 40 29.9990000  0  5G13G 2G15G19G 6
  22945156.6204   -4161870.26045  -2275650.26961
  20410627.8314  -16414374.57248 -12716266.49963
  23767853.183     -579881.441 5   -378996.50721
  22686121.0424   10032251.20145   7818863.99861
  20837559.2694  -18534568.84447 -14343713.95063
 91  4 25 22 40 44.9990000  0  5G13G 2G15G19G 6
  22933776.050    -4221696.100 5  -2322267.71021
  20410716.0974  -16413900.47348 -12715897.07063
  23763862.0344    -600852.11445   -395337.27061
  22692782.909    10067261.739 5   7846144.88021
  20833065.698   -18558185.074 7 -14362116.15823
 91  4 25 22 40 59.9990000  0  5G13G 2G15G19G 6
  22922400.5424   -4281481.68545  -2368853.71261
  20410816.9954  -16413380.94648 -12715492.24463
  23759892.956     -621727.951 5   -411604.10621
  22699454.5734   10102322.30645   7873464.76261
  20828577.362   -18581763.914 7 -14380489.24023
 91  4 25 22 41 14.9990000  0  5G13G 2G15G19G 6
  22911027.8314   -4341224.58645  -2415406.49461
  20410924.6754  -16412814.07248 -12715050.51363
  23755936.3314    -642506.68145   -427795.27561
  22706137.120    10137435.023 5   7900825.28421
  20824097.9334  -18605303.17547 -14398831.48563
 91  4 25 22 41 29.9990000  0  5G13G 2G15G19G 6
  22899669.8004   -4400920.76345  -2461922.82761
  20411041.1594  -16412196.10248 -12714568.97463
  23752003.2304    -663184.50045   -443907.84961
  22712831.745    10172603.346 5   7928229.12121
  20819626.8394  -18628798.91047 -14417139.80863
 91  4 25 22 41 44.9990000  0  5G13G 2G15G19G 6
  22888322.909    -4460571.188 5  -2508403.54921
  20411166.4804  -16411528.55748 -12714048.80063
  23748087.190     -683762.610 5   -459942.70221
  22719532.1594   10207825.92945   7955675.25261
  20815163.2694  -18652252.23747 -14435415.08963
 91  4 25 22 41 59.9990000  0  5G13G 2G15G19G 6
  22876977.3784   -4520173.79345  -2554847.00361
  20411304.2614  -16410809.56748 -12713488.54263
  23744190.0894    -704238.75245   -475898.10461
  22726244.347    10243104.423 5   7983164.94121
  20810710.1674  -18675661.30347 -14453655.88163
 91  4 25 22 42 14.9990000  0  5G13G 2G15G19G 6
  22865643.300    -4579727.294 5  -2601252.18721
  20411449.8314  -16410038.36148 -12712887.59263
  23740314.3864    -724611.86345   -491773.23261
  22732967.565    10278439.552 5   8010698.75821
  20806262.034   -18699025.008 7 -14471861.32423
 91  4 25 22 42 29.9990000  0  5G13G 2G15G19G 6
  22854320.5654   -4639230.33945  -2647618.07261
  20411607.7374  -16409214.09947 -12712245.30463
  23736457.2694    -744880.58045   -507567.00161
  22739704.8084   10313832.30145   8038277.49561
  20801826.7764  -18722341.99547 -14490030.36563
 91  4 25 22 42 44.9990000  0  5G13G 2G15G19G 6
  22843008.1594   -4698686.04145  -2693947.03561
  20411772.9094  -16408340.63947 -12711564.67863
  23732620.0894    -765048.11145   -523281.94961
  22746448.105    10349279.080 5   8065898.31021
  20797399.0814  -18745615.76347 -14508165.72863
 91  4 25 22 42 59.9990000  0  5G13G 2G15G19G 6
  22831703.5974   -4758093.91845  -2740238.75261
  20411950.9564  -16407417.93047 -12710845.67363
  23728798.9724    -785114.13545   -538917.79361
  22753206.2224   10384779.79045   8093561.17561
  20792976.784   -18768845.916 7 -14526267.10523
 91  4 25 22 43 14.9990000  0  5G13G 2G15G19G 6
  22820408.8084   -4817449.17745  -2786489.47761
  20412135.6594  -16406441.61647 -12710084.90963
  23725003.995     -805073.842 5   -554470.76021
  22759970.0034   10420338.81445   8121269.46261
  20788565.386   -18792027.973 7 -14544331.00423
 91  4 25 22 43 29.9990000  0  5G13G 2G15G19G 6
  22809121.698    -4876753.803 5  -2832700.73921
  20412331.183   -16405414.078 8 -12709284.22023
  23721224.0504    -824929.54345   -569942.71861
  22766750.917    10455953.850 5   8149021.39821
  20784162.886   -18815163.999 7 -14562359.03723
 91  4 25 22 43 44.9990000  0  5G13G 2G15G19G 6
  22797843.5654   -4936006.42745  -2878871.49061
  20412538.8234  -16404334.50748 -12708442.99363
  23717466.2144    -844680.20145   -585332.80361
  22773536.4644   10491625.71845   8176817.61861
  20779769.230   -18838252.914 7 -14580350.35623
 91  4 25 22 43 59.9990000  0  5G13G 2G15G19G 6
  22786579.2844   -4995209.71245  -2925003.80561
  20412752.4174  -16403205.92848 -12707563.57563
  23713721.1674    -864328.13245   -600642.85761
  22780339.190    10527351.444 5   8204655.80521
  20775384.6204  -18861297.43047 -14598307.08463
 91  4 25 22 44 14.9990000  0  5G13G 2G15G19G 6
  22775322.0734   -5054355.48445  -2971091.28961
  20412976.073   -16402020.708 7 -12706640.01623
  23710006.394     -883865.598 5   -615866.79621
  22787145.5584   10563138.72545   8232541.96561
  20771007.433   -18884289.495 7 -14616222.92923
 91  4 25 22 44 29.9990000  0  5G13G 2G15G19G 6
  22764079.003    -5113449.966 5  -3017138.78921
  20413211.276   -16400785.523 7 -12705677.52723
  23706314.3004    -903298.74645   -631009.48961
  22793964.0194   10598980.91745   8260470.89861
  20766642.4404  -18907235.44347 -14634102.85263
 91  4 25 22 44 44.9990000  0  5G13G 2G15G19G 6
  22752844.784    -5172490.989 5  -3063144.66721
  20413456.8394  -16399498.64447 -12704674.75063
  23702629.8084    -922625.53745   -646069.29961
  22800800.1834   10634879.70645   8288443.94461
  20762283.214   -18930133.520 7 -14651945.46723
 91  4 25 22 44 59.9990000  0  5G13G 2G15G19G 6
  22741619.1904   -5231479.83845  -3109109.85461
  20413713.034   -16398161.670 7 -12703632.94623
  23698973.2924    -941847.29145   -661047.24861
  22807637.409    10670833.528 5   8316459.85221
  20757937.3864  -18952984.84747 -14669751.65463
 91  4 25 22 45 14.9990000  0  5G13G 2G15G19G 6
  22730404.097    -5290415.340 5  -3155033.51421
  20413974.730   -16396774.117 7 -12702551.72323
  23695336.2064    -960963.12145   -675942.67361
  22814490.5114   10706842.75645   8344518.95961
  20753596.894   -18975788.630 7 -14687520.79523
 91  4 25 22 45 29.9990000  0  5G13G 2G15G19G 6
  22719198.909    -5349297.765 5  -3200915.80321
  20414249.917   -16395336.741 7 -12701431.68223
  23691719.097     -979973.331 5   -690755.81621
  22821351.5264   10742906.87245   8372620.81761
  20749266.6204  -18998545.37047 -14705253.27963
 91  4 25 22 45 44.9990000  0  5G13G 2G15G19G 6
  22707999.667    -5408126.622 5  -3246756.35221
  20414531.5194  -16393849.35947 -12700272.67263
  23688122.503     -998877.495 5   -705486.30121
  22828229.1904   10779025.72245   8400765.33461
  20744945.1204  -19021254.67547 -14722948.80863
 91  4 25 22 45 59.9990000  0  5G13G 2G15G19G 6
  22696823.5344   -5466893.43145  -3292548.52961
  20414825.8234  -16392303.80547 -12699068.34063
  23684543.0114   -1017667.09945   -720127.50761
  22835115.870    10815207.558 5   8428958.91921
  20740634.4254  -19043908.01547 -14740600.72463
 91  4 25 22 46 14.9990000  0  5G13G 2G15G19G 6
  22685643.6904   -5525607.49445  -3338299.65261
  20415129.1674  -16390710.10647 -12697826.48563
  23680987.769    -1036351.783 5   -734686.96421
  22842010.5814   10851442.53245   8457193.91861
  20736331.5584  -19066515.08247 -14758216.57763
 91  4 25 22 46 29.9990000  0  5G13G 2G15G19G 6
  22674488.5344   -5584268.75445  -3384009.60961
  20415441.9174  -16389068.52747 -12696547.32763
  23677454.706    -1054931.452 5   -749164.62921
  22848914.5264   10887730.21945   8485470.00261
  20732037.6444  -19089075.87947 -14775796.38463
 91  4 25 22 46 44.9990000  0  5G13G 2G15G19G 6
  22663332.8864   -5642872.31045  -3429674.57461
  20415764.9174  -16387374.30547 -12695227.14463
  23673940.7844   -1073401.16745   -763556.56861
  22855828.659    10924075.389 5   8513790.85821
  20727756.0424  -19111585.52247 -14793336.33163
 91  4 25 22 46 59.9990000  0  5G13G 2G15G19G 6
  22652188.198    -5701421.956 5  -3475297.55721
  20416095.8704  -16385632.02847 -12693869.51763
  23670445.4804   -1091764.94845   -777865.97561
  22862761.206    10960473.798 5   8542153.22221
  20723479.878   -19134048.024 7 -14810839.53723
 91  4 25 22 47 14.9990000  0  5G13G 2G15G19G 6
  22641058.050    -5759918.188 5  -3520878.93821
  20416437.089   -16383842.935 8 -12692475.41023
  23666969.589    -1110023.884 5   -792093.68621
  22869692.2304   10996924.11945   8570556.02661
  20719215.8554  -19156464.33947 -14828306.76363
 91  4 25 22 47 29.9990000  0  5G13G 2G15G19G 6
  22629939.308    -5818358.630 5  -3566416.81121
  20416785.0344  -16382004.70647 -12691043.01763
  23663519.511    -1128175.404 5   -806237.71221
  22876637.4954   11033428.47645   8599000.94961
  20714957.7534  -19178832.08647 -14845736.14363
 91  4 25 22 47 44.9990000  0  5G13G 2G15G19G 6
  22618825.612    -5876739.288 5  -3611908.11821
  20417146.0734  -16380114.15648 -12689569.85963
  23660086.784    -1146215.600 5   -820294.97921
  22883594.4334   11069990.29445   8627490.63661
  20710713.495   -19201147.320 7 -14863124.59823
 91  4 25 22 47 59.9990000  0  5G13G 2G15G19G 6
  22607730.808    -5935061.276 5  -3657353.69021
  20417515.276   -16378172.628 7 -12688056.96823
  23656674.831    -1164145.806 5   -834266.53521
  22890566.058    11106608.018 5   8656023.89021
  20706474.2144  -19223411.50547 -14880473.27263
 91  4 25 22 48 14.9990000  0  5G13G 2G15G19G 6
  22596639.2304   -5993326.69745  -3702755.21161
  20417895.5734  -16376182.80348 -12686506.44763
  23653276.448    -1181968.141 5   -848154.02721
  22897542.558    11143279.219 5   8684598.79721
  20702248.3864  -19245626.80947 -14897783.86763
 91  4 25 22 48 29.9990000  0  5G13G 2G15G19G 6
  22585567.698    -6051532.877 5  -3748110.56321
  20418282.2304  -16374142.15348 -12684916.32163
  23649910.0264   -1199680.11545   -861955.54661
  22904532.1904   11180006.27145   8713217.24761
  20698030.4404  -19267790.52147 -14915054.25963
 91  4 25 22 48 44.9990000  0  5G13G 2G15G19G 6
  22574503.933    -6109682.853 5  -3793422.09821
  20418678.1124  -16372054.03847 -12683289.20963
  23646557.9564   -1217284.60645   -875673.30261
  22911531.730    11216785.593 5   8741876.41021
  20693822.7224  -19289905.87247 -14932286.96163
 91  4 25 22 48 59.9990000  0  5G13G 2G15G19G 6
  22563444.6124   -6167778.12945  -3838691.02761
  20419084.8704  -16369920.76248 -12681626.91363
  23643228.6124   -1234783.54845   -889308.79161
  22918534.909    11253615.116 5   8770574.69121
  20689621.3624  -19311974.64147 -14949483.37563
 91  4 25 22 49 14.9990000  0  5G13G 2G15G19G 6
  22552405.050    -6225814.937 5  -3883914.36721
  20419500.4404  -16367739.10048 -12679926.90963
  23639916.9254   -1252173.47045   -902859.38561
  22925558.730    11290498.127 5   8799314.65321
  20685433.4644  -19333993.30947 -14966640.74063
 91  4 25 22 49 29.9990000  0  5G13G 2G15G19G 6
  22541366.9724   -6283789.63645  -3929089.33761
  20419924.9334  -16365505.87847 -12678186.72563
  23636631.2454   -1269450.84845   -916322.23661
  22932586.730    11327437.734 5   8828098.70621
  20681253.6904  -19355958.40547 -14983756.37063
 91  4 25 22 49 44.9980000  0  5G13G 2G15G19G 6
  22530347.647    -6341703.718 5  -3974217.08021
  20420358.7794  -16363227.03847 -12676411.00063
  23633366.9674   -1286619.68745   -929700.51261
  22939623.928    11364425.739 5   8856920.49221
  20677082.6234  -19377873.89947 -15000833.35163
 91  4 25 22 49 59.9980000  0  5G13G 2G15G19G 6
  22519335.865    -6399563.792 5  -4019302.70621
  20420801.4674  -16360901.35448 -12674598.77663
  23630115.5684   -1303681.41545   -942995.34161
  22946673.678    11401467.979 5   8885784.52821
  20672919.873   -19399741.540 7 -15017873.04423
 91  4 25 22 50 14.9980000  0  5G13G 2G15G19G 6
  22508338.3344   -6457368.51046  -4064345.23361
  20421252.7404  -16358531.86248 -12672752.41663
  23626891.8974   -1320637.45345   -956207.83861
  22953732.8344   11438559.09745   8914686.64961
  20668769.3894  -19421562.44547 -15034876.31563
 91  4 25 22 50 29.9980000  0  5G13G 2G15G19G 6
  22497351.678    -6515113.617 6  -4109341.29021
  20421713.7174  -16356115.13548 -12670869.24363
  23623687.6074   -1337483.68445   -969334.73361
  22960799.873    11475702.448 5   8943629.46721
  20664624.3114  -19443333.00547 -15051840.35763
 91  4 25 22 50 44.9980000  0  5G13G 2G15G19G 6
  22486374.678    -6572795.410 6  -4154288.00121
  20422182.8114  -16353647.81348 -12668946.64463
  23620501.3424   -1354216.71145   -982373.43761
  22967882.772    11512901.434 5   8972615.63821
  20660493.0684  -19465049.31947 -15068762.12463
 91  4 25 22 50 59.9980000  0  5G13G 2G15G19G 6
  22475407.631    -6630417.100 6  -4199187.89221
  20422659.9904  -16351133.54248 -12666987.46863
  23617337.615    -1370839.801 5   -995326.46121
  22974970.2404   11550152.22645   9001642.18461
  20656370.248   -19486715.044 7 -15085644.48323
 91  4 25 22 51 14.9980000  0  5G13G 2G15G19G 6
  22464455.2484   -6687979.32146  -4244041.42561
  20423148.7324  -16348573.38348 -12664992.53463
  23614195.8424   -1387353.83845  -1008194.50261
  22982068.5294   11587454.15045   9030708.56061
  20652257.2404  -19508330.75447 -15102487.86363
 91  4 25 22 51 29.9980000  0  5G13G 2G15G19G 6
  22453511.3574   -6745478.14846  -4288845.56961
  20423644.5684  -16345963.82948 -12662959.10663
  23611072.4204   -1403754.88645  -1020974.52261
  22989174.7484   11624810.55445   9059817.40561
  20648153.8424  -19529892.68047 -15119289.33263
 91  4 25 22 51 44.9980000  0  5G13G 2G15G19G 6
  22442585.209    -6802912.622 6  -4333599.58721
  20424151.1154  -16343304.13648 -12660886.61463
  23607970.584    -1420041.776 5  -1033665.58321
  22996296.6934   11662222.04945   9088969.17461
  20644060.6004  -19551399.84047 -15136048.12863
 91  4 25 22 51 59.9980000  0  5G13G 2G15G19G 6
  22431664.9364   -6860283.44946  -4378304.00661
  20424665.8974  -16340595.66448 -12658776.10763
  23604897.1074   -1436215.51945  -1046268.47661
  23003423.803    11699687.328 5   9118162.86321
  20639979.756   -19572853.174 7 -15152764.98623
 91  4 25 22 52 14.9980000  0  5G13G 2G15G19G 6
  22420758.9434   -6917592.91346  -4422960.61061
  20425190.7404  -16337841.19048 -12656629.75863
  23601840.5224   -1452278.60445  -1058785.13461
  23010566.397    11737203.732 5   9147396.38321
  20635906.686   -19594255.117 7 -15169441.80523
 91  4 25 22 52 29.9980000  0  5G13G 2G15G19G 6
  22409866.654    -6974842.681 6  -4467570.69621
  20425722.1004  -16335042.78748 -12654449.18363
  23598807.990    -1468232.749 5  -1071216.92221
  23017707.5144   11774769.15045   9176668.10461
  20631840.9364  -19615607.46447 -15186079.96863
 91  4 25 22 52 44.9980000  0  5G13G 2G15G19G 6
  22398984.2174   -7032028.32046  -4512130.80461
  20426264.2254  -16332196.47148 -12652231.26963
  23595789.678    -1484073.949 5  -1083560.68021
  23024871.8264   11812387.44945   9205981.01761
  20627789.6154  -19636906.07747 -15202676.25863
 91  4 25 22 52 59.9980000  0  5G13G 2G15G19G 6
  22388113.740    -7089145.531 5  -4556637.61521
  20426814.2954  -16329298.50348 -12649973.10963
  23592799.318    -1499797.878 5  -1095813.04321
  23032039.5924   11850062.49045   9235338.14261
  20623747.9594  -19658146.76047 -15219227.40663
 91  4 25 22 53 14.9980000  0  5G13G 2G15G19G 6
  22377258.8734   -7146199.78846  -4601095.35061
  20427375.3504  -16326354.90848 -12647679.39363
  23589830.8654   -1515410.27245  -1107978.52961
  23039218.3814   11887788.33645   9264734.87461
  20619715.662   -19679335.193 7 -15235737.85223
 91  4 25 22 53 29.9980000  0  5G13G 2G15G19G 6
  22366415.295    -7203187.643 6  -4645501.35821
  20427945.1314  -16323362.39348 -12645347.56463
  23586872.568    -1530907.797 5  -1120054.47921
  23046405.037    11925568.013 5   9294173.52521
  20615694.8034  -19700467.94347 -15252204.90063
 91  4 25 22 53 44.9980000  0  5G13G 2G15G19G 6
  22355581.4434   -7260104.10346  -4689851.71561
  20428525.1234  -16320316.66848 -12642974.26563
  23583956.0224   -1546285.72745  -1132037.27361
  23053609.0294   11963405.85345   9323657.51861
  20611684.3264  -19721540.36147 -15268624.93563
 91  4 25 22 53 59.9980000  0  5G13G 2G15G19G 6
  22344761.9204   -7316956.18646  -4734151.93761
  20429113.0614  -16317225.01548 -12640565.18163
  23581048.9904   -1561551.14745  -1143932.38061
  23060814.412    12001294.602 5   9353181.17321
  20607683.7644  -19742559.47247 -15285003.43263
 91  4 25 22 54 14.9980000  0  5G13G 2G15G19G 6
  22333957.4204   -7373745.34946  -4778403.12261
  20429710.4044  -16314089.01448 -12638121.53963
  23578158.9824   -1576705.37745  -1155740.85361
  23068041.6934   12039232.43045   9382743.07161
  20603692.6624  -19763526.63847 -15301341.45463
 91  4 25 22 54 29.9980000  0  5G13G 2G15G19G 6
  22323161.818    -7430467.168 6  -4822601.82021
  20430317.1004  -16310904.86648 -12635640.38363
  23575301.850    -1591744.368 5  -1167459.51721
  23075265.6074   12077223.27045   9412346.27761
  20599715.9124  -19784437.61547 -15317635.69263
 91  4 25 22 54 44.9980000  0  5G13G 2G15G19G 6
  22312383.115    -7487120.526 6  -4866747.18921
  20430930.3974  -16307672.22448 -12633121.43563
  23572462.092    -1606667.079 5  -1179087.57621
  23082506.693    12115267.495 5   9441991.07921
  20595748.3114  -19805291.78347 -15333885.66263
 91  4 25 22 54 59.9980000  0  5G13G 2G15G19G 6
  22301611.8114   -7543705.02346  -4910838.88261
  20431553.8654  -16304391.01748 -12630564.64863
  23569639.943    -1621473.159 5  -1190624.77621
  23089754.756    12153365.238 5   9471677.59521
  20591788.5614  -19826088.66547 -15350091.00063
 91  4 25 22 55 14.9980000  0  5G13G 2G15G19G 6
  22290857.693    -7600218.156 6  -4954874.99221
  20432190.2094  -16301059.12948 -12627968.37063
  23566849.8034   -1636160.28045  -1202069.22861
  23097018.006    12191518.743 5   9501407.54921
  20587843.7564  -19846825.81147 -15366249.78263
 91  4 25 22 55 29.9980000  0  5G13G 2G15G19G 6
  22280120.3654   -7656661.98046  -4998857.07361
  20432834.0294  -16297679.12748 -12625334.59863
  23564082.0064   -1650730.73445  -1213422.81261
  23104287.803    12229725.374 5   9531178.89421
  20583909.0454  -19867505.57147 -15382363.85163
 91  4 25 22 55 44.9980000  0  5G13G 2G15G19G 6
  22269386.889    -7713035.277 6  -5042784.20821
  20433483.8264  -16294250.22547 -12622662.72663
  23561328.8184   -1665183.54145  -1224684.72161
  23111570.3574   12267985.82145   9560992.19861
  20579985.2874  -19888126.76447 -15398432.28463
 91  4 25 22 55 59.9980000  0  5G13G 2G15G19G 6
  22258677.779    -7769334.430 6  -5086653.56121
  20434147.6394  -16290769.11947 -12619950.17263
  23558597.998    -1679515.132 5  -1235852.18521
  23118858.7954   12306303.26845   9590849.90461
  20576071.4044  -19908686.07747 -15414452.49363
 91  4 25 22 56 14.9980000  0  5G13G 2G15G19G 6
  22247980.639    -7825561.836 6  -5130467.00721
  20434819.9594  -16287238.71548 -12617199.20563
  23555890.842    -1693728.177 5  -1246927.25321
  23126163.764    12344674.682 5   9620749.65721
  20572171.8734  -19929185.93947 -15430426.38363
 91  4 25 22 56 29.9980000  0  5G13G 2G15G19G 6
  22237292.7484   -7881717.91846  -5174224.89061
  20435501.6704  -16283659.73348 -12614410.38263
  23553211.506    -1707823.164 5  -1257910.33921
  23133474.9204   12383099.35244   9650690.90761
  20568281.9984  -19949626.93247 -15446354.39163
 91  4 25 22 56 44.9980000  0  5G13G 2G15G19G 6
  22226619.6544   -7937797.26046  -5217922.95961
  20436191.7094  -16280027.36048 -12611579.95763
  23550552.0224   -1721794.64445  -1268797.20261
  23140798.068    12421582.440 5   9680677.69221
  20564403.7484  -19970003.64047 -15462232.31663
 91  4 25 22 56 59.9980000  0  5G13G 2G15G19G 6
  22215962.170    -7993800.787 6  -5261561.96621
  20436893.1934  -16276342.86948 -12608708.92463
  23547915.8814   -1735643.83245  -1279588.74761
  23148134.287    12460122.616 5   9710708.95721
  20560537.4514  -19990317.13147 -15478060.97463
 91  4 25 22 57 14.9980000  0  5G13G 2G15G19G 6
  22205321.1154   -8049726.82646  -5305140.57561
  20437603.7644  -16272605.12548 -12605796.39363
  23545308.459    -1749369.250 5  -1290283.86621
  23155478.420    12498720.905 5   9740785.49621
  20556682.9284  -20010565.91147 -15493839.21463
 91  4 25 22 57 29.9980000  0  5G13G 2G15G19G 6
  22194692.397    -8105575.269 6  -5348658.73821
  20438325.7014  -16268814.62748 -12602842.75563
  23542716.9674   -1762971.25345  -1300882.79661
  23162827.818    12537376.730 4   9770906.87521
  20552842.5844  -20030750.25447 -15509567.23763
 91  4 25 22 57 44.9980000  0  5G13G 2G15G19G 6
  22184080.709    -8161349.811 6  -5392119.29921
  20439055.3424  -16264975.10148 -12599850.91063
  23540150.6864   -1776453.10245  -1311388.10561
  23170201.5534   12576086.38644   9801070.19061
  20549012.9824  -20050873.62047 -15525247.74663
 91  4 25 22 57 59.9980000  0  5G13G 2G15G19G 6
  22173480.397    -8217045.257 6  -5435518.24721
  20439795.8344  -16261081.86448 -12596817.21463
  23537610.5764   -1789809.92245  -1321795.98161
  23177579.678    12614854.320 5   9831278.94021
  20545197.732   -20070931.181 7 -15540876.98523
 91  4 25 22 58 14.9980000  0  5G13G 2G15G19G 6
  22162896.498    -8272664.240 6  -5478857.60221
  20440546.7954  -16257138.07048 -12593744.12663
  23535088.803    -1803044.426 5  -1332108.55821
  23184960.967    12653677.504 4   9861530.71421
  20541394.3734  -20090925.40047 -15556456.86063
 91  4 25 22 58 29.9980000  0  5G13G 2G15G19G 6
  22152325.0064   -8328205.05546  -5522136.05661
  20441306.9204  -16253142.31148 -12590630.53863
  23532594.545    -1816155.061 5  -1342324.61921
  23192367.2564   12692557.33745   9891826.65861
  20537600.8734  -20110854.85147 -15571986.27463
 91  4 25 22 58 44.9980000  0  5G13G 2G15G19G 6
  22141774.2644   -8383665.04846  -5565351.54161
  20442076.9904  -16249092.63848 -12587474.94563
  23530126.678    -1829139.634 5  -1352442.43421
  23199771.7564   12731495.45244   9922168.00061
  20533820.2564  -20130717.24547 -15587463.42963
 91  4 25 22 58 59.9980000  0  5G13G 2G15G19G 6
  22131236.9514   -8439040.29646  -5608500.97961
  20442860.9364  -16244985.38548 -12584274.49063
  23527678.084    -1841994.201 5  -1362458.94821
  23207193.748    12770495.794 4   9952557.83821
  20530051.9984  -20150508.68747 -15602885.29463
 91  4 25 22 59 14.9980000  0  5G13G 2G15G19G 6
  22120709.5374   -8494342.67746  -5651593.64361
  20443649.6934  -16240832.67748 -12581038.61163
  23525255.8734   -1854730.81845  -1372383.56261
  23214628.436    12809546.255 4   9982986.71221
  20526300.2874  -20170240.87447 -15618260.98963
 91  4 25 22 59 29.9980000  0  5G13G 2G15G19G 6
  22110204.0614   -8549563.29246  -5694622.59761
  20444449.6864  -16236626.13147 -12577760.77563
  23522859.428    -1867340.809 5  -1382209.50921
  23222068.857    12848654.907 4  10013460.94921
  20522556.5614  -20189905.21847 -15633583.82263
 91  4 25 22 59 44.9980000  0  5G13G 2G15G19G 6
  22099707.6474   -8604701.76846  -5737587.54061
  20445260.7094  -16232366.02947 -12574441.20963
  23520480.373    -1879823.855 5  -1391936.52121
  23229518.0064   12887821.75044  10043980.52161
  20518826.7174  -20209501.53247 -15648853.65063
 91  4 25 22 59 59.9980000  0  5G13G 2G15G19G 6
  22089234.5764   -8659759.87746  -5780489.86061
  20446081.2014  -16228054.30547 -12571081.42163
  23518133.8734   -1892181.84445  -1401566.12361
  23236986.6784   12927044.79045  10074543.88961
  20515112.3504  -20229031.53947 -15664071.79963
 91  4 25 23  0 14.9980000  0  5G13G 2G15G19G 6
  22078771.264    -8714741.121 6  -5823332.28421
  20446911.5144  -16223694.80547 -12567684.40963
  23515796.865    -1904418.320 5  -1411100.99421
  23244458.5374   12966320.20445  10105148.04761
  20511406.1234  -20248498.81147 -15679241.06663
 91  4 25 23  0 29.9980000  0  5G13G 2G15G19G 6
  22068325.084    -8769640.878 6  -5866111.22621
  20447750.8734  -16219283.58448 -12564247.09263
  23513491.0924   -1916529.15845  -1420538.02961
  23251946.490    13005651.927 5  10135796.10421
  20507714.670   -20267899.108 7 -15694358.15223
 91  4 25 23  0 44.9980000  0  5G13G 2G15G19G 6
  22057893.701    -8824457.621 6  -5908825.46421
  20448599.0374  -16214819.43247 -12560768.52563
  23511214.8424   -1928512.80445  -1429875.90861
  23259442.256    13045040.909 5  10166488.76921
  20504036.7014  -20287230.94647 -15709421.88963
 91  4 25 23  0 59.9980000  0  5G13G 2G15G19G 6
  22047476.4124   -8879192.34446  -5951475.80361
  20449458.6234  -16210303.96347 -12557249.98063
  23508959.514    -1940370.460 5  -1439115.59821
  23266947.9674   13084485.50345  10197224.77661
  20500371.4124  -20306495.49347 -15724433.20063
 91  4 25 23  1 14.9980000  0  5G13G 2G15G19G 6
  22037078.623    -8933844.047 6  -5994061.44821
  20450328.1704  -16205736.55747 -12553690.96262
  23506724.5064   -1952101.40545  -1448256.61161
  23274463.5764   13123986.41644  10228004.65261
  20496717.2724  -20325691.86547 -15739391.38062
 91  4 25 23  1 29.9980000  0  5G13G 2G15G19G 6
  22026695.9754   -8988414.16946  -6036583.52561
  20451206.1474  -16201119.23247 -12550093.05263
  23504518.068    -1963707.462 5  -1457300.27021
  23281991.772    13163541.506 5  10258826.75121
  20493076.7724  -20344821.74147 -15754297.75263
 91  4 25 23  1 44.9980000  0  5G13G 2G15G19G 6
  22016324.0454   -9042904.72846  -6079043.60461
  20452093.0534  -16196454.32447 -12546458.05363
  23502334.459    -1975190.564 5  -1466248.11421
  23289527.061    13203148.506 5  10289689.31821
  20489450.4674  -20363887.22747 -15769153.94363
 91  4 25 23  1 59.9980000  0  5G13G 2G15G19G 6
  22005974.3264   -9097308.13546  -6121435.78061
  20452994.0064  -16191734.66548 -12542780.39763
  23500173.5534   -1986543.39345  -1475094.45061
  23297076.170    13242814.401 4  10320597.76021
  20485837.397   -20382880.727 7 -15783954.05023
 91  4 25 23  2 14.9980000  0  5G13G 2G15G19G 6
  21995634.2794   -9151624.57946  -6163760.18561
  20453901.1004  -16186960.62948 -12539060.37263
  23498038.3264   -1997766.11245  -1483839.41261
  23304633.4364   13282538.88544  10351551.86561
  20482232.2094  -20401802.59547 -15798698.33663
 91  4 25 23  2 29.9980000  0  5G13G 2G15G19G 6
  21985313.3974   -9205856.56346  -6206018.78661
  20454819.0684  -16182135.03048 -12535300.16563
  23495924.100    -2008861.390 5  -1492485.07421
  23312199.8974   13322319.11944  10382549.40161
  20478646.232   -20420655.225 7 -15813388.66923
 91  4 25 23  2 44.9980000  0  5G13G 2G15G19G 6
  21975012.818    -9259999.431 6  -6248207.95521
  20455748.3114  -16177253.90948 -12531496.69963
  23493839.8574   -2019824.84345  -1501027.99261
  23319787.1544   13362159.08344  10413593.49861
  20475074.357   -20439434.289 7 -15828021.68423
 91  4 25 23  2 59.9980000  0  5G13G 2G15G19G 6
  21964724.4044   -9314058.89246  -6290332.12061
  20456686.0294  -16172323.47848 -12527654.80263
  23491778.6704   -2030662.21145  -1509472.68861
  23327373.7794   13402052.51844  10444679.24661
  20471512.576   -20458145.723 7 -15842601.99423
 91  4 25 23  3 14.9980000  0  5G13G 2G15G19G 6
  21954451.1624   -9368034.52446  -6332390.96461
  20457634.8264  -16167343.21548 -12523774.08363
  23489741.3424   -2041373.01745  -1517818.77161
  23334978.420    13441999.592 5  10475806.79121
  20467961.951   -20476788.855 7 -15857129.09223
 91  4 25 23  3 29.9980000  0  5G13G 2G15G19G 6
  21944198.467    -9421922.117 6  -6374381.21321
  20458593.3894  -16162309.73148 -12519851.88463
  23487722.1394   -2051953.31345  -1526063.15361
  23342592.6704   13482004.04844  10506979.05361
  20464430.8184  -20495359.78047 -15871599.91363
 91  4 25 23  3 44.9980000  0  5G13G 2G15G19G 6
  21933957.7954   -9475721.67346  -6416302.85361
  20459560.4204  -16157223.62548 -12515888.68463
  23485737.0224   -2062403.70045  -1534206.30461
  23350216.7644   13522065.15644  10538195.47061
  20460911.154   -20513858.721 7 -15886014.65323
 91  4 25 23  3 59.9980000  0  5G13G 2G15G19G 6
  21923738.826    -9529430.758 6  -6458154.01421
  20460536.4284  -16152082.52547 -12511882.63763
  23483776.9674   -2072721.69445  -1542246.27761
  23357844.842    13562185.170 4  10569457.78221
  20457404.772   -20532283.165 7 -15900371.34823
 91  4 25 23  4 14.9980000  0  5G13G 2G15G19G 6
  21913535.3344   -9583053.83046  -6499938.12861
  20461525.7484  -16146891.25947 -12507837.49563
  23481831.740    -2082912.011 5  -1550186.77621
  23365495.3504   13602359.33744  10600762.28461
  20453911.365   -20550637.692 7 -15914673.55123
 91  4 25 23  4 29.9980000  0  5G13G 2G15G19G 6
  21903349.193    -9636590.031 6  -6541654.56221
  20462524.8814  -16141649.50448 -12503753.01663
  23479918.022    -2092973.871 5  -1558027.15321
  23373152.928    13642587.664 4  10632108.98721
  20450432.881   -20568921.606 7 -15928920.74223
 91  4 25 23  4 44.9980000  0  5G13G 2G15G19G 6
  21893176.0064   -9690037.63546  -6583301.95861
  20463530.9674  -16136355.98548 -12499628.19663
  23478023.5764   -2102905.61645  -1565766.15361
  23380815.1704   13682871.52244  10663498.95961
  20446964.943   -20587133.461 7 -15943111.77723
 91  4 25 23  4 59.9980000  0  5G13G 2G15G19G 6
  21883025.5144   -9743397.06546  -6624880.65061
  20464547.2404  -16131011.53348 -12495463.69463
  23476167.123    -2112707.888 5  -1573404.28221
  23388488.9594   13723210.00744  10694931.52161
  20443514.209   -20605273.713 7 -15957247.01823
 91  4 25 23  5 14.9980000  0  5G13G 2G15G19G 6
  21872887.209    -9796666.406 6  -6666389.13921
  20465574.2794  -16125614.88848 -12491258.51463
  23474324.5374   -2122379.31645  -1580940.42761
  23396182.3504   13763604.56344  10726407.75761
  20440077.928   -20623340.622 7 -15971325.11023
 91  4 25 23  5 29.9980000  0  5G13G 2G15G19G 6
  21862766.7174   -9849847.66746  -6707828.98161
  20466610.0144  -16120168.21847 -12487014.35763
  23472504.0144   -2131921.95445  -1588376.23961
  23403875.240    13804052.761 4  10757925.76821
  20436653.475   -20641336.290 7 -15985347.68923
 91  4 25 23  5 44.9980000  0  5G13G 2G15G19G 6
  21852666.5924   -9902940.39446  -6749199.85761
  20467656.8344  -16114671.45248 -12482731.16863
  23470714.295    -2141335.370 5  -1595711.35421
  23411582.100    13844554.578 4  10789485.60721
  20433240.897   -20659260.188 7 -15999314.34623
 91  4 25 23  5 59.9980000  0  5G13G 2G15G19G 6
  21842578.342    -9955944.199 6  -6790501.44221
  20468712.7014  -16109124.73048 -12478409.05163
  23468947.2174   -2150619.30145  -1602945.59161
  23419300.6074   13885109.95644  10821087.16161
  20429844.186   -20677112.198 7 -16013224.99023
 91  4 25 23  6 14.9980000  0  5G13G 2G15G19G 6
  21832506.5374  -10008860.11646  -6831734.52661
  20469777.9904  -16103529.25448 -12474048.93363
  23467201.5064   -2159774.80345  -1610079.70561
  23427023.748    13925717.765 4  10852729.55821
  20426461.084   -20694893.238 7 -16027080.32023
 91  4 25 23  6 29.9980000  0  5G13G 2G15G19G 6
  21822458.022   -10061690.135 6  -6872900.68921
  20470850.4984  -16097887.45448 -12469652.72363
  23465490.4984   -2168804.20145  -1617115.60261
  23434761.7564   13966375.44144  10884410.82561
  20423090.412   -20712605.383 7 -16040881.97123
 91  4 25 23  6 44.9980000  0  5G13G 2G15G19G 6
  21812420.3734  -10114430.52546  -6913997.00461
  20471933.8504  -16092196.00748 -12465217.82763
  23463792.092    -2177703.930 5  -1624050.43721
  23442517.1624   14007086.23144  10916133.49261
  20419732.084   -20730245.157 7 -16054627.22523
 91  4 25 23  6 59.9980000  0  5G13G 2G15G19G 6
  21802396.9434  -10167077.07346  -6955020.20261
  20473026.9364  -16086451.26148 -12460741.39763
  23462128.201    -2186470.273 5  -1630881.34621
  23450273.6934   14047853.60944  10947900.24361
  20416391.178   -20747808.612 7 -16068313.01423
 91  4 25 23  7 14.9980000  0  5G13G 2G15G19G 6
  21792397.998   -10219639.461 6  -6995977.83121
  20474128.8114  -16080663.12848 -12456231.15863
  23460485.732    -2195112.720 5  -1637615.69321
  23458034.6394   14088667.58144  10979703.29961
  20413061.397   -20765305.280 7 -16081946.75723
 91  4 25 23  7 29.9980000  0  5G13G 2G15G19G 6
  21782409.4984  -10272112.81946  -7036866.07161
  20475240.6074  -16074827.51848 -12451683.92163
  23458863.092    -2203626.866 5  -1644250.06321
  23465814.2564   14129532.41144  11011545.98961
  20409744.6234  -20782730.55147 -16095524.86263
 91  4 25 23  7 44.9980000  0  5G13G 2G15G19G 6
  21772442.904   -10324502.264 6  -7077688.94221
  20476358.5064  -16068949.82948 -12447103.89663
  23457263.147    -2212018.049 5  -1650788.62821
  23473597.498    14170442.734 4  11043424.11221
  20406442.7094  -20800089.75047 -16109051.47963
 91  4 25 23  7 59.9980000  0  5G13G 2G15G19G 6
  21762489.881   -10376800.953 6  -7118441.08521
  20477484.3734  -16063023.51348 -12442485.98363
  23455694.529    -2220279.593 5  -1657226.18021
  23481395.568    14211404.570 4  11075342.41121
  20403151.3814  -20817376.07847 -16122521.31863
 91  4 25 23  8 14.9980000  0  5G13G 2G15G19G 6
  21752551.311   -10429010.704 6  -7159123.93021
  20478622.7014  -16057050.63748 -12437831.79063
  23454143.014    -2228412.944 5  -1663563.83021
  23489190.342    14252416.103 4  11107299.40221
  20399876.725   -20834591.143 7 -16135935.62423
 91  4 25 23  8 29.9980000  0  5G13G 2G15G19G 6
  21742634.272   -10481130.578 6  -7199736.73321
  20479767.4044  -16051030.81248 -12433141.00463
  23452623.1394   -2236417.73345  -1669801.31661
  23497009.9514   14293477.71544  11139295.42661
  20396613.647   -20851734.335 7 -16149293.93423
 91  4 25 23  8 44.9980000  0  5G13G 2G15G19G 6
  21732732.9124  -10533164.38346  -7240282.47861
  20480922.8814  -16044968.27048 -12428416.93963
  23451124.686    -2244298.328 5  -1675942.00921
  23504834.639    14334584.952 4  11171326.99721
  20393364.5844  -20868809.72847 -16162599.40563
 91  4 25 23  8 59.9980000  0  5G13G 2G15G19G 6
  21722849.678   -10585106.514 6  -7280756.78721
  20482085.787   -16038857.957 8 -12423655.64923
  23449648.834    -2252049.074 5  -1681981.52821
  23512667.1004   14375743.06344  11203398.22561
  20390129.4204  -20885811.69447 -16175847.66263
 91  4 25 23  9 14.9980000  0  5G13G 2G15G19G 6
  21712981.7954  -10636961.10246  -7321162.87961
  20483254.967   -16032704.372 8 -12418860.63423
  23448198.592    -2259674.275 5  -1687923.23421
  23520510.779    14416947.239 4  11235505.35321
  20386905.8894  -20902744.64847 -16189042.13863
 91  4 25 23  9 29.9980000  0  5G13G 2G15G19G 6
  21703134.662   -10688722.811 6  -7361496.60221
  20484435.084   -16026502.151 8 -12414027.72623
  23446771.568    -2267168.569 5  -1693762.91621
  23528354.717    14458202.828 4  11267652.50421
  20383698.0684  -20919603.00947 -16202178.49663
 91  4 25 23  9 44.9980000  0  5G13G 2G15G19G 6
  21693297.701   -10740396.700 6  -7401761.89421
  20485623.9434  -16020256.94848 -12409161.32663
  23445371.8734   -2274537.36945  -1699504.82361
  23536221.115    14499504.182 4  11299835.37121
  20380504.3654  -20936391.98447 -16215260.78563
 91  4 25 23  9 59.9980000  0  5G13G 2G15G19G 6
  21683483.381   -10791982.800 6  -7441958.77421
  20486821.1394  -16013969.08548 -12404261.68463
  23443995.0064   -2281780.81845  -1705149.06961
  23544089.4044   14540850.91044  11332053.54961
  20377323.5454  -20953111.62147 -16228289.03963
 91  4 25 23 10 14.9980000  0  5G13G 2G15G19G 6
  21673686.7174  -10843478.12846  -7482084.91761
  20488024.5224  -16007635.85847 -12399326.69463
  23442639.6154   -2288895.73345  -1710693.12961
  23551955.9904   14582245.68744  11364309.17761
  20374155.6474  -20969758.88447 -16241260.90263
 91  4 25 23 10 29.9980000  0  5G13G 2G15G19G 6
  21663901.5684  -10894883.69046  -7522141.12961
  20489239.443   -16001259.034 8 -12394357.73323
  23441309.1154   -2295883.92845  -1716138.46861
  23559849.115    14623686.494 4  11396600.70721
  20371001.1474  -20986335.33747 -16254177.58663
 91  4 25 23 10 44.9980000  0  5G13G 2G15G19G 6
  21654138.615   -10946201.229 6  -7562128.75221
  20490459.959   -15994840.618 8 -12389356.35923
  23440002.7094   -2302747.37145  -1721486.59661
  23567741.404    14665171.474 4  11428926.61321
  20367859.1074  -21002842.59847 -16267040.34763
 91  4 25 23 10 59.9980000  0  5G13G 2G15G19G 6
  21644388.123   -10997427.108 6  -7602044.94221
  20491689.647   -15988377.377 8 -12384320.05523
  23438721.9754   -2309482.71945  -1726734.92461
  23575654.279    14706703.738 4  11461289.39621
  20364734.0144  -21019277.20347 -16279846.50363
 91  4 25 23 11 14.9980000  0  5G13G 2G15G19G 6
  21634655.4044  -11048564.29146  -7641892.02761
  20492928.311   -15981872.519 8 -12379251.32423
  23437463.8894   -2316092.61045  -1731885.47161
  23583559.701    14748280.041 4  11493686.46721
  20361616.9984  -21035641.92947 -16292598.20463
 91  4 25 23 11 29.9980000  0  5G13G 2G15G19G 6
  21624943.389   -11099613.956 6  -7681670.91521
  20494172.7644  -15975327.76747 -12374151.50663
  23436227.0924   -2322578.69845  -1736939.53461
  23591474.615    14789898.687 4  11526116.54921
  20358514.6704  -21051938.28147 -16305296.62763
 91  4 25 23 11 44.9980000  0  5G13G 2G15G19G 6
  21615243.6074  -11150572.52146  -7721378.81461
  20495427.529   -15968739.843 8 -12369018.04723
  23435015.045    -2328937.526 5  -1741894.47421
  23599400.529    14831562.719 4  11558582.00421
  20355429.1624  -21068162.79247 -16317939.06363
 91  4 25 23 11 59.9980000  0  5G13G 2G15G19G 6
  21605564.7794  -11201439.44446  -7761015.31261
  20496688.834   -15962108.730 8 -12363850.93623
  23433832.4984   -2335168.78845  -1746749.97661
  23607338.756    14873272.178 4  11591082.83721
  20352354.4984  -21084314.89747 -16330525.08663
 91  4 25 23 12 14.9980000  0  5G13G 2G15G19G 6
  21595902.717   -11252214.004 6  -7800579.84721
  20497960.607   -15955434.126 8 -12358649.93423
  23432669.162    -2341271.937 5  -1751505.65521
  23615287.4904   14915027.36043  11623619.30061
  20349295.7484  -21100394.14947 -16343054.33863
 91  4 25 23 12 29.9980000  0  5G13G 2G15G19G 6
  21586258.3264  -11302898.97846  -7840074.55061
  20499237.5534  -15948719.18247 -12353417.50563
  23431534.7254   -2347249.96045  -1756163.84361
  23623241.9434   14956824.94444  11656188.81761
  20346251.772   -21116403.212 7 -16355528.90623
 91  4 25 23 12 44.9980000  0  5G13G 2G15G19G 6
  21576629.9984  -11353488.83846  -7879495.16661
  20500524.6784  -15941958.79048 -12348149.65863
  23430420.3654   -2353098.00845  -1760720.77261
  23631208.4904   14998669.93344  11688795.27261
  20343217.2794  -21132336.98247 -16367944.79863
 91  4 25 23 12 59.9980000  0  5G13G 2G15G19G 6
  21567021.7954  -11403991.78646  -7918848.04661
  20501817.959   -15935161.341 8 -12342852.93223
  23429332.514    -2358823.902 5  -1765182.48521
  23639174.045    15040554.094 3  11721432.23721
  20340196.6704  -21148203.54547 -16380308.32263
 91  4 25 23 13 14.9980000  0  5G13G 2G15G19G 6
  21557426.764   -11454405.520 6  -7958131.41221
  20503118.0534  -15928324.73947 -12337525.69663
  23428261.615    -2364425.310 5  -1769547.21321
  23647149.1234   15082479.26843  11754101.18061
  20337193.7254  -21164000.41347 -16392617.54163
 91  4 25 23 13 29.9980000  0  5G13G 2G15G19G 6
  21547851.850   -11504726.818 6  -7997342.74121
  20504426.162   -15921446.333 7 -12332165.88923
  23427219.7404   -2369899.71245  -1773812.96661
  23655140.982    15124447.979 3  11786804.01921
  20334200.0454  -21179724.66247 -16404870.17163
 91  4 25 23 13 44.9980000  0  5G13G 2G15G19G 6
  21538294.115   -11554953.074 6  -8036480.01021
  20505743.865   -15914524.000 8 -12326771.85223
  23426204.2484   -2375244.60945  -1777977.85161
  23663136.342    15166462.300 3  11819542.42221
  20331221.0844  -21195373.96847 -16417064.40763
 91  4 25 23 13 59.9980000  0  5G13G 2G15G19G 6
  21528755.0374  -11605088.85246  -8075546.79561
  20507068.9674  -15907562.48248 -12321347.28763
  23425209.6934   -2380464.88045  -1782045.55661
  23671137.889    15208517.434 3  11852312.61121
  20328257.764   -21210952.722 7 -16429203.66723
 91  4 25 23 14 14.9980000  0  5G13G 2G15G19G 6
  21519231.3734  -11655135.06346  -8114543.77561
  20508402.3344  -15900563.11848 -12315893.22763
  23424242.0144   -2385561.44145  -1786016.90961
  23679148.4984   15250611.96443  11885113.51361
  20325305.7794  -21226461.98047 -16441288.77163
 91  4 25 23 14 29.9980000  0  5G13G 2G15G19G 6
  21509723.4044  -11705092.11446  -8153471.26861
  20509740.1624  -15893526.55948 -12310410.18863
  23423294.686    -2390534.669 5  -1789892.16521
  23687165.795    15292745.159 3  11917944.53221
  20322368.2254  -21241902.02147 -16453319.94063
 91  4 25 23 14 44.9980000  0  5G13G 2G15G19G 6
  21500236.7404  -11754956.07246  -8192326.23961
  20511087.4904  -15886449.22848 -12304895.37663
  23422376.545    -2395380.878 5  -1793668.41621
  23695188.959    15334920.515 3  11950808.42821
  20319442.9514  -21257269.17147 -16465294.32463
 91  4 25 23 14 59.9980000  0  5G13G 2G15G19G 6
  21490762.2404  -11804728.79346  -8231110.10461
  20512439.4124  -15879333.56847 -12299350.69863
  23421476.522    -2400102.147 5  -1797347.32321
  23703226.3034   15377135.67444  11983703.32361
  20316531.897   -21272565.281 7 -16477213.33623
 91  4 25 23 15 14.9980000  0  5G13G 2G15G19G 6
  21481310.9904  -11854404.91846  -8269818.70961
  20513802.1394  -15872174.66047 -12293772.32463
  23420602.107    -2404693.511 5  -1800924.99621
  23711269.7644   15419395.43843  12016632.95261
  20313635.654   -21287785.206 7 -16489072.99723
 91  4 25 23 15 29.9980000  0  5G13G 2G15G19G 6
  21471872.6864  -11903990.00146  -8308456.35961
  20515173.0224  -15864978.43448 -12288164.87063
  23419748.584    -2409160.748 5  -1804405.95121
  23719313.2954   15461693.77843  12049592.66761
  20310753.2644  -21302934.59347 -16500877.69063
 91  4 25 23 15 44.9980000  0  5G13G 2G15G19G 6
  21462455.701   -11953480.566 6  -8347020.38521
  20516549.3574  -15857741.66148 -12282525.81863
  23418923.022    -2413500.655 5  -1807787.67921
  23727371.9984   15504033.68143  12082584.77461
  20307884.389   -21318010.083 7 -16512624.80323
 91  4 25 23 15 59.9980000  0  5G13G 2G15G19G 6
  21453056.5294  -12002876.29846  -8385510.49861
  20517934.1154  -15850464.78347 -12276855.51663
  23418122.436    -2417713.466 5  -1811070.39421
  23735439.1704   15546414.77943  12115608.96861
  20305030.318   -21333011.699 7 -16524314.34823
 91  4 25 23 16 14.9980000  0  5G13G 2G15G19G 6
  21443674.9984  -12052177.61746  -8423927.04561
  20519326.2484  -15843148.17548 -12271154.25763
  23417344.7094   -2421799.42845  -1814254.26561
  23743511.1074   15588836.43843  12148664.75861
  20302190.592   -21347939.624 7 -16535946.47523
 91  4 25 23 16 29.9980000  0  5G13G 2G15G19G 6
  21434313.9824  -12101380.68646  -8462267.03461
  20520726.2874  -15835788.42948 -12265419.38464
  23416594.0764   -2425755.07045  -1817336.55161
  23751587.631    15631302.053 3  12181754.82221
  20299362.6544  -21362790.13347 -16547518.27063
 91  4 25 23 16 44.9980000  0  5G13G 2G15G19G 6
  21424964.553   -12150486.252 6  -8500531.05421
  20522136.3974  -15828386.80048 -12259651.87863
  23415866.326    -2429581.325 5  -1820318.06821
  23759681.756    15673810.357 3  12214878.15121
  20296550.912   -21377564.232 7 -16559030.53523
 91  4 25 23 16 59.9980000  0  5G13G 2G15G19G 6
  21415641.9824  -12199496.02346  -8538720.42661
  20523551.1784  -15820945.13447 -12253853.17663
  23415163.5374   -2433279.59845  -1823199.83061
  23767777.0764   15716359.54943  12248033.32161
  20293755.147   -21392263.350 7 -16570484.37423
 91  4 25 23 17 14.9980000  0  5G13G 2G15G19G 6
  21406331.8734  -12248408.17146  -8576833.72961
  20524975.7404  -15813462.04547 -12248022.19963
  23414482.2954   -2436848.72645  -1825980.97061
  23775877.2094   15758950.87243  12281221.32761
  20290972.139   -21406885.765 7 -16581878.43923
 91  4 25 23 17 29.9980000  0  5G13G 2G15G19G 6
  21397044.4124  -12297226.94346  -8614874.26761
  20526406.6234  -15805942.11247 -12242162.50463
  23413824.9824   -2440293.13045  -1828664.92161
  23783992.0064   15801579.65243  12314438.55461
  20288202.897   -21421435.968 7 -16593216.24223
 91  4 25 23 17 44.9980000  0  5G13G 2G15G19G 6
  21387773.4514  -12345943.57946  -8652835.22061
  20527844.9824  -15798376.61347 -12236267.30963
  23413196.1234   -2443604.09545  -1831244.90161
  23792109.420    15844254.287 3  12347691.47621
  20285451.600   -21435904.946 7 -16604490.74723
 91  4 25 23 17 59.9980000  0  5G13G 2G15G19G 6
  21378520.0764  -12394562.05346  -8690719.67961
  20529293.3424  -15790769.97248 -12230340.05763
  23412589.3424   -2446785.71445  -1833724.07061
  23800241.498    15886970.516 3  12380976.80921
  20282711.881   -21450296.840 7 -16615705.19723
 91  4 25 23 18 14.9980000  0  5G13G 2G15G19G 6
  21369288.5454  -12443081.24346  -8728526.77961
  20530751.6074  -15783121.69848 -12224380.36263
  23412011.6234   -2449837.23645  -1836101.87961
  23808379.0224   15929728.70343  12414294.86061
  20279989.272   -21464610.839 7 -16626858.93723
 91  4 25 23 18 29.9980000  0  5G13G 2G15G19G 6
  21360072.3504  -12491502.67246  -8766257.69961
  20532211.0534  -15775433.74247 -12218389.74763
  23411455.748    -2452760.642 5  -1838379.84021
  23816524.7484   15972526.78843  12447643.99361
  20277277.3974  -21478848.53947 -16637953.22563
 91  4 25 23 18 44.9980000  0  5G13G 2G15G19G 6
  21350880.3574  -12539821.17146  -8803908.42061
  20533684.7954  -15767701.21348 -12212364.40263
  23410923.818    -2455550.914 5  -1840554.08021
  23824681.4364   16015369.47643  12481027.85461
  20274583.522   -21493004.790 7 -16648984.05223
 91  4 25 23 18 59.9980000  0  5G13G 2G15G19G 6
  21341702.1624  -12588037.47846  -8841479.50161
  20535161.7794  -15759925.10348 -12206305.09863
  23410419.537    -2458208.799 5  -1842625.14721
  23832835.3504   16058255.67943  12514445.66461
  20271906.498   -21507080.189 7 -16659951.87723
 91  4 25 23 19 14.9980000  0  5G13G 2G15G19G 6
  21332548.9044  -12636154.22246  -8878973.00461
  20536651.4044  -15752108.70248 -12200214.40063
  23409933.1234   -2460737.30545  -1844595.41961
  23841000.0844   16101182.16343  12547894.83661
  20269240.709   -21521077.863 7 -16670859.13823
 91  4 25 23 19 29.9980000  0  5G13G 2G15G19G 6
  21323409.2174  -12684167.35946  -8916385.77861
  20538147.0224  -15744248.06048 -12194089.22363
  23409479.4904   -2463132.59645  -1846461.86961
  23849187.9124   16144152.59343  12581378.24661
  20266592.967   -21534993.600 7 -16681702.55323
 91  4 25 23 19 44.9980000  0  5G13G 2G15G19G 6
  21314293.8734  -12732077.10846  -8953717.98661
  20539650.6154  -15736343.72448 -12187930.00163
  23409050.4284   -2465395.24245  -1848224.97961
  23857363.889    16187166.601 3  12614895.60821
  20263961.975   -21548827.686 7 -16692482.34123
 91  4 25 23 19 59.9980000  0  5G13G 2G15G19G 6
  21305197.107   -12779875.804 6  -8990963.66821
  20541165.6474  -15728388.36148 -12181731.01763
  23408644.857    -2467517.677 5  -1849878.82321
  23865559.850    16230231.331 3  12648452.53421
  20261345.522   -21562572.499 7 -16703192.56823
 91  4 25 23 20 14.9980000  0  5G13G 2G15G19G 6
  21296120.0534  -12827573.86446  -9028130.92161
  20542686.9594  -15720392.67648 -12175500.61163
  23408268.1624   -2469510.39045  -1851431.61061
  23873760.881    16273335.978 3  12682040.52321
  20258745.443   -21576238.317 7 -16713841.23223
 91  4 25 23 20 29.9980000  0  5G13G 2G15G19G 6
  21287064.8504  -12875163.84346  -9065213.96661
  20544216.4124  -15712349.58948 -12169233.27363
  23407913.8894   -2471366.25345  -1852877.72461
  23881978.3344   16316487.61043  12715665.15861
  20256161.061   -21589817.964 7 -16724422.75423
 91  4 25 23 20 44.9980000  0  5G13G 2G15G19G 6
  21278030.0764  -12922645.47446  -9102212.58361
  20545756.1784  -15704259.58948 -12162929.37363
  23407586.357    -2473085.535 5  -1854217.39621
  23890195.061    16359685.696 3  12749325.97421
  20253593.482   -21603311.419 7 -16734937.11323
 91  4 25 23 20 59.9980000  0  5G13G 2G15G19G 6
  21269012.076   -12970020.104 6  -9139127.81821
  20547303.5294  -15696124.13447 -12156590.05663
  23407284.811    -2474669.429 5  -1855451.61721
  23898425.7874   16402928.39643  12783021.56061
  20251041.8654  -21616720.10047 -16745385.41463
 91  4 25 23 21 14.9980000  0  4G13G 2G15G 6
  21260016.5064  -13017289.45046  -9175961.01361
  20548861.1864  -15687945.04048 -12150216.74063
  23407007.5224   -2476119.88745  -1856581.83461
  20248504.787   -21630045.483 7 -16755768.80123
 91  4 25 23 21 29.9980000  0  4G13G 2G15G 6
  21251046.4434  -13064448.58846  -9212708.33761
  20550427.3184  -15679717.87647 -12143805.96263
  23406759.365    -2477432.448 5  -1857604.58221
  20245986.068   -21643282.936 7 -16766083.68123
 91  4 25 23 21 44.9980000  0  4G13G 2G15G 6
  21242089.8974  -13111499.28346  -9249371.15961
  20552002.0684  -15671444.71348 -12137359.34163
  23406534.1234   -2478608.88645  -1858521.29061
  20243483.967   -21656434.088 7 -16776331.31123
 91  4 25 23 21 59.9980000  0  4G13G 2G15G 6
  21233159.1004  -13158443.08546  -9285950.68161
  20553583.4124  -15663127.35847 -12130878.28963
  23406338.2404   -2479650.84845  -1859333.21661
  20240995.834   -21669500.527 7 -16786512.92923
 91  4 25 23 22 14.9980000  0  4G13G 2G15G 6
  21224245.201   -13205275.152 6  -9322443.14921
  20555175.8574  -15654761.51448 -12124359.45063
  23406162.0924   -2480553.81845  -1860036.80861
  20238528.357   -21682477.457 7 -16796624.80023
 91  4 25 23 22 29.9980000  0  4G13G 2G15G 6
  21215356.4514  -13252000.88146  -9358852.74861
  20556774.9754  -15646352.77947 -12117807.19463
  23406017.022    -2481323.550 5  -1860636.58021
  20236076.842   -21695370.443 7 -16806671.25523
 91  4 25 23 22 44.9980000  0  4G13G 2G15G 6
  21206485.0534  -13298615.05646  -9395175.42661
  20558384.1624  -15637896.32547 -12111217.74863
  23405896.6934   -2481955.15045  -1861128.75061
  20233639.139   -21708174.356 7 -16816648.31023
 91  4 25 23 22 59.9980000  0  4G13G 2G15G 6
  21197635.061   -13345117.743 6  -9431411.23421
  20560003.0294  -15629392.71747 -12104591.56463
  23405804.756    -2482448.560 5  -1861513.23621
  20231218.373   -21720889.457 7 -16826556.16023
 91  4 25 23 23 14.9980000  0  4G13G 2G15G 6
  21188804.178   -13391510.848 6  -9467561.64721
  20561628.6234  -15620843.95347 -12097930.18963
  23405739.7324   -2482806.09045  -1861791.82861
  20228815.818   -21733517.466 7 -16836396.14023
 91  4 25 23 23 29.9980000  0  4G13G 2G15G 6
  21179999.3814  -13437793.50546  -9503626.00061
  20563264.8034  -15612249.58447 -12091233.28263
  23405692.4204   -2483027.09445  -1861964.03061
  20226429.818   -21746057.803 7 -16846167.81723
 91  4 25 23 23 44.9980000  0  4G13G 2G15G 6
  21171212.584   -13483965.647 6  -9539604.24021
  20564907.8574  -15603609.87947 -12084501.04563
  23405676.5844   -2483111.88745
  20224058.936   -21758510.348 7 -16855871.07923
 91  4 25 23 23 59.9980000  0  4G13G 2G15G 6
  21162449.576   -13530024.605 6  -9575494.30121
  20566563.8264  -15594922.36247 -12077731.54763
  23405690.9984   -2483058.03045
  20221706.623   -21770872.430 7 -16865503.84623
 91  4 25 23 24 14.9980000  0  4G13G 2G15G 6
  21153702.1154  -13575971.81746  -9611297.25561
  20568224.8504  -15586189.12347 -12070926.42763
  23405725.467    -2482867.102 5
  20219372.006   -21783145.633 7 -16875067.36223
 91  4 25 23 24 29.9980000  0  4G13G 2G15G 6
  21144983.412   -13621806.852 6  -9647012.81621
  20569893.4754  -15577409.73647 -12064085.34463
  23405785.7404   -2482538.66445
  20217053.748   -21795329.443 7 -16884561.22023
 91  4 25 23 24 44.9980000  0  4G13G 2G15G 6
  21136281.3894  -13667532.15846  -9682642.86561
  20571574.3654  -15568587.02347 -12057210.50163
  23405874.967    -2482075.751 5  -1861222.74921
  20214750.779   -21807426.319 7 -16893987.33323
 91  4 25 23 24 59.9980000  0  4G13G 2G15G 6
  21127601.0684  -13713142.18146  -9718183.09161
  20573261.9514  -15559715.93147 -12050297.95763
  23405993.0614   -2481473.09445  -1860753.14561
  20212466.475   -21819430.963 7 -16903341.57723
 91  4 25 23 25 14.9980000  0  4G13G 2G15G 6
  21118942.647   -13758643.845 6  -9753638.88821
  20574956.9824  -15550803.52247 -12043353.21863
  23406134.8734   -2480737.32345  -1860179.81861
  20210197.084   -21831350.265 7 -16912629.32323
 91  4 25 23 25 29.9980000  0  4G13G 2G15G 6
  21110305.4204  -13804033.20146  -9789007.15361
  20576663.2874  -15541845.97947 -12036373.31963
  23406294.178    -2479864.890 5  -1859499.98721
  20207948.264   -21843180.079 7 -16921847.34323
 91  4 25 23 25 44.9980000  0  4G13G 2G15G 6
  21101690.967   -13849309.768 6  -9824287.54321
  20578375.5844  -15532843.62547 -12029358.49363
  23406486.936    -2478855.777 5  -1858713.68121
  20205711.639   -21854920.401 7 -16930995.62223
 91  4 25 23 25 59.9980000  0  4G13G 2G15G 6
  21093095.178   -13894469.291 6  -9859476.73321
  20580096.4754  -15523792.34247 -12022305.54063
  23406708.4824   -2477706.13545  -1857817.88461
  20203497.045   -21866566.972 7 -16940070.85123
 91  4 25 23 26 14.9980000  0  4G13G 2G15G 6
  21084525.0294  -13939514.05547  -9894576.48561
  20581828.2324  -15514694.68047 -12015216.44763
  23406951.1394   -2476418.20245  -1856814.28561
  20201297.107   -21878121.902 7 -16949074.67423
 91  4 25 23 26 29.9980000  0  4G13G 2G15G 6
  21075975.576   -13984445.007 6  -9929587.57221
  20583568.6934  -15505551.93647 -12008092.22763
  23407222.4124   -2474993.32645  -1855704.00261
  20199116.842   -21889586.343 7 -16958007.98923
 91  4 25 23 26 44.9980000  0  4G13G 2G15G 6
  21067445.303   -14029264.054 6  -9964511.45721
  20585315.6154  -15496366.32447 -12000934.60563
  23407524.5764   -2473433.54445  -1854488.58261
  20196951.490   -21900962.177 7 -16966872.25923
 91  4 25 23 26 59.9980000  0  4G13G 2G15G 6
  21058938.451   -14073966.322 6  -9999344.34221
  20587073.6074  -15487133.20747 -11993739.96363
  23407840.7094   -2471734.27645  -1853164.49461
  20194804.834   -21912244.480 7 -16975663.63923
 91  4 25 23 27 14.9980000  0  4G13G 2G15G 6
  21050455.272   -14118551.582 7 -10034086.04921
  20588839.8114  -15477852.69847 -11986508.39463
  23408192.7404   -2469895.58545  -1851731.74461
  20192675.584   -21923433.214 7 -16984382.11323
 91  4 25 23 27 29.9980000  0  4G13G 2G15G 6
  21041993.647   -14163018.860 6 -10068735.82821
  20590614.8424  -15468524.27947 -11979239.49863
  23408570.5064   -2467916.49345  -1850189.60661
  20190565.936   -21934527.394 7 -16993026.91723
 91  4 25 23 27 44.9980000  0  4G13G 2G15G 6
  21033553.568   -14207370.556 7 -10103295.53721
  20592398.5374  -15459150.37848 -11971935.15763
  23408972.3734   -2465799.69445  -1848540.15961
  20188471.162   -21945529.368 7 -17001599.86623
 91  4 25 23 27 59.9980000  0  4G13G 2G15G 6
  21025135.631   -14251605.518 7 -10137764.28721
  20594192.6864  -15449730.02147 -11964594.61563
  23409400.897    -2463544.135 5  -1846782.58621
  20186394.803   -21956437.902 7 -17010100.01023
 91  4 25 23 28 14.9980000  0  4G13G 2G15G 6
  21016740.123   -14295720.860 7 -10172139.82821
  20595993.6704  -15440261.02447 -11957216.18263
  23409857.9364   -2461147.38445  -1844915.01261
  20184335.9044  -21967250.40947 -17018525.32963
 91  4 25 23 28 29.9980000  0  4G13G 2G15G 6
  21008368.068   -14339715.426 7 -10206421.24821
  20597805.1704  -15430742.54748 -11949799.17763
  23410345.264    -2458608.690 5  -1842936.82021
  20182298.248   -21977965.776 7 -17026874.94523
 91  4 25 23 28 44.9980000  0  4G13G 2G15G 6
  21000020.412   -14383592.561 7 -10240611.17121
  20599624.6074  -15421178.13847 -11942346.39163
  23410850.9204   -2455931.52445  -1840850.72961
  20180276.123   -21988587.377 7 -17035151.50223
 91  4 25 23 28 59.9980000  0  4G13G 2G15G 6
  20991692.4284  -14427347.86547 -10274706.15961
  20601455.0224  -15411563.82047 -11934854.70963
  23411389.334    -2453111.575 5  -1838653.37721
  20178275.397   -21999110.917 7 -17043351.64123
 91  4 25 23 29 14.9980000  0  4G13G 2G15G 6
  20983387.904   -14470981.778 7 -10308706.55921
  20603291.9434  -15401900.09147 -11927324.53163
  23411952.3894   -2450149.74445  -1836345.46761
  20176290.998   -22009536.859 7 -17051475.74023
 91  4 25 23 29 29.9980000  0  4G13G 2G15G 6
  20975108.443   -14514499.385 7 -10342616.33621
  20605141.2094  -15392192.48348 -11919760.15763
  23412539.147    -2447051.335 5  -1833931.10621
  20174324.537   -22019870.133 7 -17059527.62423
 91  4 25 23 29 44.9980000  0  4G13G 2G15G 6
  20966849.889   -14557892.419 7 -10376429.03621
  20606998.1624  -15382432.87447 -11912155.26463
  23413156.3264   -2443807.96645  -1831403.80361
  20172378.131   -22030102.544 7 -17067500.91323
 91  4 25 23 29 59.9980000  0  4G13G 2G15G 6
  20958616.381   -14601163.749 7 -10410146.90921
  20608863.9594  -15372624.45247 -11904512.33263
  23413804.654    -2440422.646 5  -1828765.93321
  20170447.881   -22040236.932 7 -17075397.82623
 91  4 25 23 30 14.9980000  0  4G13G 2G15G 6
  20950405.420   -14644309.932 6 -10443767.26621
  20610741.1704  -15362764.01348 -11896828.86763
  23414476.0064   -2436892.47545  -1826015.13261
  20168539.6004  -22050269.92747 -17083215.73263
 91  4 25 23 30 29.9980000  0  4G13G 2G15G 6
  20942218.428   -14687329.044 6 -10477288.60921
  20612626.9594  -15352850.12947 -11889103.76063
  23415177.3184   -2433215.85345  -1823150.26261
  20166648.092   -22060199.693 7 -17090953.19123
 91  4 25 23 30 44.9980000  0  4G13G 2G15G 6
  20934060.131   -14730222.894 7 -10510712.34521
  20614523.3034  -15342884.99948 -11881338.71764
  23415901.639    -2429395.007 5  -1820172.98521
  20164778.014   -22070028.201 7 -17098611.75323
 91  4 25 23 30 59.9980000  0  4G13G 2G15G 6
  20925916.670   -14772989.422 6 -10544036.86321
  20616428.4364  -15332866.72148 -11873532.26863
  23416658.436    -2425428.097 5  -1817081.90021
  20162927.732   -22079753.429 7 -17106189.83423
 91  4 25 23 31 14.9980000  0  4G13G 2G15G 6
  20917803.014   -14815630.689 6 -10577263.77821
  20618346.2324  -15322797.47748 -11865686.10263
  23417437.0224   -2421317.32045  -1813878.72861
  20161097.592   -22089377.354 7 -17113688.98223
 91  4 25 23 31 29.9980000  0  4G13G 2G15G 6
  20909712.615   -14858142.776 6 -10610390.04121
  20620272.6004  -15312673.76548 -11857797.48963
  23418247.842    -2417058.909 5  -1810560.51521
  20159285.076   -22098896.054 7 -17121106.13223
 91  4 25 23 31 44.9980000  0  4G13G 2G15G 6
  20901650.217   -14900527.196 7 -10643416.81121
  20622209.7324  -15302497.44848 -11849867.89663
  23419086.029    -2412654.537 5  -1807128.52921
  20157492.826   -22108311.188 7 -17128442.58023
 91  4 25 23 31 59.9980000  0  4G13G 2G15G 6
  20893608.412   -14942782.168 7 -10676342.71221
  20624155.6934  -15292266.99748 -11841896.11163
  23419954.6074   -2408102.79245  -1803581.71861
  20155722.107   -22117620.928 7 -17135696.90723
 91  4 25 23 32 14.9980000  0  4G13G 2G15G 6
  20885593.647   -14984907.805 7 -10709167.84121
  20626113.3814  -15281982.88748 -11833882.51963
  23420844.764    -2403404.120 5  -1799920.43321
  20153970.076   -22126825.583 7 -17142869.34623
 91  4 25 23 32 29.9980000  0  4G13G 2G15G 6
  20877602.951   -15026903.216 7 -10741891.49221
  20628078.5764  -15271644.48248 -11825826.62063
  23421768.6314   -2398557.95445  -1796144.21061
  20152239.248   -22135924.266 7 -17149959.21023
 91  4 25 23 32 44.9980000  0  4G13G 2G15G 6
  20869635.154   -15068768.463 7 -10774513.71421
  20630057.5064  -15261252.04248 -11817728.61063
  23422718.5614   -2393564.23845  -1792253.00661
  20150528.592   -22144916.796 7 -17156966.36023
 91  4 25 23 32 59.9980000  0  4G13G 2G15G 6
  20861692.123   -15110500.366 6 -10807032.03521
  20632046.9284  -15250802.57148 -11809586.16363
  23423698.272    -2388419.974 5  -1788244.50521
  20148837.959   -22153800.174 7 -17163888.45523
 91  4 25 23 33 14.9980000  0  4G13G 2G15G 6
  20853776.772   -15152099.528 7 -10839446.91721
  20634045.6394  -15240296.92948 -11801399.94663
  23424701.357    -2383126.237 5  -1784119.52121
  20147168.295   -22162574.984 7 -17170725.94823
 91  4 25 23 33 29.9980000  0  4G13G 2G15G 6
  20845886.475   -15193568.931 6 -10871760.69021
  20636055.5534  -15229738.52348 -11793172.61363
  23425743.295    -2377686.626 5  -1779880.89321
  20145517.928   -22171244.405 7 -17177481.32423
 91  4 25 23 33 44.9980000  0  4G13G 2G15G 6
  20838016.303   -15234905.285 6 -10903970.78621
  20638073.9594  -15219124.36648 -11784901.84363
  23426804.8344   -2372097.83345  -1775525.98461
  20143890.240   -22179805.040 7 -17184151.92823
 91  4 25 23 33 59.9980000  0  4G13G 2G15G 6
  20830178.201   -15276111.070 6 -10936079.14921
  20640105.7174  -15208457.34348 -11776589.87663
  23427892.662    -2366362.385 5  -1771056.83121
  20142279.068   -22188259.421 7 -17190739.73723
 91  4 25 23 34 14.9980000  0  4G13G 2G15G 6
  20822361.123   -15317183.786 6 -10968083.82121
  20642144.4284  -15197734.96348 -11768234.77663
  23429012.529    -2360478.146 5  -1766471.72621
  20140691.951   -22196605.031 7 -17197242.79223
 91  4 25 23 34 29.9980000  0  4G13G 2G15G 6
  20814569.975   -15358122.441 6 -10999984.01921
  20644197.0454  -15186956.57448 -11759836.02663
  23430162.9284   -2354444.47245  -1761770.15961
  20139125.787   -22204840.909 7 -17203660.34423
 91  4 25 23 34 44.9980000  0  4G13G 2G15G 6
  20806805.8734  -15398923.71046 -11031777.18261
  20646258.7564  -15176119.40848 -11751391.48163
  23431336.654    -2348258.220 5  -1756949.71321
  20137579.295   -22212963.855 7 -17209989.89623
 91  4 25 23 34 59.9980000  0  4G13G 2G15G 6
  20799068.318   -15439592.564 7 -11063467.15621
  20648330.1314  -15165228.53648 -11742905.08663
  23432544.865    -2341924.807 5  -1752014.59821
  20136052.061   -22220978.824 7 -17216235.30923
 91  4 25 23 35 14.9980000  0  4G13G 2G15G 6
  20791356.834   -15480128.312 7 -11095053.41221
  20650411.5614  -15154283.25647 -11734376.28863
  23433779.912    -2335443.643 5  -1746964.37221
  20134549.748   -22228885.018 7 -17222395.95523
 91  4 25 23 35 29.9980000  0  4G13G 2G15G 6
  20783665.3894  -15520529.72047 -11126534.98361
  20652505.8654  -15143282.57747 -11725804.32563
  23435042.428    -2328813.573 5  -1741798.08021
  20133065.818   -22236681.266 7 -17228470.93923
 91  4 25 23 35 44.9980000  0  4G13G 2G15G 6
  20776004.795   -15560798.432 7 -11157913.16021
  20654609.8654  -15132228.57947 -11717190.81763
  23436333.5534   -2322036.63345  -1736517.36461
  20131601.553   -22244369.276 7 -17234461.57723
 91  4 25 23 35 59.9980000  0  4G13G 2G15G 6
  20768364.959   -15600930.610 7 -11189184.94221
  20656725.6704  -15121117.76348 -11708533.04063
  23437645.7404   -2315109.34145  -1731119.46761
  20130160.740   -22251945.192 7 -17240364.86623
 91  4 25 23 36 14.9980000  0  4G13G 2G15G 6
  20760753.365   -15640932.894 6 -11220355.50621
  20658849.2564  -15109956.67448 -11699836.07763
  23438993.3974   -2308038.13445  -1725609.47261
  20128740.334   -22259415.489 7 -17246185.85323
 91  4 25 23 36 29.9980000  0  4G13G 2G15G 6
  20753168.287   -15680795.393 6 -11251417.15321
  20660984.5534  -15098735.93448 -11691092.64263
  23440370.0454   -2300813.79145  -1719980.11661
  20127341.842   -22266770.552 7 -17251917.05523
 91  4 25 23 36 44.9980000  0  4G13G 2G15G 6
  20745607.334   -15720519.747 6 -11282371.14921
  20663129.8114  -15087457.65248 -11682304.36863
  23441769.0684   -2293438.23745  -1714232.97061
  20125961.873   -22274012.074 7 -17257559.78623
 91  4 25 23 36 59.9980000  0  4G13G 2G15G 6
  20738075.998   -15760108.096 6 -11313219.17321
  20665285.8504  -15076124.29748 -11673473.17963
  23443209.3504   -2285913.67545  -1708369.66061
  20124605.342   -22281142.202 7 -17263115.71323
 91  4 25 23 37 14.9980000  0  4G13G 2G15G 6
  20730566.639   -15799561.586 6 -11343962.10521
  20667453.2874  -15064737.06847 -11664600.00663
  23444661.834    -2278241.721 5  -1702391.53121
  20123269.490   -22288162.122 7 -17268585.76223
 91  4 25 23 37 29.9980000  0  4G13G 2G15G 6
  20723086.732   -15838878.874 6 -11374598.91121
  20669631.2014  -15053294.75348 -11655683.91263
  23446151.701    -2270421.019 5  -1696297.47321
  20121953.889   -22295070.352 7 -17273968.77923
 91  4 25 23 37 44.9980000  0  4G13G 2G15G 6
  20715629.9284  -15878060.83247 -11405130.26561
  20671818.3034  -15041798.47048 -11646725.76663
  23447676.0614   -2262452.82745  -1690088.52361
  20120659.592   -22301867.729 7 -17279265.42322
 91  4 25 23 37 59.9980000  0  4G13G 2G15G 6
  20708198.850   -15917105.088 7 -11435554.32021
  20674015.5764  -15030246.10347 -11637723.91763
  23449212.662    -2254334.861 5  -1683762.85921
  20119388.8894  -22308551.87547 -17284473.83562
 91  4 25 23 38 14.9980000  0  4G13G 2G15G 6
  20700796.9674  -15956009.60647 -11465869.48361
  20676225.7094  -15018635.95047 -11628677.04663
  23450786.1004   -2246065.68245  -1677319.33561
  20118139.318   -22315120.844 7 -17289592.49723
 91  4 25 23 38 29.9980000  0  4G13G 2G15G 6
  20693420.850   -15994778.314 7 -11496078.82021
  20678444.7954  -15006972.19548 -11619588.40363
  23452383.6234   -2237649.28245  -1670761.12761
  20116911.186   -22321578.604 7 -17294624.49923
 91  4 25 23 38 44.9980000  0  4G13G 2G15G 6
  20686067.904   -16033407.989 7 -11526179.82721
  20680675.8894  -14995251.59047 -11610455.45863
  23454018.537    -2229082.487 5  -1664085.71721
  20115702.873   -22327921.747 7 -17299567.19123
 91  4 25 23 38 59.9980000  0  4G13G 2G15G 6
  20678741.2014  -16071900.95246 -11556174.30361
  20682917.4434  -14983476.86548 -11601280.34763
  23455677.1784   -2220368.00245  -1657295.22461
  20114516.514   -22334152.998 7 -17304422.69723
 91  4 25 23 39 14.9980000  0  4G13G 2G15G 6
  20671444.6074  -16110256.76347 -11586061.90961
  20685165.7564  -14971647.96347 -11592063.02263
  23457359.818    -2211505.790 5  -1650389.62521
  20113353.654   -22340271.659 7 -17309190.46723
 91  4 25 23 39 29.9980000  0  4G13G 2G15G 6
  20664171.8814  -16148472.58047 -11615840.42661
  20687431.4284  -14959762.38748 -11582801.53063
  23459077.654    -2202493.299 5  -1643366.91421
  20112210.006   -22346275.047 7 -17313868.41323
 91  4 25 23 39 44.9980000  0  4G13G 2G15G 6
  20656925.365   -16186548.020 7 -11645509.55921
  20689701.9124  -14947819.89747 -11573495.69863
  23460821.9594   -2193330.40545  -1636227.02261
  20111090.162   -22352162.796 7 -17318456.24923
 91  4 25 23 39 59.9980000  0  4G13G 2G15G 6
  20649708.061   -16224483.924 7 -11675069.96221
  20691985.0684  -14935821.29147 -11564146.13463
  23462591.357    -2184018.130 5  -1628970.73721
  20109993.2794  -22357935.48347 -17322954.43862
 91  4 25 23 40 14.9980000  0  4G13G 2G15G 6
  20642514.490   -16262280.715 7 -11704521.96021
  20694278.3424  -14923767.30747 -11554753.42263
  23464397.295    -2174557.031 5  -1621598.45921
  20108915.498   -22363593.692 7 -17327363.42023
 91  4 25 23 40 29.9980000  0  4G13G 2G15G 6
  20635346.0764  -16299941.91647 -11733868.31561
  20696583.6004  -14911662.11147 -11545320.80463
  23466225.303    -2164951.034 5  -1614113.29421
  20107857.639   -22369141.036 7 -17331686.01023
 91  4 25 23 40 44.9980000  0  4G13G 2G15G 6
  20628208.467   -16337463.309 7 -11763105.72021
  20698895.1074  -14899501.24447 -11535844.80463
  23468079.232    -2155196.050 5  -1606512.01821
  20106826.506   -22374573.205 7 -17335918.84722
 91  4 25 23 40 59.9980000  0  4G13G 2G15G 6
  20621097.186   -16374841.382 7 -11792231.43621
  20701220.7324  -14887281.44647 -11526322.88463
  23469960.9284   -2145288.87645  -1598792.17761
  20105813.912   -22379886.564 7 -17340059.11023
 91  4 25 23 41 14.9980000  0  4G13G 2G15G 6
  20614007.123   -16412083.402 7 -11821251.14921
  20703556.4514  -14875010.31947 -11516760.96963
  23471877.600    -2135237.107 5  -1590959.65121
  20104825.272   -22385088.509 7 -17344112.56523
 91  4 25 23 41 29.9980000  0  4G13G 2G15G 6
  20606948.240   -16449185.941 7 -11850162.17921
  20705902.7094  -14862684.87147 -11507156.72863
  23473818.443    -2125037.737 5  -1583012.09221
  20103858.139   -22390175.860 7 -17348076.71722
 91  4 25 23 41 44.9980000  0  4G13G 2G15G 6
  20599914.178   -16486147.716 7 -11878963.51821
  20708258.9284  -14850303.86247 -11497509.18863
  23475785.357    -2114689.498 5  -1574948.55921
  20102909.818   -22395147.022 7 -17351950.32923
 91  4 25 23 41 59.9980000  0  4G13G 2G15G 6
  20592907.8034  -16522970.77647 -11907656.77361
  20710625.1704  -14837869.49547 -11487820.07363
  23477784.3574   -2104194.56045  -1566770.69061
  20101984.186   -22400004.177 7 -17355735.10622
 91  4 25 23 42 14.9980000  0  4G13G 2G15G 6
  20585926.7014  -16559650.85647 -11936238.61261
  20713003.5614  -14825377.81947 -11478086.30063
  23479816.162    -2093549.061 5  -1558475.52821
  20101084.0764  -22404742.84547 -17359427.56462
 91  4 25 23 42 29.9980000  0  4G13G 2G15G 6
  20578972.475   -16596191.078 7 -11964711.48121
  20715387.8974  -14812832.30747 -11468310.58063
  23481867.740    -2082756.396 5  -1550065.67621
  20100204.670   -22409366.508 7 -17363030.40222
 91  4 25 23 42 44.9980000  0  4G13G 2G15G 6
  20572049.0614  -16632587.14747 -11993072.01861
  20717786.9124  -14800228.73447 -11458489.61663
  23483947.6784   -2071812.74845  -1541538.20261
  20099348.186   -22413870.804 7 -17366540.22622
 91  4 25 23 42 59.9980000  0  4G13G 2G15G 6
  20565147.225   -16668844.249 7 -12021324.26221
  20720195.9984  -14787572.51147 -11448627.62363
  23486058.4434   -2060723.54845  -1532897.26961
  20098512.982   -22418260.831 7 -17369961.01122
 91  4 25 23 43 14.9980000  0  4G13G 2G15G 6
  20558274.3734  -16704963.68447 -12049469.24261
  20722612.6004  -14774865.10447 -11438725.75163
  23488199.2174   -2049489.99545  -1524143.89661
  20097699.287   -22422537.866 7 -17373293.75322
 91  4 25 23 43 29.9980000  0  4G13G 2G15G 6
  20551428.0764  -16740946.56047 -12077507.80961
  20725042.0534  -14762107.76447 -11428784.96963
  23490364.7324   -2038113.48245  -1515279.10761
  20096906.412   -22426702.834 7 -17376539.17022
 91  4 25 23 43 44.9980000  0  4G13G 2G15G 6
  20544606.0844  -16776789.18547 -12105437.09061
  20727479.3974  -14749297.19747 -11418802.70963
  23492556.0684   -2026590.65245  -1506300.32161
  20096136.342   -22430752.370 7 -17379694.63723
 91  4 25 23 43 59.9980000  0  4G13G 2G15G 6
  20537811.4434  -16812495.09547 -12133259.83961
  20729926.6394  -14736437.09447 -11408781.85163
  23494772.568    -2014925.526 5  -1497210.61821
  20095387.0294  -22434689.85147 -17382762.79162
 91  4 25 23 44 14.9980000  0  4G13G 2G15G 6
  20531044.639   -16848059.173 7 -12160972.06321
  20732383.4984  -14723522.50847 -11398718.53363
  23497018.7484   -2003113.07045  -1488006.11861
  20094658.576   -22438510.068 7 -17385739.56922
 91  4 25 23 44 29.9980000  0  4G13G 2G15G 6
  20524301.4284  -16883483.40347 -12188575.32261
  20734851.7564  -14710555.92147 -11388614.70463
  23499297.8734   -1991155.60345  -1478688.66661
  20093952.826   -22442215.261 7 -17388626.71623
 91  4 25 23 44 44.9980000  0  4G13G 2G15G 6
  20517588.5294  -16918770.06947 -12216071.38961
  20737329.8974  -14697539.69647 -11378472.18763
  23501595.764    -1979055.964 5  -1469260.40021
  20093269.529   -22445807.627 7 -17391425.94123
 91  4 25 23 44 59.9980000  0  4G13G 2G15G 6
  20510901.6544  -16953917.95347 -12243459.31561
  20739813.8734  -14684472.64547 -11368290.07163
  23503929.561    -1966812.858 5  -1459720.32321
  20092607.764   -22449285.814 7 -17394136.20422
 91  4 25 23 45 14.9980000  0  4G13G 2G15G 6
  20504237.084   -16988928.702 7 -12270740.37621
  20742309.2794  -14671356.72347 -11358069.86963
  23506282.4204   -1954428.18045  -1450069.93661
  20091969.717   -22452651.532 7 -17396758.82522
 91  4 25 23 45 29.9980000  0  4G13G 2G15G 6
  20497601.5454  -17023797.40347 -12297910.75761
  20744817.5534  -14658187.12347 -11347807.84263
  23508671.084    -1941897.083 5  -1440305.50921
  20091350.0454  -22455899.84647 -17399289.97262
 91  4 25 23 45 44.9980000  0  4G13G 2G15G 6
  20490990.4594  -17058536.82147 -12324980.40061
  20747330.5844  -14644976.90347 -11337514.15963
  23511076.436    -1929233.138 5  -1430437.51321
  20090752.0844  -22459043.48947 -17401739.55262
 91  4 25 23 45 59.9980000  0  4G13G 2G15G 6
  20484406.5454  -17093135.86047 -12351940.65461
  20749853.9124  -14631715.11547 -11327180.29663
  23513517.107    -1916424.884 5  -1420457.09521
  20090175.811   -22462071.245 7 -17404098.83122
 91  4 25 23 46 14.9980000  0  4G13G 2G15G 6
  20477849.1004  -17127593.46047 -12378790.69761
  20752387.9594  -14618400.80747 -11316805.50263
  23515985.4364   -1903471.86545  -1410363.83361
  20089620.389   -22464981.996 7 -17406366.93722
 91  4 25 23 46 29.9980000  0  4G13G 2G15G 6
  20471320.475   -17161907.992 7 -12405529.25521
  20754932.2324  -14605032.54547 -11306388.67263
  23518476.0614   -1890372.58845  -1400156.63861
  20089090.1234  -22467774.34347 -17408542.78362
 91  4 25 23 46 44.9980000  0  4G13G 2G15G 6
  20464816.0144  -17196084.08347 -12432159.93861
  20757485.8184  -14591615.19647 -11295933.59263
  23520995.256    -1877132.103 5  -1389839.40321
  20088580.232   -22470452.865 7 -17410629.92822
 91  4 25 23 46 59.9980000  0  4G13G 2G15G 6
  20458340.8974  -17230120.23747 -12458681.57861
  20760049.7254  -14578147.40847
  23523541.2564   -1863749.18345
  20088093.2874  -22473015.82747 -17412627.02962
 91  4 25 23 47 14.9980000  0  4G13G 2G15G 6
  20451889.1934  -17264019.83547 -12485096.81561
  20762618.7324  -14564632.69047
  23526112.5614   -1850227.39045
  20087626.1864  -22475466.69547 -17414536.78362
 91  4 25 23 47 29.9980000  0  4G13G 2G15G 6
  20445465.1234  -17297781.51247 -12511404.57661
  20765200.0684  -14551069.96447 -11264339.89663
  23528712.5294   -1836565.59445
  20087180.178   -22477804.081 7 -17416358.11122
 91  4 25 23 47 44.9980000  0  4G13G 2G15G 6
  20439065.6004  -17331403.32147 -12537603.35361
  20767791.6474  -14537457.64347 -11253732.88463
  23531341.873    -1822762.226 5
  20086758.0614  -22480026.27047 -17418089.67662
 91  4 25 23 47 59.9980000  0  4G13G 2G15G 6
  20432695.5064  -17364878.54447 -12563687.90861
  20770388.0144  -14523789.05247 -11243082.03463
  23533997.6154   -1808810.60445
  20086359.850   -22482126.410 7 -17419726.13522
 91  4 25 23 48 14.9980000  0  4G13G 2G15G 6
  20426353.9594  -17398212.80547 -12589662.62061
  20773003.0844  -14510070.22647 -11232392.03163
  23536675.686    -1794716.916 5        -0.39431
  20085981.1074  -22484110.22547 -17421271.95662
 91  4 25 23 48 29.9980000  0  4G13G 2G15G 6
  20420034.8264  -17431408.99047 -12615529.74662
  20775621.8344  -14496303.98947 -11221665.09163
  23539381.9284   -1780484.03945     11090.12161
  20085625.1004  -22485980.37947 -17422729.20962
 91  4 25 23 48 44.9980000  0  4G13G 2G15G 6
  20413744.4124  -17464464.07047 -12641286.92261
  20778252.3264  -14482487.13347 -11210898.70363
  23542122.2014   -1766109.15445     22291.31061
  20085291.4284  -22487733.63847 -17424095.38162
 91  4 25 23 48 59.9980000  0  4G13G 2G15G 6
  20407481.8814  -17497378.50947 -12666934.50461
  20780889.6154  -14468620.77647 -11200093.74363
  23544879.248    -1751593.468 5     33602.19121
  20084979.4594  -22489370.70247 -17425371.00562
 91  4 25 23 49 14.9980000  0  4G13G 2G15G 6
  20401246.0924  -17530149.43347 -12692470.25761
  20783536.5064  -14454702.18547 -11189248.08663
  23547674.8424   -1736934.23645     45024.96561
  20084690.998   -22490888.706 7 -17426553.84822
 91  4 25 23 49 29.9980000  0  4G13G 2G15G 6
  20395036.8814  -17562776.67647 -12717894.05261
  20786197.9824  -14440731.27247 -11178361.65563
  23550487.3034   -1722131.09445     56559.85661
  20084424.6394  -22492287.39047 -17427643.73062
 91  4 25 23 49 44.9980000  0  4G13G 2G15G 6
  20388857.6394  -17595264.66547 -12743209.33961
  20788864.5684  -14426712.62147 -11167438.03063
  23553332.7954   -1707188.71246     68203.25161
  20084178.8424  -22493571.06647 -17428643.98462
 91  4 25 23 49 59.9980000  0  4G13G 2G15G 6
  20382701.1624  -17627610.52047 -12768413.85961
  20791541.2484  -14412643.67247 -11156475.20763
  23556202.943    -1692104.727 5     79956.99121
  20083958.9514  -22494737.01347 -17429552.50362
 91  4 25 23 50 14.9980000  0  4G13G 2G15G 6
  20376573.3344  -17659810.84447 -12793504.99361
  20794229.1704  -14398520.96947 -11145470.50363
  23559097.576    -1676875.892 5     91823.59721
  20083759.5924  -22495781.70147 -17430366.53562
 91  4 25 23 50 29.9980000  0  4G13G 2G15G 6
  20370473.6704  -17691867.00247 -12818483.78461
  20796926.3814  -14384346.10947 -11134425.15763
  23562024.6154   -1661503.91045    103801.73961
  20083584.248   -22496706.522 7 -17431087.16322
 91  4 25 23 50 44.9980000  0  4G13G 2G15G 6
  20364399.3734  -17723779.09847 -12843350.31962
  20799633.9284  -14370119.49147 -11123339.47663
  23564980.553    -1645989.231 5    115891.08421
  20083430.8504  -22497511.48247 -17431714.39662
 91  4 25 23 50 59.9980000  0  4G13G 2G15G 6
  20358356.3264  -17755544.40947 -12868102.48362
  20802353.9754  -14355838.68547 -11112211.57663
  23567959.6234   -1630329.52945    128093.39461
  20083302.0064  -22498194.14647 -17432246.32962
 91  4 25 23 51 14.9980000  0  4G13G 2G15G 6
  20352335.7404  -17787163.61747 -12892740.79462
  20805078.5764  -14341504.62647 -11101042.16763
  23570968.2254   -1614526.00945    140407.80861
  20083195.7324  -22498755.23347 -17432683.53062
 91  4 25 23 51 29.9980000  0  4G13G 2G15G 6
  20346349.162   -17818637.420 7 -12917265.80821
  20807816.9514  -14327117.76947 -11089831.62363
  23574002.5844   -1598579.32045    152833.78861
  20083108.0454  -22499195.02047 -17433026.21362
 91  4 25 23 51 44.9980000  0  4G13G 2G15G 6
  20340387.053   -17849966.364 7 -12941677.94921
  20810563.8424  -14312678.63747 -11078580.35363
  23577064.217    -1582490.063 5    165370.81921
  20083050.3264  -22499513.93647 -17433274.71062
 91  4 25 23 51 59.9980000  0  4G13G 2G15G 6
  20334451.3814  -17881149.25647 -12965976.27462
  20813321.8344  -14298186.33847 -11067287.64663
  23580150.842    -1566257.309 5    178019.67921
  20083012.6074  -22499710.82347
 91  4 25 23 52 14.9980000  0  4G13G 2G15G 6
  20328546.4904  -17912184.36547 -12990159.44661
  20816090.9984  -14283639.63747 -11055952.54863
  23583263.8424   -1549879.91245    190781.26961
  20082996.2954  -22499784.22547
 91  4 25 23 52 29.9980000  0  4G13G 2G15G 6
  20322669.1784  -17943075.53247 -13014230.46261
  20818869.7254  -14269042.42947 -11044578.09463
  23586408.2874   -1533361.76045    203652.51361
  20083009.6074  -22499737.71947
 91  4 25 23 52 44.9980000  0  4G13G 2G15G 6
  20316818.5064  -17973821.36247 -13038188.21561
  20821655.9284  -14254393.44647 -11033163.29863
  23589585.4124   -1516702.00645    216634.13961
  20083038.818   -22499570.061 7
 91  4 25 23 52 59.9980000  0  4G13G 2G15G 6
  20310994.4984  -18004418.67447 -13062030.24661
  20824454.5764  -14239689.70247 -11021705.83263
  23592777.600    -1499897.307 5    229728.66621
  20083095.436   -22499277.896 7
 91  4 25 23 53 14.9980000  0  4G13G 2G15G 6
  20305199.6154  -18034870.18347 -13085758.66261
  20827262.8574  -14224933.88347 -11010207.79263
  23596005.0534   -1482950.76345    242933.73261
  20083173.607   -22498863.890 7 -17432768.11322
 91  4 25 23 53 29.9980000  0  4G13G 2G15G 6
  20299434.4904  -18065177.62547 -13109374.81461
  20830079.4364  -14210127.91047 -10998670.66863
  23599260.022    -1465864.470 5    256247.71321
  20083275.725   -22498329.757 7 -17432351.89622
 91  4 25 23 53 44.9980000  0  3G13G 2G 6
  20293694.4904  -18095336.58947 -13132875.27862
  20832908.2724  -14195267.22647 -10987090.91263
  20083400.217   -22497670.921 7 -17431838.50222
 91  4 25 23 53 59.9980000  0  3G13G 2G 6
  20287983.4984  -18125353.45547 -13156265.01361
  20835745.8184  -14180358.56847 -10975473.77863
  20083547.459   -22496893.870 7 -17431232.99122
 91  4 25 23 54 14.9980000  0  3G13G 2G 6
  20282297.865   -18155226.171 7 -13179542.43022
  20838592.3894  -14165400.36247 -10963818.03363
  20083720.170   -22495996.746 7 -17430533.91922
 91  4 25 23 54 29.9980000  0  3G13G 2G 6
  20276641.2254  -18184949.04847 -13202703.08061
  20841448.2014  -14150386.85447 -10952119.19263
  20083911.959   -22494973.666 7 -17429736.70022
 91  4 25 23 54 44.9980000  0  3G13G 2G 6
  20271012.9124  -18214527.42347 -13225751.13861
  20844315.6544  -14135323.44347 -10940381.46963
  20084130.068   -22493829.886 7 -17428845.43422
 91  4 25 23 54 59.9980000  0  3G13G 2G 6
  20265412.7174  -18243960.87347 -13248686.26361
  20847193.3344  -14120209.85548 -10928604.64463
  20084373.076   -22492564.977 7 -17427859.77022
 91  4 25 23 55 14.9980000  0  3G13G 2G 6
  20259837.100   -18273249.111 7 -13271508.24122
  20850076.1004  -14105046.25548 -10916788.84863
  20084634.412   -22491178.818 7 -17426779.63422
 91  4 25 23 55 29.9980000  0  3G13G 2G 6
  20254293.6704  -18302393.03447 -13294217.76261
  20852970.3654  -14089833.26747 -10904934.57163
  20084922.514   -22489671.972 7 -17425605.45222
 91  4 25 23 55 44.9980000  0  3G13G 2G 6
  20248774.0764  -18331387.97447 -13316811.19361
  20855876.6474  -14074566.43147 -10893038.33363
  20085233.725   -22488039.637 7 -17424333.49122
 91  4 25 23 55 59.9980000  0  3G13G 2G 6
  20243284.381   -18360238.190 7 -13339291.85022
  20858789.6784  -14059250.31547 -10881103.70063
  20085566.092   -22486286.253 7 -17422967.20623
 91  4 25 23 56 14.9980000  0  3G13G 2G 6
  20237822.5064  -18388939.80347 -13361656.71561
  20861715.3894  -14043880.92947 -10869127.55363
  20085924.568   -22484407.787 7 -17421503.44623
 91  4 25 23 56 29.9980000  0  3G13G 2G 6
  20232389.3734  -18417492.55247 -13383905.58061
  20864650.4754  -14028458.26847 -10857109.89463
  20086304.912   -22482404.005 7 -17419942.04822
 91  4 25 23 56 44.9980000  0  3G13G 2G 6
  20226981.9364  -18445900.70447 -13406041.77561
  20867594.2644  -14012986.82847 -10845054.23463
  20086710.6864  -22480279.21347 -17418286.35462
 91  4 25 23 56 59.9980000  0  3G13G 2G 6
  20221605.6934  -18474163.04247 -13428064.34561
  20870548.2094  -13997465.20547 -10832959.46363
  20087138.873   -22478031.797 7 -17416535.10422
 91  4 25 23 57 14.9980000  0  3G13G 2G 6
  20216256.061   -18502277.309 7 -13449971.53921
  20873512.9204  -13981891.22047 -10820823.88963
  20087588.232   -22475659.795 7 -17414686.77522
 91  4 25 23 57 29.9980000  0  3G13G 2G 6
  20210935.5614  -18530244.99547 -13471764.51561
  20876483.1624  -13966266.70747 -10808648.95263
  20088062.1314  -22473164.67447 -17412742.51362
 91  4 25 23 57 44.9980000  0  3G13G 2G 6
  20205639.8344  -18558067.46147 -13493444.32661
  20879467.4594  -13950593.45447 -10796436.03063
  20088562.342   -22470548.069 7 -17410703.58422
 91  4 25 23 57 59.9980000  0  3G13G 2G 6
  20200371.826   -18585742.808 7 -13515009.50621
  20882459.3424  -13934869.12747 -10784183.31563
  20089082.475   -22467807.482 7 -17408568.05022
 91  4 25 23 58 14.9980000  0  3G13G 2G 6
  20195133.8734  -18613269.28547 -13536458.67262
  20885461.3504  -13919092.33247 -10771889.70963
  20089628.850   -22464941.327 7 -17406334.66722
 91  4 25 23 58 29.9980000  0  3G13G 2G 6
  20189926.123   -18640647.152 7 -13557792.05121
  20888473.2644  -13903263.52547 -10759555.57863
  20090197.5534  -22461949.87647 -17404003.65762
 91  4 25 23 58 44.9980000  0  3G13G 2G 6
  20184743.1154  -18667875.88647 -13579009.22262
  20891497.6234  -13887382.26448 -10747180.57363
  20090791.506   -22458832.437 7 -17401574.47222
 91  4 25 23 58 59.9980000  0  3G13G 2G 6
  20179591.5294  -18694951.45047 -13600107.03761
  20894529.5454  -13871444.38547 -10734761.44863
  20091410.123   -22455584.839 7 -17399043.86622
 91  4 25 23 59 14.9980000  0  3G13G 2G 6
  20174467.303   -18721879.660 7 -13621090.03321
  20897571.1314  -13855455.94647 -10722302.93262
  20092050.3114  -22452212.95547 -17396416.41662
 91  4 25 23 59 29.9980000  0  3G13G 2G 6
  20169370.5374  -18748658.91247 -13641956.95361
  20900623.8814  -13839415.40647 -10709803.80463
  20092717.998   -22448715.134 7 -17393690.82622
 91  4 25 23 59 44.9980000  0  3G13G 2G 6
  20164304.639   -18775287.011 7 -13662706.09621
  20903686.9124  -13823320.88547 -10697262.62363
  20093406.4044  -22445089.22747 -17390865.44162
 91  4 25 23 59 59.9980000  0  3G13G 2G 6
  20159264.6544  -18801766.23547 -13683339.22961
  20906759.5844  -13807174.70547 -10684681.18663
  20094119.342   -22441337.542 7 -17387942.03922
 91  4 26  0  0 14.9980000  0  3G13G 2G 6
  20154253.0064  -18828095.17547 -13703855.25961
  20909841.0064  -13790975.63447 -10672058.53663
  20094858.279   -22437458.712 7 -17384919.56422
 91  4 26  0  0 29.9980000  0  3G13G 2G 6
  20149273.459   -18854276.217 7 -13724256.05321
  20912933.3184  -13774725.95947 -10659396.45363
  20095618.8894  -22433454.97547 -17381799.76263
 91  4 26  0  0 44.9980000  0  3G13G 2G 6
  20144319.7874  -18880305.06347 -13744538.23761
  20916037.4674  -13758421.51947 -10646691.70863
  20096407.2254  -22429321.87447 -17378579.16162
 91  4 26  0  0 59.9980000  0  3G13G 2G 6
  20139394.3034  -18906185.08047 -13764704.45962
  20919147.9594  -13742065.72847 -10633946.93163
  20097216.303   -22425062.524 7 -17375260.17022
 91  4 26  0  1 14.9980000  0  3G13G 2G 6
  20134499.006   -18931916.451 7 -13784754.85222
  20922271.1074  -13725658.93747 -10621162.41263
  20098051.1394  -22420677.23447 -17371843.05563
 91  4 26  0  1 29.9980000  0  3G13G 2G 6
  20129630.8184  -18957499.52347 -13804689.67962
  20925402.1864  -13709201.50947 -10608338.44363
  20098908.8114  -22416166.30047 -17368328.03463
 91  4 26  0  1 44.9980000  0  3G13G 2G 6
  20124790.022   -18982935.329 7 -13824509.76321
  20928543.4984  -13692694.47948 -10595475.82163
  20099792.3114  -22411530.57947 -17364715.77562
 91  4 26  0  1 59.9980000  0  3G13G 2G 6
  20119975.865   -19008224.332 7 -13844215.44922
  20931694.6544  -13676138.23447 -10582574.84963
  20100699.0844  -22406770.52347 -17361006.63462
 91  4 26  0  2 14.9980000  0  3G13G 2G 6
  20115192.6004  -19033362.02847 -13863803.23461
  20934856.7484  -13659528.61548 -10569632.28163
  20101627.8264  -22401881.52747 -17357197.01962
 91  4 26  0  2 29.9980000  0  3G13G 2G 6
  20110438.2254  -19058349.77247 -13883274.18161
  20938026.3184  -13642867.04147 -10556649.23563
  20102583.1784  -22396865.11147 -17353288.12062
 91  4 26  0  2 44.9980000  0  3G13G 2G 6
  20105711.7794  -19083184.22447 -13902625.67661
  20941206.8654  -13626150.03148 -10543622.99163
  20103561.2254  -22391717.59347 -17349277.06262
 91  4 26  0  2 59.9980000  0  3G13G 2G 6
  20101014.7094  -19107869.23947 -13921860.72962
  20944397.1934  -13609381.76647 -10530556.80863
  20104567.873   -22386442.996 7 -17345166.97422
 91  4 26  0  3 14.9980000  0  3G13G 2G 6
  20096346.1474  -19132402.29747 -13940977.37462
  20947601.2174  -13592560.03947 -10517448.96563
  20105593.9824  -22381038.88447 -17340955.97362
 91  4 26  0  3 29.9980000  0  3G13G 2G 6
  20091705.1784  -19156787.81547 -13959979.04162
  20950809.6154  -13575689.11447 -10504302.79063
  20106647.7014  -22375509.43347 -17336647.30662
 91  4 26  0  3 44.9980000  0  3G13G 2G 6
  20087094.2564  -19181023.59447 -13978864.04562
  20954029.7174  -13558767.12547 -10491116.81963
  20107724.162   -22369852.724 7 -17332239.47022
 91  4 26  0  3 59.9980000  0  3G13G 2G 6
  20082510.732   -19205106.564 7 -13997629.96822
  20957260.6314  -13541790.69747 -10477888.43563
  20108823.8574  -22364065.30647 -17327729.78662
 91  4 26  0  4 14.9980000  0  3G13G 2G 6
  20077957.3264  -19229039.89347 -14016279.29262
  20960500.7404  -13524762.87547 -10464619.99663
  20109949.1544  -22358150.05847 -17323120.50162
 91  4 26  0  4 29.9980000  0  3G13G 2G 6
  20073431.1154  -19252824.05247 -14034812.37562
  20963749.4514  -13507684.43947 -10451312.12263
  20111099.9044  -22352107.68047 -17318412.14662
 91  4 26  0  4 44.9980000  0  3G13G 2G 6
  20068934.459   -19276457.568 7 -14053228.07922
  20967009.6474  -13490554.31547 -10437963.97563
  20112274.4754  -22345936.72247 -17313603.59562
 91  4 26  0  4 59.9980000  0  3G13G 2G 6
  20064464.7324  -19299940.50347 -14071526.44562
  20970279.2724  -13473372.37647 -10424575.44363
  20113473.0924  -22339637.21947 -17308694.89162
 91  4 26  0  5 14.9980000  0  3G13G 2G 6
  20060024.482   -19323273.003 7 -14089707.59122
  20973558.3034  -13456138.83747 -10411146.71363
  20114697.193   -22333209.090 7 -17303685.95122
 91  4 26  0  5 29.9980000  0  3G13G 2G 6
  20055615.498   -19346449.675 7 -14107767.31322
  20976848.2794  -13438848.38247 -10397673.62563
  20115945.8344  -22326646.96547 -17298572.60462
 91  4 26  0  5 44.9980000  0  3G13G 2G 6
  20051233.693   -19369480.159 7 -14125713.11822
  20980148.4594  -13421510.58047 -10384163.65463
  20117218.0454  -22319960.38547 -17293362.27862
 91  4 26  0  5 59.9980000  0  3G13G 2G 6
  20046879.936   -19392353.901 7 -14143536.79722
  20983459.9364  -13404114.94547 -10370608.61063
  20118513.8734  -22313138.58347 -17288046.58462
 91  4 26  0  6 14.9980000  0  3G13G 2G 6
  20042555.873   -19415071.748 7 -14161238.98822
  20986778.9984  -13386662.59447 -10357009.37463
  20119838.5374  -22306182.61647 -17282626.34362
 91  4 26  0  6 29.9980000  0  3G13G 2G 6
  20038261.623   -19437636.888 7 -14178822.19122
  20990111.8574  -13369156.69747 -10343368.41863
  20121186.4984  -22299095.44947 -17277103.87462
 91  4 26  0  6 44.9980000  0  3G13G 2G 6
  20033996.576   -19460047.478 7 -14196284.97222
  20993452.7404  -13351595.49747 -10329684.36563
  20122561.686   -22291875.365 7 -17271477.81922
 91  4 26  0  6 59.9980000  0  3G13G 2G 6
  20029762.959   -19482306.655 7 -14213629.76522
  20996805.5144  -13333982.10547 -10315959.64763
  20123961.1474  -22284525.26747 -17265750.47062
 91  4 26  0  7 14.9980000  0  3G13G 2G 6
  20025554.092   -19504413.668 7 -14230855.99222
  21000166.9904  -13316315.88847 -10302193.76562
  20125382.8734  -22277044.50947 -17259921.30862
 91  4 26  0  7 29.9980000  0  3G13G 2G 6
  20021376.982   -19526365.889 7 -14247961.59622
  21003536.9594  -13298594.13947 -10288384.61363
  20126834.3814  -22269430.16247 -17253988.04062
 91  4 26  0  7 44.9980000  0  3G13G 2G 6
  20017228.357   -19548168.539 7 -14264950.65922
  21006921.4754  -13280821.98847 -10274536.18763
  20128305.9284  -22261687.36447 -17247954.69562
 91  4 26  0  7 59.9980000  0  3G13G 2G 6
  20013107.561   -19569818.244 7 -14281820.53722
  21010314.6474  -13262996.34747 -10260646.07563
  20129805.2564  -22253812.83747 -17241818.69662
 91  4 26  0  8 14.9980000  0  3G13G 2G 6
  20009018.443   -19591314.165 7 -14298570.58722
  21013715.8814  -13245116.21147 -10246713.50563
  20131328.6784  -22245805.51947 -17235579.22262
 91  4 26  0  8 29.9980000  0  3G13G 2G 6
  20004955.990   -19612656.784 7 -14315201.18121
  21017129.0144  -13227182.39047 -10232739.10563
  20132875.7644  -22237666.03147 -17229236.76662
 91  4 26  0  8 44.9980000  0  3G13G 2G 6
  20000925.772   -19633841.328 7 -14331708.59722
  21020550.6154  -13209190.03347 -10218719.07963
  20134451.0844  -22229389.51847 -17222787.52162
 91  4 26  0  8 59.9980000  0  3G13G 2G 6
  19996924.662   -19654875.366 7 -14348098.73722
  21023984.4754  -13191146.73647 -10204659.37162
  20136051.7564  -22220983.27847 -17216237.19762
 91  4 26  0  9 14.9980000  0  3G13G 2G 6
  19992949.764   -19675753.188 7 -14364367.14922
  21027429.7874  -13173046.62647 -10190555.39163
  20137677.9284  -22212441.71947 -17209581.43262
 91  4 26  0  9 29.9980000  0  3G13G 2G 6
  19989006.334   -19696477.161 7 -14380515.67922
  21030886.8974  -13154892.30347 -10176409.16463
  20139327.2014  -22203767.07647 -17202821.96862
 91  4 26  0  9 44.9980000  0  3G13G 2G 6
  19985091.186   -19717045.500 7 -14396542.93422
  21034350.7324  -13136681.96647 -10162219.29763
  20141003.6704  -22194957.64547 -17195957.46862
 91  4 26  0  9 59.9980000  0  3G13G 2G 6
  19981205.279   -19737459.180 7 -14412449.68322
  21037825.8424  -13118416.63347 -10147986.57062
  20142707.3264  -22186014.11747 -17188988.48662
 91  4 26  0 10 14.9980000  0  3G13G 2G 6
  19977351.686   -19757717.916 7 -14428235.68722
  21041311.4984  -13100096.00447 -10133710.76162
  20144432.7324  -22176936.12247 -17181914.71962
